[[{"header":{"parameterUnit":"m.s-1","parameterCategory":1,"la1":30.6,"la2":29.2853,"lo1":-89.7004,"lo2":-87.6739,"dy":0.0162,"dx":0.0183,"nx":112,"ny":82,"refTime":"2023-08-24T12:00:00:Z","depth":0,"parameterNumber":2,"parameterNumberName":"U-component_of_WINDS"},"data":[0.0,0.0,0.0,0.0,0.0,0.0,0.0,0.0,0.0,0.0,0.0,0.0,0.0,0.0,0.0,0.0,0.0,0.0,0.0,0.0,0.0,0.0,0.0,0.0,0.0,0.0,0.0,0.0,0.0,0.0,0.0,0.0,0.0,0.0,0.0,0.0,0.0,0.0,0.0,0.0,0.0,0.0,0.0,0.0,0.0,0.0,0.0,0.0,0.0,0.0,0.0,0.0,0.0,0.0,0.0,0.0,0.0,0.0,0.0,0.0,0.0,0.0,0.0,0.0,0.0,0.0,0.0,0.0,0.0,0.0,0.0,0.0,0.0,0.0,0.0,0.0,0.0,0.0,0.0,0.0,0.0,0.0,0.0,0.0,0.0,0.0,0.0,0.0,0.0,0.0,0.0,-5.1539,-5.3125,-5.4556,-5.5551,-5.5215,-5.3556,-5.0266,0.0,0.0,0.0,0.0,0.0,0.0,0.0,0.0,0.0,0.0,0.0,0.0,0.0,0.0,0.0,0.0,0.0,0.0,0.0,0.0,0.0,0.0,0.0,0.0,0.0,0.0,0.0,0.0,0.0,0.0,0.0,0.0,0.0,0.0,0.0,0.0,0.0,0.0,0.0,0.0,0.0,0.0,0.0,0.0,0.0,0.0,0.0,0.0,0.0,0.0,0.0,0.0,0.0,0.0,0.0,0.0,0.0,0.0,0.0,0.0,0.0,0.0,0.0,0.0,0.0,0.0,0.0,0.0,0.0,0.0,0.0,0.0,0.0,0.0,0.0,0.0,0.0,0.0,0.0,0.0,0.0,0.0,0.0,0.0,0.0,0.0,0.0,0.0,0.0,0.0,0.0,0.0,0.0,0.0,0.0,0.0,0.0,0.0,0.0,0.0,0.0,0.0,0.0,0.0,-5.114,-5.3555,-5.4369,-5.4928,-5.5323,-5.4971,-5.3331,-5.005,0.0,0.0,0.0,0.0,0.0,0.0,0.0,0.0,0.0,0.0,0.0,0.0,0.0,0.0,0.0,0.0,0.0,0.0,0.0,0.0,0.0,0.0,0.0,0.0,0.0,0.0,0.0,0.0,0.0,0.0,0.0,0.0,0.0,0.0,0.0,0.0,0.0,0.0,0.0,0.0,0.0,0.0,0.0,0.0,0.0,0.0,0.0,0.0,0.0,0.0,0.0,0.0,0.0,0.0,0.0,0.0,0.0,0.0,0.0,0.0,0.0,0.0,0.0,0.0,0.0,0.0,0.0,0.0,0.0,0.0,0.0,0.0,0.0,0.0,0.0,0.0,0.0,0.0,0.0,0.0,0.0,0.0,0.0,0.0,0.0,0.0,0.0,0.0,0.0,0.0,0.0,0.0,0.0,0.0,0.0,0.0,0.0,0.0,0.0,0.0,0.0,0.0,0.0,-5.0321,-5.2077,-5.4049,-5.4488,-5.4759,-5.5117,-5.4627,-5.3177,-5.0463,-4.8507,0.0,0.0,0.0,0.0,0.0,0.0,0.0,0.0,0.0,0.0,0.0,0.0,0.0,0.0,0.0,0.0,0.0,0.0,0.0,0.0,0.0,0.0,0.0,0.0,0.0,0.0,0.0,0.0,0.0,0.0,0.0,0.0,0.0,0.0,0.0,0.0,0.0,0.0,0.0,0.0,0.0,0.0,0.0,0.0,0.0,0.0,0.0,0.0,0.0,0.0,0.0,0.0,0.0,0.0,0.0,0.0,0.0,0.0,0.0,0.0,0.0,0.0,0.0,0.0,0.0,0.0,0.0,0.0,0.0,0.0,0.0,0.0,0.0,0.0,0.0,0.0,0.0,0.0,0.0,0.0,0.0,0.0,0.0,0.0,0.0,0.0,0.0,0.0,0.0,0.0,0.0,0.0,0.0,0.0,0.0,0.0,0.0,0.0,0.0,0.0,0.0,0.0,-5.1455,-5.3034,-5.4255,-5.4503,-5.4742,-5.5099,-5.4056,-5.2502,-5.0429,-4.7908,0.0,0.0,0.0,0.0,0.0,0.0,0.0,0.0,0.0,0.0,0.0,0.0,0.0,0.0,0.0,0.0,0.0,0.0,0.0,0.0,0.0,0.0,0.0,0.0,0.0,0.0,0.0,0.0,0.0,0.0,0.0,0.0,0.0,0.0,0.0,0.0,0.0,0.0,0.0,0.0,0.0,0.0,0.0,0.0,0.0,0.0,0.0,0.0,0.0,0.0,0.0,0.0,0.0,0.0,0.0,0.0,0.0,0.0,0.0,0.0,0.0,0.0,0.0,0.0,0.0,0.0,0.0,0.0,0.0,0.0,0.0,0.0,0.0,0.0,0.0,0.0,0.0,0.0,0.0,0.0,0.0,0.0,0.0,0.0,0.0,0.0,0.0,0.0,0.0,0.0,0.0,0.0,0.0,0.0,0.0,0.0,0.0,0.0,0.0,0.0,0.0,0.0,-5.173,-5.3598,-5.4737,-5.5023,-5.5254,-5.5519,-5.3121,-5.0872,-4.9215,-4.639,0.0,0.0,0.0,0.0,0.0,0.0,0.0,0.0,0.0,0.0,0.0,0.0,0.0,0.0,0.0,0.0,0.0,0.0,0.0,0.0,0.0,0.0,0.0,0.0,0.0,0.0,0.0,0.0,0.0,0.0,0.0,0.0,0.0,0.0,0.0,0.0,0.0,0.0,0.0,0.0,0.0,0.0,0.0,0.0,0.0,0.0,0.0,0.0,0.0,0.0,0.0,0.0,0.0,0.0,0.0,0.0,0.0,0.0,0.0,0.0,0.0,0.0,0.0,0.0,0.0,0.0,0.0,0.0,0.0,0.0,0.0,0.0,0.0,0.0,0.0,0.0,0.0,0.0,0.0,0.0,0.0,0.0,0.0,0.0,0.0,0.0,0.0,0.0,0.0,0.0,0.0,0.0,0.0,0.0,0.0,0.0,0.0,0.0,0.0,0.0,0.0,0.0,-5.1729,-5.3526,0.0,-5.4381,-5.4778,-5.461,-5.3164,-5.1276,-4.8917,0.0,0.0,0.0,0.0,0.0,0.0,0.0,0.0,0.0,0.0,0.0,0.0,0.0,0.0,0.0,0.0,0.0,0.0,0.0,0.0,0.0,0.0,0.0,0.0,0.0,0.0,0.0,0.0,0.0,0.0,0.0,0.0,0.0,0.0,0.0,0.0,0.0,0.0,0.0,0.0,0.0,0.0,0.0,0.0,0.0,0.0,0.0,0.0,0.0,0.0,0.0,0.0,0.0,0.0,0.0,0.0,0.0,0.0,0.0,0.0,0.0,0.0,0.0,0.0,0.0,0.0,0.0,0.0,0.0,0.0,0.0,0.0,0.0,0.0,0.0,0.0,0.0,0.0,0.0,0.0,0.0,0.0,0.0,0.0,0.0,0.0,0.0,0.0,0.0,0.0,0.0,0.0,0.0,0.0,0.0,0.0,0.0,0.0,0.0,0.0,0.0,0.0,-4.8933,-5.1273,-5.2854,0.0,-5.345,-5.386,-5.3746,-5.2608,-5.0894,-4.8547,0.0,0.0,0.0,0.0,0.0,0.0,0.0,0.0,0.0,0.0,0.0,0.0,0.0,0.0,0.0,0.0,0.0,0.0,0.0,0.0,0.0,0.0,0.0,0.0,0.0,0.0,0.0,0.0,0.0,0.0,0.0,0.0,0.0,0.0,0.0,0.0,0.0,0.0,0.0,0.0,0.0,0.0,0.0,0.0,0.0,0.0,0.0,0.0,0.0,0.0,0.0,0.0,0.0,0.0,0.0,0.0,0.0,0.0,0.0,0.0,0.0,0.0,0.0,0.0,0.0,0.0,0.0,0.0,0.0,0.0,0.0,0.0,0.0,0.0,0.0,0.0,0.0,0.0,0.0,0.0,0.0,0.0,0.0,0.0,0.0,0.0,0.0,0.0,0.0,0.0,0.0,0.0,0.0,0.0,0.0,0.0,0.0,0.0,0.0,0.0,0.0,0.0,-4.8794,-5.0305,-5.1579,-5.2298,-5.2378,-5.2615,-5.3149,-5.1187,-4.9369,0.0,0.0,0.0,0.0,0.0,0.0,0.0,0.0,0.0,0.0,0.0,0.0,0.0,0.0,0.0,0.0,0.0,0.0,0.0,0.0,0.0,0.0,0.0,0.0,0.0,0.0,0.0,0.0,0.0,0.0,0.0,0.0,0.0,0.0,0.0,0.0,0.0,0.0,0.0,0.0,0.0,0.0,0.0,0.0,0.0,0.0,0.0,0.0,0.0,0.0,0.0,0.0,0.0,0.0,0.0,0.0,0.0,0.0,0.0,0.0,0.0,0.0,0.0,0.0,0.0,0.0,0.0,0.0,0.0,0.0,0.0,0.0,0.0,0.0,0.0,0.0,0.0,0.0,0.0,0.0,0.0,0.0,0.0,0.0,0.0,0.0,0.0,0.0,0.0,0.0,0.0,0.0,0.0,0.0,0.0,0.0,0.0,0.0,0.0,0.0,0.0,0.0,0.0,-4.8251,-5.0007,-5.128,-5.159,-5.2017,-5.2369,-5.2615,-5.1647,-5.0211,-4.8313,0.0,0.0,0.0,0.0,0.0,0.0,0.0,0.0,0.0,0.0,0.0,0.0,0.0,0.0,0.0,0.0,0.0,0.0,0.0,0.0,0.0,0.0,0.0,0.0,0.0,0.0,0.0,0.0,0.0,0.0,0.0,0.0,0.0,0.0,0.0,0.0,0.0,0.0,0.0,0.0,0.0,0.0,0.0,0.0,0.0,0.0,0.0,0.0,0.0,0.0,0.0,0.0,0.0,0.0,0.0,0.0,0.0,0.0,0.0,0.0,0.0,0.0,0.0,0.0,0.0,0.0,0.0,0.0,0.0,0.0,0.0,0.0,0.0,0.0,0.0,0.0,0.0,0.0,0.0,0.0,0.0,0.0,0.0,0.0,0.0,0.0,0.0,0.0,0.0,0.0,0.0,0.0,0.0,0.0,0.0,0.0,0.0,0.0,0.0,0.0,0.0,0.0,-4.782,-4.92,-5.027,-5.0609,-5.1013,-5.1395,-5.1651,-5.1343,-5.0246,-4.8117,0.0,0.0,0.0,0.0,0.0,0.0,0.0,0.0,0.0,0.0,0.0,0.0,0.0,0.0,0.0,0.0,0.0,0.0,0.0,0.0,0.0,0.0,0.0,0.0,0.0,0.0,0.0,0.0,0.0,0.0,0.0,0.0,0.0,0.0,0.0,0.0,0.0,0.0,0.0,0.0,0.0,0.0,0.0,0.0,0.0,0.0,0.0,0.0,0.0,0.0,0.0,0.0,0.0,0.0,0.0,0.0,0.0,0.0,0.0,0.0,0.0,0.0,0.0,0.0,0.0,0.0,0.0,0.0,0.0,0.0,0.0,0.0,0.0,0.0,0.0,0.0,0.0,0.0,0.0,0.0,0.0,0.0,0.0,0.0,0.0,0.0,0.0,0.0,0.0,0.0,0.0,0.0,0.0,0.0,0.0,0.0,0.0,0.0,0.0,0.0,0.0,0.0,-4.738,-4.8141,-4.8858,-4.9513,-4.972,-5.004,-5.0474,-5.053,-4.973,-4.7764,0.0,0.0,0.0,0.0,0.0,0.0,0.0,0.0,0.0,0.0,0.0,0.0,0.0,0.0,0.0,0.0,0.0,0.0,0.0,0.0,0.0,0.0,0.0,0.0,0.0,0.0,0.0,0.0,0.0,0.0,0.0,0.0,0.0,0.0,0.0,0.0,0.0,0.0,0.0,0.0,0.0,0.0,0.0,0.0,0.0,0.0,0.0,0.0,0.0,0.0,0.0,0.0,0.0,0.0,0.0,0.0,0.0,0.0,0.0,0.0,-4.8235,0.0,0.0,0.0,0.0,0.0,0.0,0.0,0.0,0.0,0.0,0.0,0.0,0.0,0.0,0.0,0.0,0.0,0.0,0.0,0.0,0.0,0.0,0.0,0.0,0.0,0.0,0.0,0.0,0.0,0.0,0.0,0.0,0.0,0.0,0.0,0.0,0.0,0.0,0.0,0.0,0.0,-4.6583,-4.7373,-4.8097,-4.8606,-4.9087,-4.9496,-4.9866,-4.9982,-4.9658,-4.875,-4.8216,0.0,0.0,0.0,0.0,0.0,0.0,0.0,0.0,0.0,0.0,0.0,0.0,0.0,0.0,0.0,0.0,0.0,0.0,0.0,0.0,0.0,0.0,0.0,0.0,0.0,0.0,0.0,0.0,0.0,0.0,0.0,0.0,0.0,0.0,0.0,0.0,0.0,0.0,0.0,0.0,0.0,0.0,0.0,0.0,0.0,0.0,0.0,0.0,0.0,0.0,0.0,0.0,0.0,0.0,0.0,0.0,0.0,0.0,0.0,0.0,-4.7245,0.0,0.0,0.0,0.0,0.0,0.0,0.0,0.0,0.0,0.0,0.0,0.0,0.0,0.0,0.0,0.0,0.0,0.0,0.0,0.0,0.0,0.0,0.0,0.0,0.0,0.0,0.0,0.0,0.0,0.0,0.0,0.0,0.0,0.0,0.0,0.0,0.0,0.0,0.0,0.0,-4.6947,-4.7703,-4.8237,-4.853,-4.9016,-4.9357,-4.9354,-4.959,-4.9411,-4.8759,-4.8546,0.0,0.0,0.0,0.0,0.0,0.0,0.0,0.0,0.0,0.0,0.0,0.0,0.0,0.0,0.0,0.0,0.0,0.0,0.0,0.0,0.0,0.0,0.0,0.0,0.0,0.0,0.0,0.0,0.0,0.0,0.0,0.0,0.0,0.0,0.0,0.0,0.0,0.0,0.0,0.0,0.0,0.0,0.0,0.0,0.0,0.0,0.0,0.0,0.0,0.0,0.0,0.0,0.0,-4.6538,-4.6269,-4.5829,-4.5972,-4.589,-4.5693,-4.6242,-4.6519,-4.65,0.0,0.0,0.0,0.0,0.0,0.0,0.0,0.0,0.0,0.0,0.0,0.0,0.0,0.0,0.0,0.0,0.0,0.0,0.0,0.0,0.0,0.0,0.0,0.0,0.0,-4.2635,-4.2359,0.0,0.0,0.0,0.0,0.0,0.0,0.0,0.0,0.0,0.0,0.0,0.0,-4.7259,-4.801,-4.8454,-4.8466,-4.906,-4.9341,-4.9036,-4.928,-4.9171,-4.8498,-4.8446,-4.8003,0.0,0.0,0.0,0.0,0.0,0.0,0.0,0.0,0.0,0.0,0.0,0.0,0.0,0.0,0.0,0.0,0.0,0.0,0.0,0.0,0.0,0.0,0.0,0.0,0.0,0.0,0.0,0.0,0.0,0.0,0.0,0.0,-4.6129,-4.6046,0.0,0.0,0.0,0.0,0.0,0.0,0.0,0.0,0.0,0.0,0.0,0.0,0.0,-4.7082,-4.7087,-4.7502,-4.734,-4.663,-4.7111,-4.7308,-4.7225,-4.7258,-4.6898,-4.6272,-4.6368,0.0,-4.617,-4.7094,0.0,0.0,0.0,0.0,0.0,0.0,0.0,0.0,0.0,0.0,0.0,0.0,0.0,0.0,0.0,0.0,0.0,0.0,0.0,0.0,0.0,0.0,-4.3783,-4.3431,-4.2903,-4.2551,0.0,-4.3229,-4.294,-4.167,0.0,0.0,0.0,0.0,0.0,0.0,0.0,0.0,-4.5864,-4.7021,-4.7808,-4.7513,-4.8602,-4.9227,-4.9028,-4.9209,-4.9136,-4.868,-4.8068,-4.8067,-4.8839,-4.7471,0.0,0.0,0.0,0.0,0.0,0.0,0.0,0.0,0.0,0.0,0.0,0.0,0.0,0.0,0.0,0.0,0.0,0.0,0.0,0.0,0.0,0.0,0.0,0.0,0.0,0.0,0.0,0.0,0.0,-4.5575,-4.6339,-4.5768,-4.6776,-4.6948,0.0,0.0,0.0,0.0,0.0,0.0,0.0,0.0,0.0,-4.7389,-4.7177,-4.7128,-4.7309,-4.7273,-4.7139,-4.6945,-4.7088,-4.7098,-4.6996,-4.6983,-4.6754,-4.636,-4.6462,-4.645,-4.6356,-4.6474,-4.6096,-4.5466,0.0,0.0,0.0,0.0,-4.5507,-4.5864,-4.5676,-4.5202,0.0,0.0,0.0,0.0,0.0,0.0,0.0,0.0,0.0,0.0,0.0,0.0,0.0,-4.3345,-4.3051,-4.2899,-4.3288,-4.3371,-4.307,0.0,-4.1617,-4.1545,-4.1909,0.0,0.0,0.0,0.0,0.0,-4.6016,-4.6784,-4.7181,-4.6887,-4.7645,-4.8071,-4.7843,-4.8165,-4.8381,-4.8308,-4.7992,-4.8054,-4.8498,-4.7414,-4.6494,0.0,0.0,0.0,0.0,0.0,0.0,0.0,0.0,0.0,0.0,0.0,0.0,0.0,0.0,0.0,0.0,0.0,0.0,0.0,0.0,0.0,0.0,0.0,0.0,0.0,0.0,0.0,0.0,-4.6274,-4.6504,-4.5865,-4.7045,-4.7192,0.0,0.0,0.0,0.0,0.0,0.0,-4.7226,-4.6992,-4.712,-4.7598,-4.7264,-4.7196,-4.7544,-4.7127,-4.6996,-4.7098,-4.6961,-4.6807,-4.6582,-4.6592,-4.6521,-4.6385,-4.6518,-4.6622,-4.6606,-4.6077,-4.5766,-4.5699,-4.6155,-4.6269,-4.6207,-4.631,-4.6368,-4.6369,-4.6013,-4.5713,-4.5505,-4.5423,0.0,-4.391,-4.3684,0.0,0.0,0.0,0.0,-4.4172,-4.3876,-4.3504,-4.326,-4.3635,-4.3343,-4.3134,-4.3618,-4.3329,-4.2788,0.0,-4.159,-4.1397,-4.1991,0.0,0.0,0.0,0.0,-4.5199,-4.5928,-4.6455,-4.6601,-4.6303,-4.6892,-4.7232,-4.7042,-4.7393,-4.7667,-4.777,-4.7589,-4.7523,-4.7704,-4.6815,-4.6089,-4.5639,0.0,0.0,0.0,0.0,0.0,0.0,0.0,0.0,0.0,0.0,0.0,0.0,0.0,0.0,0.0,0.0,0.0,0.0,0.0,0.0,0.0,0.0,0.0,0.0,0.0,0.0,0.0,0.0,0.0,-4.7119,-4.7135,0.0,0.0,0.0,0.0,-4.5923,-4.5874,-4.5771,-4.5445,-4.541,-4.6035,-4.7381,-4.6917,-4.6972,-4.768,-4.7163,-4.6927,-4.6911,-4.6911,-4.6807,-4.6582,-4.6592,-4.6606,-4.6574,-4.6609,-4.6717,-4.6876,-4.683,-4.651,-4.6076,-4.6093,-4.5669,-4.5098,-4.5098,-4.5391,-4.5843,-4.581,-4.5691,-4.5701,-4.6311,-4.5655,-4.4566,-4.4106,-4.3847,0.0,0.0,-4.4011,-4.4618,-4.4405,-4.4285,-4.4343,-4.4699,-4.3881,-4.319,-4.3856,-4.297,-4.2009,0.0,-4.2212,-4.2307,-4.142,0.0,-4.3762,-4.3772,-4.4763,-4.5349,-4.4786,-4.567,-4.6144,-4.5703,-4.6625,-4.7325,-4.7369,-4.7377,-4.739,-4.7266,-4.6414,-4.6232,-4.6929,-4.5632,-4.4787,-4.4573,-4.3469,0.0,0.0,0.0,0.0,0.0,0.0,0.0,0.0,0.0,0.0,0.0,0.0,0.0,0.0,0.0,0.0,0.0,0.0,0.0,0.0,0.0,0.0,0.0,0.0,0.0,0.0,0.0,0.0,-4.6086,-4.6936,0.0,-4.5409,-4.6239,-4.65,-4.5532,-4.5779,-4.5946,-4.5821,-4.5821,-4.5989,-4.6373,-4.6532,-4.6676,-4.6792,-4.6867,-4.6876,-4.6876,-4.6772,-4.6563,-4.6282,-4.6125,-4.6016,-4.5916,-4.6044,-4.6186,-4.6401,-4.649,-4.6558,-4.6622,-4.6738,-4.6559,-4.6217,-4.6217,-4.6277,-4.6281,-4.6159,-4.6035,-4.5828,-4.5199,-4.4846,-4.4449,-4.3365,-4.3609,-4.4179,-4.3816,-4.4263,-4.4762,-4.4427,-4.4197,-4.3981,-4.3732,-4.3006,-4.2415,-4.2511,-4.1922,-4.1239,-4.0871,-4.1139,-4.1461,-4.1693,-4.189,-4.2272,-4.297,-4.3542,-4.4052,-4.4367,-4.4522,-4.4731,-4.5196,-4.517,-4.5418,-4.614,-4.6192,-4.6194,-4.6227,-4.592,-4.5716,-4.5696,-4.5371,-4.5027,-4.4633,-4.412,-4.3148,0.0,0.0,0.0,0.0,0.0,0.0,0.0,0.0,0.0,0.0,0.0,0.0,0.0,0.0,0.0,0.0,0.0,0.0,0.0,0.0,0.0,0.0,0.0,0.0,0.0,0.0,-4.6712,-4.6003,-4.7021,-4.7165,-4.5684,-4.6458,-4.6789,-4.6235,-4.6505,-4.6554,-4.6264,-4.6212,-4.6176,-4.6029,-4.6578,-4.676,-4.6546,-4.7039,-4.71,-4.6684,-4.6563,-4.6369,-4.6116,-4.5953,-4.5825,-4.5735,-4.5834,-4.5992,-4.6152,-4.6278,-4.6458,-4.6705,-4.7008,-4.7042,-4.6927,-4.7064,-4.703,-4.6858,-4.6353,-4.6012,-4.5608,-4.4501,-4.4225,-4.4213,-4.3271,-4.3623,-4.4289,-4.4011,-4.4271,-4.4572,-4.4097,-4.3747,-4.3339,-4.278,-4.2155,-4.1742,-4.1978,-4.1381,-4.0774,-4.0845,-4.1071,-4.1339,-4.1604,-4.1715,-4.2022,-4.2696,-4.3053,-4.3419,-4.389,-4.3767,-4.3828,-4.4278,-4.3886,-4.3977,-4.4886,-4.5106,-4.5231,-4.54,-4.5421,-4.5253,-4.4973,-4.4783,-4.4528,-4.4288,-4.3324,-4.2266,-4.1137,0.0,0.0,0.0,0.0,0.0,0.0,0.0,0.0,0.0,0.0,0.0,0.0,0.0,0.0,0.0,0.0,0.0,0.0,0.0,0.0,0.0,0.0,0.0,-4.5556,-4.6006,-4.6407,-4.7019,-4.7338,-4.7671,-4.8035,-4.7953,-4.7893,-4.7893,-4.7893,-4.7517,-4.6605,-4.6504,-4.6504,-4.652,-4.7082,-4.7301,-4.7098,-4.7677,-4.7429,-4.6298,-4.6314,-4.6239,-4.6076,-4.6099,-4.6099,-4.606,-4.6068,-4.614,-4.6262,-4.6262,-4.625,-4.6311,-4.6722,-4.6858,-4.6911,-4.7285,-4.7403,-4.7251,-4.6301,-4.5583,-4.5046,-4.4389,-4.4028,-4.3849,-4.3849,-4.3888,-4.3888,-4.3888,-4.4097,-4.4151,-4.3497,-4.3021,-4.2607,-4.2114,-4.145,-4.1296,-4.2389,-4.1366,-4.0603,-4.1701,-4.2099,-4.1961,-4.1113,-4.2222,-4.3148,-4.2975,-4.3343,0.0,-4.333,-4.3497,-4.3481,-4.3044,-4.2955,-4.3195,-4.3801,-4.4266,-4.4594,-4.4699,-4.4737,-4.4737,-4.4805,-4.3745,-4.3257,-4.3475,-4.0891,-3.9674,-3.9898,0.0,0.0,0.0,0.0,0.0,0.0,0.0,0.0,0.0,0.0,0.0,0.0,0.0,0.0,0.0,0.0,0.0,0.0,0.0,0.0,0.0,0.0,-4.3953,-4.4541,-4.5688,-4.6547,-4.6703,-4.752,-4.7989,-4.7687,-4.7617,-4.7671,-4.7893,-4.7893,-4.7776,-4.7533,-4.7012,-4.6965,-4.7508,-4.7294,-4.7171,-4.7098,-4.7405,-4.7145,-4.6314,-4.6825,-4.6681,-4.5896,-4.6389,-4.6176,-4.5442,-4.5458,-4.5458,-4.5484,-4.5494,-4.5405,-4.5342,-4.6039,-4.614,-4.5904,-4.5861,-4.5635,-4.5342,-4.4933,-4.4442,-4.3981,-4.3669,-4.3314,-4.3036,-4.3036,-4.3354,-4.3693,-4.3849,-4.4289,-4.461,-4.4151,-4.3457,-4.271,-4.2155,-4.1128,-4.0372,-4.0674,-4.0112,-3.9733,-4.0227,-4.0731,-4.0944,-4.056,-4.1001,-4.1609,-4.2167,-4.2653,0.0,-4.3473,-4.314,-4.2919,-4.2996,-4.231,-4.2167,-4.295,-4.2991,-4.2936,-4.2921,-4.3096,-4.3045,-4.2722,-4.2614,-4.2564,-4.2629,-4.0286,-3.9469,0.0,0.0,0.0,0.0,0.0,0.0,0.0,0.0,0.0,0.0,0.0,0.0,0.0,0.0,0.0,0.0,0.0,0.0,0.0,0.0,0.0,0.0,-4.3607,-4.4422,-4.4996,-4.5818,-4.6511,-4.6948,-4.7973,-4.8518,-4.8279,-4.8232,-4.8365,-4.8591,-4.8552,-4.8349,-4.8066,-4.7282,-4.7079,-4.7601,-4.7397,-4.7109,-4.684,-4.7347,-4.6998,-4.5848,-4.626,-4.615,-4.5568,-4.5966,-4.5788,0.0,-4.5194,-4.521,-4.5182,-4.5188,-4.5033,0.0,0.0,0.0,0.0,0.0,-4.4914,-4.4412,-4.4197,-4.3732,-4.3155,-4.285,-4.2485,-4.2117,-4.202,-4.2307,-4.2714,-4.282,-4.3245,-4.36,-4.3195,-4.2522,-4.1811,-4.1141,-4.0258,-3.9631,-3.9911,-3.9455,-3.9172,-3.9834,0.0,0.0,-3.9881,-4.0784,-4.1554,-4.1777,-4.2351,-4.2724,-4.2649,-4.2481,-4.2281,-4.2179,-4.1722,-4.1581,-4.1952,-4.2194,0.0,0.0,0.0,-4.2143,-4.1697,-4.1828,0.0,0.0,0.0,-3.8907,-3.9716,0.0,0.0,0.0,-3.6525,-3.6327,0.0,0.0,0.0,0.0,0.0,0.0,0.0,0.0,0.0,0.0,0.0,0.0,0.0,0.0,0.0,0.0,-4.4267,-4.5173,-4.6169,-4.6188,-4.6448,-4.7487,-4.8363,-4.898,-4.9194,-4.9235,-4.9356,-4.9557,-4.9396,-4.9025,-4.8433,0.0,0.0,0.0,0.0,-4.7085,-4.6504,-4.7221,-4.6831,-4.5182,-4.5298,-4.5298,-4.5182,-4.5298,-4.5282,-4.5182,-4.5182,-4.5129,-4.5145,-4.5095,-4.4817,-4.4511,-4.4963,-4.5024,-4.4888,-4.4953,-4.455,0.0,0.0,0.0,0.0,-4.2075,-4.1633,-4.1255,-4.0972,-4.1114,-4.1297,-4.1297,-4.1646,-4.1908,-4.1535,-4.1071,-4.0502,-3.9823,-3.9206,-3.8984,-3.9563,-3.9073,-3.8845,-3.9911,-3.9384,-3.8908,-3.9247,-4.0893,-4.201,-4.1499,-4.2123,-4.2322,-4.1318,-4.1571,-4.1536,-4.0887,0.0,0.0,-4.083,-4.1561,-4.1852,-4.1437,-4.1617,-4.159,-4.1213,-4.1057,-4.1155,-4.1437,-3.9064,-3.8182,-3.8765,-3.5993,-3.5259,-3.6411,-3.7497,-3.7427,0.0,0.0,0.0,0.0,0.0,0.0,0.0,0.0,0.0,0.0,0.0,0.0,0.0,0.0,0.0,-4.3274,-4.3963,-4.4862,-4.6142,-4.6398,-4.6743,-4.7522,-4.8084,-4.8495,-4.8744,-4.8924,-4.9144,-4.9356,-4.9316,-4.9253,-4.9088,-4.7863,0.0,-4.8302,-4.712,-4.6479,-4.6489,-4.6517,-4.6059,-4.522,0.0,0.0,-4.5235,-4.5915,-4.5778,-4.4964,-4.4964,-4.4889,-4.4701,-4.455,-4.4124,-4.3559,-4.3482,-4.3444,-4.3356,-4.305,-4.2858,-4.2751,-4.2718,-4.2363,-4.1868,-4.1591,-4.1213,-4.0744,-4.0343,-4.0445,0.0,-4.0745,-4.1309,-4.1862,-4.1573,-4.1057,-4.0489,-3.9956,-3.906,-3.8381,-3.8504,-3.8232,-3.8141,-3.88,-3.8485,-3.8349,-3.9172,-3.9802,-4.0242,-4.0422,-4.0825,-4.0987,-4.0787,-4.0639,-4.0392,-3.9936,-3.9763,-3.9689,-3.9645,-3.9996,-4.0097,-3.9777,-3.9954,-4.0027,-3.9954,-3.9455,-3.9398,-3.9763,-3.7946,-3.7365,-3.8109,-3.6781,-3.6436,-3.6929,-3.589,-3.5596,0.0,0.0,0.0,0.0,0.0,0.0,0.0,0.0,0.0,0.0,0.0,-4.0429,0.0,0.0,-4.2727,-4.3964,-4.4437,-4.515,-4.6593,-4.6886,-4.7119,-4.7551,-4.7922,-4.8175,-4.8286,-4.851,-4.8718,-4.8949,-4.8949,-4.8949,-4.8949,-4.7852,-4.745,-4.7911,-4.7093,-4.6528,-4.6408,-4.6513,-4.6111,-4.511,-4.555,-4.5364,-4.4603,-4.504,-4.488,-4.4251,-4.4251,-4.4174,-4.4073,-4.3778,-4.3325,-4.2795,-4.2364,-4.233,-4.2452,-4.2175,-4.197,-4.1886,-4.1761,-4.1494,-4.1156,-4.093,-4.0559,-4.0154,-3.9747,-4.0013,-4.0352,-4.0219,-4.081,-4.1315,-4.0789,-4.0267,-3.9679,-3.9011,-3.8206,-3.7664,-3.7664,-3.7559,-3.7559,-3.7952,-3.7861,-3.7907,-3.8621,-3.8832,-3.9105,-3.964,-4.0042,-4.0124,-3.9798,-3.941,-3.9167,-3.9096,-3.91,-3.9069,-3.8948,-3.9274,-3.9452,-3.9305,-3.9526,-3.9601,-3.9455,-3.9037,-3.8891,-3.91,-3.8034,-3.7588,-3.7677,-3.6998,-3.6641,-3.6521,-3.5288,-3.5365,0.0,0.0,0.0,0.0,0.0,0.0,0.0,0.0,-3.7367,-3.8249,-3.9233,-4.0196,-4.107,-4.1833,-4.2829,-4.4556,-4.4963,-4.5595,-4.7043,-4.7207,-4.7294,-4.7452,-4.7752,-4.7922,-4.7922,-4.8133,-4.8286,-4.8453,-4.8495,-4.8434,-4.8311,-4.7502,-4.6992,-4.687,-4.6559,-4.624,-4.5862,-4.6224,-4.587,-4.4832,-4.4832,-4.4504,-4.3934,-4.3895,-4.3723,-4.3472,-4.3418,-4.3379,-4.3299,-4.2941,-4.2592,-4.2213,-4.1549,-4.1507,-4.1717,-4.1566,-4.1397,-4.1241,-4.0943,-4.0744,-4.0516,-4.0272,-3.9952,-3.9669,-3.9454,-3.9717,-4.0051,-3.9685,-4.0066,-4.0433,-3.9533,-3.9051,-3.8595,-3.7834,-3.7328,-3.7015,-3.6968,-3.6968,-3.7028,-3.7214,-3.7366,-3.7539,-3.7985,-3.8122,-3.8395,-3.898,-3.9352,-3.9382,-3.8841,-3.8336,-3.8167,-3.8421,-3.8575,-3.8562,-3.8453,-3.8769,-3.8948,-3.8948,-3.9141,-3.9185,-3.8948,-3.8787,-3.8639,-3.8549,-3.8096,-3.7559,-3.7062,-3.6568,-3.6048,-3.5523,-3.4933,-3.5355,-2.9988,-3.1309,-3.2674,-3.3035,-3.4465,-3.5877,0.0,0.0,-3.7586,-3.8648,-3.9857,-4.0799,-4.1,-4.2296,-4.3502,-4.405,-4.492,-4.5856,-4.6827,-4.6931,-4.696,-4.696,-4.7366,-4.7624,-4.7624,-4.788,-4.8049,-4.8049,-4.8049,-4.7833,-4.7197,-4.6528,-4.5849,-4.5257,-4.468,-4.433,-4.4254,-4.433,-4.4246,-4.4094,-4.4094,-4.397,-4.363,-4.3457,-4.326,-4.3061,-4.2805,-4.2603,-4.2415,-4.2196,-4.1964,-4.1744,-4.1226,-4.0972,-4.083,-4.0844,-4.08,-4.0755,-4.046,-4.026,-4.0039,-3.9823,-3.9733,-3.9707,-3.9717,-3.9769,-3.9685,-3.9037,-3.9077,-3.9031,-3.7712,-3.7537,-3.757,-3.7261,-3.6956,-3.6675,-3.6499,-3.6499,-3.6499,-3.6499,-3.6875,-3.7261,-3.7551,-3.7893,-3.8245,-3.8304,-3.8344,-3.837,-3.8304,-3.7861,-3.7677,-3.7952,-3.7769,-3.771,-3.7867,-3.7756,-3.769,-3.769,-3.7736,-3.7736,-3.769,-3.7893,-3.7802,-3.7294,-3.6803,-3.6178,-3.5463,-3.5174,-3.4629,-3.3895,-3.4042,-3.4434,-2.949,-3.0863,0.0,0.0,-3.4402,-3.5694,-3.5668,-3.6589,-3.7526,-3.7577,-3.9468,-4.0966,-4.0597,-4.2055,-4.3468,0.0,-4.4661,-4.5376,-4.6579,-4.6712,-4.6564,-4.6165,-4.6766,-4.7193,-4.7193,-4.7538,-4.7752,-4.7752,-4.7922,-4.7619,-4.6811,-4.6509,-4.5807,-4.4645,-4.4705,-4.4504,-4.4008,-4.4383,-4.4342,-4.3832,-4.3832,-4.3583,-4.309,-4.289,-4.2526,-4.2075,-4.1937,-4.1771,-4.1548,-4.1604,-4.1451,-4.1114,-4.0901,-4.0602,-4.0314,-4.0485,-4.0427,-4.0281,-4.0051,-3.9906,-3.9804,-3.9557,-3.938,-3.9212,-3.9109,-3.9247,-3.9362,-3.9081,-3.9311,-3.9332,-3.814,-3.7868,-3.7619,-3.6676,-3.6275,-3.6038,-3.5943,-3.6051,-3.6193,-3.6193,-3.6546,-3.6909,-3.7015,-3.7341,-3.7572,-3.7572,-3.7848,-3.7985,-3.7815,-3.7341,-3.7062,-3.7188,-3.7015,-3.6922,-3.7129,-3.7095,-3.7015,-3.7015,-3.7188,-3.7036,-3.6568,-3.6696,-3.6355,-3.5487,-3.5234,-3.4848,-3.4264,-3.3834,-3.34,-3.2901,-3.2561,-3.2398,-2.8907,0.0,0.0,-3.2619,-3.3972,-3.5129,-3.5489,-3.6333,-3.712,-3.7339,-3.9177,-4.0659,-4.0351,-4.1781,-4.3296,-4.4195,-4.449,-4.5077,-4.6344,-4.655,-4.6417,-4.5916,-4.6504,-4.6829,-4.6697,-4.7149,-4.7452,-4.751,-4.7458,-4.7066,-4.619,-4.6037,-4.5323,-4.3916,-4.443,-4.4404,-4.3656,-4.4198,-4.4116,-4.3422,-4.3422,-4.3145,-4.2622,-4.2213,-4.1675,-4.1114,-4.1057,-4.0901,-4.0745,-4.0944,-4.083,-4.053,-4.053,-4.027,-3.9936,-4.0051,-4.0007,-3.9892,-3.968,-3.952,-3.9452,-3.923,-3.9024,-3.8841,-3.8916,-3.9144,-3.9312,-3.9327,-3.9522,-3.9515,-3.826,-3.7801,-3.7331,-3.6083,-3.562,-3.5464,-3.5464,-3.5716,-3.592,-3.5968,-3.6358,-3.6709,-3.6709,-3.6909,-3.7062,-3.6922,-3.7294,-3.7479,-3.7307,-3.6875,-3.6581,-3.6499,-3.6452,-3.6452,-3.6499,-3.638,-3.6238,-3.6203,-3.6166,-3.5856,-3.5295,-3.5282,-3.4836,-3.392,-3.381,-3.3502,-3.2955,-3.2488,-3.2055,-3.1597,-3.1105,-3.0744,-2.807,-2.9262,-3.053,-3.1814,-3.2879,-3.4123,-3.597,-3.6014,-3.6305,-3.8641,-3.9404,-3.9846,-4.0455,-4.1876,-4.3088,-4.3737,-4.4513,-4.5324,-4.6121,-4.6447,-4.658,-4.6565,-4.6785,-4.6741,0.0,-4.6653,-4.7019,-4.7309,-4.6511,-4.5771,-4.5087,-4.4598,-4.386,-4.2788,-4.315,-4.3135,-4.2758,-4.296,-4.296,-4.2718,-4.2718,-4.2637,-4.2392,-4.1479,-4.0816,-4.0399,-4.014,-4.0039,-4.0039,-4.0039,-4.0039,-3.9996,-3.9996,-3.9892,-3.97,-3.9452,-3.9496,-3.9656,-3.9407,-3.9158,-3.8908,-3.8886,-3.8764,-3.877,-3.9593,-3.9889,-3.9843,-3.9713,-3.947,-3.8855,-3.728,-3.6628,-3.626,-3.5405,-3.5223,-3.5223,-3.5223,-3.5416,-3.5668,-3.5968,-3.6358,-3.6709,-3.6709,-3.6909,-3.6968,-3.6499,-3.6581,-3.6709,-3.6722,-3.6534,-3.6323,-3.6063,-3.6228,-3.6323,-3.6063,-3.5536,-3.5138,-3.4872,-3.4152,-3.3697,-3.3697,-3.3662,-3.3415,-3.2851,-3.2577,-3.2072,-3.1278,-3.0991,-3.0484,-2.9711,-2.99,-2.9911,-2.7889,-2.9338,-3.0866,-3.1561,-3.2566,-3.3498,-3.4167,-3.4979,-3.5809,-3.6628,-3.8343,-3.9761,-4.0163,-4.1547,-4.2916,-4.3789,-4.4163,-4.463,-4.5353,-4.5535,-4.5467,-4.5062,-4.5605,0.0,0.0,0.0,0.0,-4.6858,-4.6164,-4.5455,-4.482,-4.3805,-4.2923,-4.2266,-4.2225,-4.224,-4.224,-4.2322,-4.2322,-4.2325,-4.198,-4.1633,-4.1255,-4.0745,-4.0343,-3.992,-3.9818,-3.9716,-3.9557,-3.9716,-3.9571,-3.9278,-3.9469,-3.9305,-3.8962,-3.8872,-3.8769,-3.8724,-3.8827,-3.8769,-3.8666,-3.8498,-3.8536,-3.8687,-3.8786,-3.8986,-3.922,-3.9343,-3.8767,-3.7979,-3.7258,-3.638,-3.5509,-3.4809,-3.4677,-3.4677,-3.4677,-3.503,-3.5368,-3.5464,-3.5752,-3.5883,-3.574,-3.5475,-3.5017,-3.4141,-3.4993,-3.5775,-3.5953,-3.593,-3.5847,-3.5716,-3.5343,-3.503,-3.4945,-3.3944,-3.33,-3.3212,-3.2962,-3.2661,-3.2308,-3.2246,-3.1852,-3.095,-3.0836,-3.0474,-2.9796,-2.9701,-2.9544,-2.929,-2.9164,-2.9069,-2.7672,-2.9052,-3.0464,-3.1038,-3.191,-3.2737,-3.3152,-3.4081,-3.5034,-3.5622,-3.7171,-3.8637,-3.9485,-4.0451,-4.1603,-4.2876,-4.3131,-4.3436,-4.4387,-4.4598,-4.4573,-4.4402,-4.4958,-4.5135,0.0,0.0,0.0,-4.5918,-4.5259,-4.4572,-4.3774,-4.2766,-4.2049,-4.1632,-4.159,-4.159,-4.1646,-4.1758,-4.1814,-4.1829,-4.1438,-4.1086,-4.0702,-4.0329,-3.9952,-3.9554,-3.9452,-3.9274,-3.9038,-3.9243,-3.9083,-3.8787,-3.8993,-3.8814,-3.8453,-3.8376,-3.8181,-3.7998,-3.8362,-3.8376,-3.8194,-3.7998,-3.8004,-3.8109,-3.795,-3.8079,-3.8244,-3.8341,-3.7779,-3.7057,-3.6498,-3.5657,-3.4849,-3.4256,-3.404,-3.4101,-3.4482,-3.4738,-3.492,-3.4908,-3.5054,-3.5017,-3.4568,-3.4042,-3.3426,-3.2639,-3.325,-3.3956,-3.4385,-3.4544,-3.4617,-3.4617,-3.4201,-3.3944,-3.3845,-3.2851,-3.2218,-3.2117,-3.1761,-3.1414,-3.1064,-3.0795,-3.038,-2.9669,-2.9669,-2.9406,-2.8814,-2.893,-2.8814,-2.8495,-2.8538,-2.8495,-2.7353,-2.8366,-2.9424,-3.0109,-3.0886,-3.1775,-3.2804,-3.3281,-3.3938,-3.549,-3.5942,-3.6615,0.0,0.0,-3.9391,-4.1197,-4.1523,-4.2049,-4.3367,-4.3698,-4.4001,0.0,0.0,0.0,0.0,0.0,0.0,-4.4422,0.0,-4.3098,-4.2137,-4.1497,-4.1085,-4.0944,-4.1099,-4.1141,-4.0958,-4.1198,-4.1354,-4.1297,-4.1057,-4.0802,-4.0602,-4.0126,-3.9689,-3.9261,-3.8966,-3.8742,-3.8557,-3.8557,-3.8557,-3.8557,-3.8557,-3.8408,-3.8109,-3.7939,-3.7723,-3.7505,-3.7985,-3.7848,-3.7459,-3.7459,-3.7286,-3.7109,-3.7119,-3.715,-3.7142,-3.6959,-3.6589,-3.609,-3.5135,-3.4579,-3.4198,-3.3661,-3.3419,-3.358,-3.4531,-3.4531,-3.4323,-3.4348,-3.4288,-3.3993,-3.3201,-3.2627,-3.2162,-3.1869,-3.1432,-3.1381,-3.2207,-3.2561,-3.2762,-3.2762,-3.2951,-3.2951,-3.27,-3.2156,-3.1761,-3.1465,-3.0505,-2.9942,-2.9942,-2.9396,-2.9079,-2.9026,-2.9026,-2.8814,-2.8291,-2.8514,-2.8247,-2.7431,-2.797,-2.8121,-2.6662,-2.7562,-2.8603,-2.8999,-2.9574,-3.0131,-3.0734,-3.14,-3.2139,-3.3112,-3.4291,-3.5442,0.0,0.0,0.0,-4.0843,-4.1847,0.0,-4.377,-4.3925,0.0,-4.4148,0.0,-4.3932,-4.3837,-4.3948,0.0,0.0,-4.2235,-4.242,-4.2952,-4.0944,-3.9837,-3.9954,-3.9881,-3.9924,-4.0243,-4.0445,-4.0402,-4.0055,-3.9851,-3.9587,-3.9353,-3.9069,-3.8904,-3.8769,-3.8472,-3.8336,-3.8304,-3.8109,-3.7939,-3.7782,-3.7998,-3.7802,-3.7387,-3.7539,-3.7307,-3.6909,-3.7049,-3.7002,-3.6909,-3.6909,-3.6906,-3.6841,-3.6663,-3.6789,-3.6984,-3.6918,-3.5958,-3.4918,-3.4688,-3.3818,-3.3005,-3.3053,-3.3181,-3.3431,-3.3866,-3.3732,-3.3511,-3.3499,-3.2839,-3.2134,-3.1545,-3.097,-3.0453,-2.9942,-2.9743,-3.0109,-3.133,-3.1739,-3.1891,-3.1891,-3.1553,-3.1338,-3.1235,-3.0401,-2.9806,-2.9754,-2.9501,-2.9237,-2.9016,-2.891,-2.8591,-2.8228,-2.8228,-2.8121,-2.8014,-2.7809,-2.7755,-2.7745,-2.7476,-2.7314,-2.6965,-2.7702,-2.8512,-2.8489,-2.8927,-2.9476,-2.9871,-3.0496,-3.1113,-3.1778,-3.2617,0.0,-3.4586,-3.622,0.0,0.0,0.0,0.0,-4.2739,-4.2808,-4.2968,0.0,-4.3341,0.0,-4.3293,-4.2965,-4.2575,0.0,-4.1866,-4.1702,-4.1551,-4.0103,-3.9394,-3.9645,-3.9438,-3.9438,-3.9689,-3.9706,-3.956,-3.9295,-3.9189,-3.8922,-3.8594,-3.8485,-3.823,-3.7902,0.0,-3.7505,-3.7282,-3.7247,-3.7137,-3.6946,-3.7237,-3.7155,-3.6781,-3.6828,-3.664,-3.6405,-3.6392,-3.625,-3.6061,-3.631,-3.6273,-3.6051,-3.5771,-3.583,-3.5912,-3.5575,-3.4737,-3.3839,-3.3344,-3.2481,-3.1823,-3.2088,-3.2088,-3.219,-3.2835,-3.2611,-3.2297,-3.2145,-3.1381,-3.0567,-3.0005,-2.9533,-2.9069,-2.8432,-2.8335,-2.8644,-2.9408,-3.0089,-3.0505,-3.0505,-3.0182,-3.0026,-3.0026,-2.9428,-2.9026,-2.891,-2.8814,-2.8654,-2.8378,-2.8218,-2.795,-2.752,-2.7638,-2.7476,-2.7098,-2.7206,-2.7098,-2.6926,-2.7098,-2.7098,-2.7663,-2.8191,-2.8778,-2.843,-2.8776,-2.9327,-2.9627,-2.992,-3.0321,-3.0876,0.0,-3.1408,-3.266,-3.4012,-3.5369,-3.6711,0.0,-3.9484,-4.1208,-4.1278,-4.1584,-4.2917,-4.2608,-4.2366,-4.2656,-4.1756,-4.1516,-4.2249,-4.187,-4.0991,-3.9615,-3.9301,-3.9319,-3.951,-3.9274,-3.9158,-3.9158,-3.8922,-3.8774,-3.8729,-3.8729,-3.8459,-3.8063,-3.8063,-3.767,-3.6953,0.0,0.0,-3.6297,-3.645,-3.6425,-3.6391,-3.6565,-3.6487,-3.6263,-3.6061,-3.5991,-3.5968,-3.593,-3.5548,-3.5223,-3.5716,-3.5524,-3.503,-3.4787,-3.4689,-3.4494,-3.3767,-3.3285,-3.2801,-3.1721,-3.1105,-3.0785,-3.097,-3.0681,-3.0578,-3.1524,-3.1319,-3.0877,-3.063,-2.9963,-2.929,-2.8751,-2.8441,-2.8077,-2.7485,-2.7377,-2.7377,-2.7377,-2.8281,-2.8867,-2.8867,-2.8867,-2.8867,-2.8867,-2.8867,-2.8751,-2.8528,-2.8335,-2.8014,-2.7745,-2.7422,-2.7152,-2.6826,-2.7043,-2.6826,-2.6127,-2.6609,-2.65,-2.5844,-2.6836,-2.7152,-2.7457,-2.8087,-2.8792,-2.8898,-2.8722,-2.861,-2.9049,-2.8669,0.0,0.0,-2.9787,-3.038,-3.1098,-3.283,-3.4618,-3.5973,-3.768,-3.9406,-4.1026,0.0,-4.1342,0.0,0.0,0.0,0.0,0.0,0.0,0.0,0.0,-4.0599,-4.069,-3.9456,-3.8634,-3.8485,-3.844,-3.8395,-3.8395,-3.8336,-3.8122,-3.7723,-3.7723,-3.7585,-3.7294,-3.7294,-3.7077,-3.667,0.0,0.0,-3.736,-3.6418,-3.6486,-3.7147,-3.6637,-3.6181,-3.5752,-3.593,-3.5835,-3.562,-3.5416,-3.5114,-3.4932,-3.5223,-3.4981,-3.4482,-3.431,-3.4064,-3.3717,-3.2885,-3.242,-3.1964,-3.0899,-3.0547,-3.0432,-3.0193,-3.0026,-3.0037,-3.0235,-3.0037,-2.9743,-2.9438,-2.9089,-2.8727,-2.8451,-2.8121,-2.7853,-2.7485,-2.7377,-2.7377,-2.7377,-2.7593,-2.7691,-2.7691,-2.7691,-2.7691,-2.7691,-2.7691,-2.7701,-2.7638,-2.7584,-2.7314,-2.6871,-2.6763,-2.6491,-2.5953,-2.5962,-2.6017,-2.6127,-2.6236,-2.6336,-2.6445,-2.6627,-2.6736,-2.7895,-2.8243,-2.8509,-2.8501,-2.8354,-2.8205,-2.8327,0.0,0.0,0.0,-2.8852,-2.9333,-3.0015,-3.1812,0.0,-3.4326,-3.6086,-3.7855,-3.9464,0.0,0.0,0.0,0.0,0.0,0.0,0.0,0.0,0.0,0.0,-3.9535,-3.9735,-3.8884,-3.8349,-3.82,-3.7696,-3.7547,-3.7848,-3.741,-3.7182,-3.7062,-3.7062,-3.6968,-3.6734,-3.6734,-3.6416,-3.5808,-3.5874,0.0,-3.5859,-3.5565,-3.5574,-3.5765,-3.5604,-3.5404,-3.5175,-3.5066,-3.5066,-3.5126,-3.458,-3.4286,-3.4139,-3.3819,-3.388,-3.3953,-3.3545,-3.3335,-3.3035,-3.2055,-3.1699,-3.1351,-3.0422,-3.0068,-2.9911,-2.9586,-2.9375,-2.9227,-2.9112,-2.8963,-2.8857,-2.8708,-2.8558,-2.8408,-2.813,-2.796,-2.7745,-2.726,-2.7098,-2.6935,-2.6727,-2.6618,-2.6663,-2.7152,-2.7206,-2.7206,-2.7206,-2.7206,-2.7152,-2.6989,-2.6826,-2.6554,-2.6172,-2.6118,-2.5898,-2.545,-2.5624,-2.5523,-2.52,-2.5348,-2.5505,-2.567,-2.6017,-2.6409,-2.836,-2.857,-2.8591,-2.8497,-2.8269,-2.8063,-2.8042,-2.7732,0.0,-2.8038,-2.8232,-2.8558,-2.9343,-3.0805,-3.2134,0.0,-3.4284,-3.5901,-3.7619,0.0,0.0,0.0,0.0,0.0,0.0,0.0,0.0,0.0,0.0,0.0,-3.8448,-3.8153,-3.7938,-3.7892,-3.6936,-3.6651,-3.7173,-3.6469,-3.6292,-3.6615,-3.6548,-3.6467,-3.6405,-3.6232,-3.5747,-3.5034,-3.5052,0.0,0.0,-3.4715,-3.4676,-3.4484,-3.4546,-3.4421,-3.4225,-3.3854,-3.3953,-3.4176,-3.3484,-3.3235,-3.3085,-3.2359,-3.2684,-3.3208,-3.2661,-3.2348,-3.2083,-3.1176,-3.0867,-3.066,-2.99,-2.9596,-2.9396,-2.9026,-2.8611,-2.8291,-2.813,-2.8077,-2.8023,-2.8077,-2.813,-2.8023,-2.7745,-2.7691,-2.753,-2.7098,-2.6826,-2.6545,-2.6227,-2.5962,-2.6008,-2.6554,-2.6663,-2.6718,-2.6718,-2.6718,-2.6609,-2.6327,-2.6063,-2.5743,-2.5412,-2.5412,-2.5238,-2.4953,-2.5183,-2.497,-2.432,-2.4582,-2.4731,-2.474,-2.5491,-2.6304,-2.8574,-2.921,-2.9704,-2.9943,-2.9139,-2.8393,-2.8817,0.0,-2.6792,-2.7497,-2.7988,-2.8451,-2.9026,-2.9911,-3.0986,-3.2238,-3.3019,-3.4132,-3.6223,0.0,0.0,0.0,0.0,0.0,0.0,0.0,0.0,0.0,0.0,0.0,-3.7952,-3.7409,-3.7045,-3.6819,-3.6038,-3.5776,-3.6052,-3.5744,-3.5863,-3.6392,-3.6122,-3.6134,-3.6392,-3.5644,-3.5094,-3.47,0.0,0.0,0.0,-3.4351,-3.4389,-3.4932,-3.4056,-3.325,-3.2622,-3.2572,-3.2572,-3.2572,-3.2269,-3.2004,-3.1739,-3.1432,-3.1699,-3.2066,-3.1494,-3.0959,-3.0484,-3.0203,-2.989,-2.9533,-2.8983,-2.8983,-2.9026,-2.8504,-2.7745,-2.7206,-2.7431,-2.7314,-2.7206,-2.7431,-2.7485,-2.7377,-2.7152,-2.7098,-2.7043,-2.6989,-2.6989,-2.6881,-2.66,-2.6282,-2.5898,-2.545,-2.5624,-2.5798,-2.5798,-2.5798,-2.5679,-2.5331,-2.5276,-2.5072,-2.4543,-2.4543,-2.4368,-2.4024,-2.4024,-2.4033,-2.3977,-2.4256,-2.4432,-2.4496,-2.5651,-2.6444,-2.8696,-2.9664,-3.023,-3.002,-2.9358,-2.8661,-2.8284,0.0,-2.7085,-2.7405,-2.7791,-2.8281,-2.8973,-2.9396,-3.0047,-3.1243,-3.1871,-3.2753,-3.4219,0.0,0.0,0.0,0.0,0.0,0.0,0.0,0.0,0.0,0.0,0.0,-3.5378,-3.5971,-3.6154,-3.5756,-3.4959,-3.4755,-3.5163,-3.4755,-3.4837,-3.5378,-3.5294,-3.5201,-3.5207,-3.4841,-3.4305,-3.3572,0.0,0.0,0.0,-3.3701,-3.3779,-3.4105,-3.3239,-3.2561,-3.2117,-3.1975,-3.2015,-3.2117,-3.1669,-3.1065,-3.0493,-3.0265,-2.985,-2.9529,-3.0005,-2.9984,-2.9723,-2.9122,-2.9122,-2.9185,-2.8781,-2.8674,-2.8548,-2.8344,-2.7755,-2.726,-2.7377,-2.7215,-2.7043,-2.7152,-2.7043,-2.6935,-2.6989,-2.6989,-2.6989,-2.6989,-2.6881,-2.66,-2.6118,-2.578,-2.5404,-2.5026,-2.5412,-2.5569,-2.5174,-2.5284,-2.5284,-2.5,-2.462,-2.4415,-2.4376,-2.4209,-2.4033,-2.3921,-2.3921,-2.3809,-2.3641,-2.3809,-2.4149,-2.4695,-2.5227,-2.6057,-2.8451,-2.9392,-2.9905,-2.9606,-2.9193,-2.8677,0.0,0.0,-2.7341,-2.7494,-2.7745,-2.8121,-2.8867,-2.9026,-2.9453,-3.0522,-3.1086,-3.1806,-3.3025,-3.3684,0.0,0.0,0.0,0.0,0.0,0.0,0.0,0.0,0.0,0.0,0.0,-3.4511,-3.4948,-3.4691,-3.3947,-3.3865,-3.4499,-3.395,-3.3993,-3.4599,-3.4558,-3.4459,-3.4284,-3.3988,-3.3475,-3.2906,0.0,0.0,0.0,-3.2924,-3.2883,-3.3151,-3.2246,-3.1659,-3.1249,-3.1105,-3.1054,-3.1094,-3.0703,-3.0067,-2.9425,-2.9221,-2.8437,-2.7775,-2.8536,-2.8784,-2.8688,-2.8388,-2.8495,-2.8708,-2.8504,-2.8237,-2.8023,-2.8023,-2.7593,-2.7152,-2.7043,-2.6826,-2.6609,-2.6491,-2.6382,-2.6327,-2.6327,-2.6436,-2.6491,-2.6491,-2.6382,-2.6118,-2.5624,-2.534,-2.5008,-2.459,-2.497,-2.5136,-2.474,-2.4676,-2.4565,-2.4287,-2.3792,-2.3641,-2.3977,-2.3753,-2.3632,-2.3632,-2.3632,-2.352,-2.336,-2.336,-2.382,-2.4783,-2.5015,-2.5876,-2.7619,-2.8238,-2.8587,-2.8917,-2.8628,-2.8238,0.0,-2.7774,-2.7324,-2.782,-2.7906,-2.8067,-2.8621,-2.893,-2.939,-3.0258,-3.0626,-3.1351,-3.2976,0.0,0.0,0.0,0.0,0.0,0.0,0.0,0.0,0.0,0.0,0.0,0.0,-3.309,-3.3372,-3.3612,-3.3053,-3.3125,-3.3998,-3.3469,-3.3603,-3.4408,-3.413,-3.3998,-3.3982,-3.2968,-3.2795,0.0,0.0,0.0,0.0,-3.1933,-3.1743,-3.2308,-3.1238,-3.0328,-2.9606,-2.9606,-2.9396,-2.9132,-2.9132,-2.893,-2.8674,-2.8398,-2.7906,-2.7368,-2.7098,-2.7043,-2.7206,-2.8077,-2.8121,-2.7906,-2.7906,-2.7638,-2.7431,-2.7431,-2.6989,-2.65,-2.6181,-2.5907,-2.5624,-2.5276,-2.5505,-2.5514,-2.4953,-2.5055,-2.5221,-2.5221,-2.5514,-2.5569,-2.5221,-2.5221,-2.4898,-2.3968,-2.42,-2.4432,-2.4376,-2.3873,-2.336,-2.3014,-2.274,-2.274,-2.3014,-2.3014,-2.3014,-2.3014,-2.3014,-2.3014,-2.3014,-2.3014,-2.3529,-2.4515,-2.5177,-2.6042,-2.7031,-2.7945,-2.8624,-2.8558,-2.8518,-2.8378,-2.8016,-2.7648,-2.7366,-2.7429,-2.7346,-2.7406,-2.7855,-2.8062,-2.8535,-2.9688,-3.0061,-3.0446,0.0,0.0,0.0,0.0,0.0,0.0,0.0,0.0,0.0,0.0,0.0,0.0,0.0,-3.1905,-3.2148,-3.2249,-3.2759,-3.2744,-3.2166,-3.2686,-3.2816,-3.2554,-3.2325,-3.2035,-3.1646,-3.1205,0.0,0.0,0.0,0.0,0.0,-3.0785,-3.0663,-3.1473,-2.9877,-2.8901,-2.8492,-2.8734,-2.8498,-2.803,-2.8319,-2.7803,-2.7093,-2.751,-2.7125,-2.6465,-2.6689,-2.6871,-2.7043,-2.7314,-2.7196,-2.7034,-2.7034,-2.6772,-2.6455,-2.6282,-2.6118,-2.5844,-2.534,-2.5284,-2.5284,-2.5,-2.4851,-2.4804,-2.4787,-2.474,-2.4693,-2.4898,-2.5008,-2.4962,-2.4693,-2.4637,-2.447,-2.3968,-2.3809,-2.3697,-2.3464,-2.3641,-2.3528,-2.3014,-2.274,-2.2626,-2.274,-2.274,-2.274,-2.274,-2.2909,-2.3014,-2.3014,-2.3014,-2.3544,-2.4596,-2.5267,-2.5684,-2.665,-2.744,-2.8035,-2.7988,-2.7982,-2.7935,-2.7642,-2.7338,-2.7172,-2.7386,-2.7332,-2.7386,-2.7766,-2.8031,-2.837,-2.8963,-2.9389,-2.9849,0.0,0.0,0.0,0.0,0.0,0.0,0.0,0.0,0.0,0.0,0.0,0.0,0.0,0.0,-3.0802,-3.0531,-3.1681,-3.1912,-3.1038,-3.1594,-3.1639,-3.1186,-3.1044,-3.0698,-3.0182,-2.9938,0.0,0.0,0.0,0.0,0.0,-2.92,-2.9112,-3.0024,-2.8544,-2.7739,-2.7459,-2.7675,-2.739,-2.6907,-2.7334,-2.6774,-2.6042,-2.6721,-2.6443,-2.591,-2.6036,-2.6336,-2.6663,-2.6554,-2.6273,-2.6045,-2.6045,-2.5835,-2.5514,-2.5247,-2.5191,-2.5081,-2.4573,-2.4509,-2.4454,-2.4175,-2.3968,-2.3857,-2.3784,-2.3745,-2.3753,-2.3784,-2.3896,-2.3904,-2.3753,-2.3697,-2.3585,-2.3239,-2.3078,-2.2853,-2.257,-2.307,-2.3127,-2.2505,-2.2343,-2.223,-2.2214,-2.2335,-2.24,-2.24,-2.2562,-2.2732,-2.2853,-2.3084,-2.3556,-2.4172,-2.454,-2.465,0.0,-2.6807,-2.7063,-2.7348,-2.7225,-2.7102,-2.7307,-2.6992,0.0,-2.7572,-2.7623,-2.7673,-2.8016,-2.8416,-2.8588,-2.8223,-2.8712,0.0,0.0,0.0,0.0,0.0,0.0,0.0,0.0,0.0,0.0,0.0,0.0,0.0,0.0,0.0,-2.9434,-2.8673,-2.9955,-3.059,-3.0405,-3.0274,-3.0202,-3.0169,-3.0111,-2.9829,-2.9393,-2.9024,0.0,0.0,0.0,0.0,0.0,-2.7374,-2.7292,-2.8125,-2.7248,-2.673,-2.6455,-2.6484,-2.6134,-2.5717,-2.6144,-2.5878,-2.5469,-2.5882,-2.5852,-2.5569,-2.5284,-2.556,-2.5962,-2.5688,-2.5348,-2.511,-2.511,-2.4944,-2.4676,-2.4368,-2.432,-2.4209,-2.3857,-2.3585,-2.336,-2.3014,-2.2958,-2.2732,-2.223,-2.2343,-2.2456,-2.2108,-2.2343,-2.2513,-2.2513,-2.2513,-2.24,-2.2051,-2.2059,-2.1945,-2.1668,-2.2173,-2.2286,-2.1596,-2.1603,-2.1539,-2.1388,-2.1695,-2.1881,-2.1881,-2.1938,-2.2124,-2.2431,-2.3085,-2.3422,-2.3428,-2.321,-2.3113,-2.6541,0.0,-2.6798,-2.7298,-2.7462,-2.7474,0.0,-2.7012,-2.6873,-2.6752,-2.6596,-2.6606,-2.6935,-2.7013,-2.7198,-2.769,-2.7955,-2.8134,0.0,0.0,0.0,0.0,0.0,0.0,0.0,0.0,0.0,0.0,0.0,0.0,0.0,0.0,-2.9161,-2.8199,-2.8517,-2.8663,-2.8618,-2.9095,-2.9296,-2.9086,-2.8288,-2.8094,-2.8315,-2.7078,0.0,0.0,0.0,0.0,-2.7872,-2.6854,-2.6735,-2.7013,-2.5831,-2.5198,-2.5005,-2.5172,-2.4835,-2.4376,-2.4832,-2.4739,-2.4616,-2.5208,-2.5072,-2.4757,-2.4842,-2.5008,-2.5064,-2.4757,-2.447,-2.4192,-2.4192,-2.4136,-2.3968,-2.3464,-2.3528,-2.3472,-2.2683,-2.2683,-2.2683,-2.24,-2.2286,-2.2286,-2.2116,-2.2173,-2.2116,-2.1767,-2.1767,-2.1767,-2.1581,-2.1524,-2.1524,-2.141,-2.1588,-2.1539,-2.0952,-2.171,-2.1824,-2.0952,-2.073,-2.0328,-1.9564,-1.9608,-1.9723,-1.9961,-2.0192,-2.0599,-2.1074,-2.127,-2.1712,-2.2445,-2.2403,-2.249,-2.7232,-2.7098,-2.6849,-2.7155,-2.7143,-2.7012,-2.6625,-2.6371,-2.6266,-2.6317,-2.63,-2.6386,-2.6783,-2.7011,-2.7106,-2.6921,-2.73,0.0,0.0,0.0,0.0,0.0,0.0,0.0,0.0,0.0,0.0,0.0,0.0,0.0,0.0,0.0,-2.7931,-2.715,-2.6994,-2.7066,-2.7299,-2.7602,-2.7698,-2.7704,-2.6897,-2.6706,-2.7088,-2.6129,0.0,0.0,0.0,0.0,-2.5707,-2.5248,-2.5104,-2.5185,-2.4455,-2.4085,-2.399,-2.4137,-2.3932,-2.3608,-2.399,-2.4116,-2.409,-2.4339,-2.4192,-2.3977,-2.396,-2.3904,-2.3848,-2.4089,-2.3921,-2.3697,-2.3528,-2.3416,-2.3191,-2.2675,-2.274,-2.2683,-2.1995,-2.1945,-2.1888,-2.1531,-2.1246,-2.1017,-2.1017,-2.0895,-2.0773,-2.0551,-2.0673,-2.073,-2.0551,-2.0666,-2.0666,-2.0364,-2.0608,-2.0557,-2.0103,-2.0648,-2.0707,-1.9924,-1.9737,-1.9508,-1.9122,-1.8991,-1.9036,-1.9267,-1.9622,-2.0004,-2.0423,-2.0312,-2.0621,-2.1403,-2.1156,-2.1133,-2.7862,-2.7554,-2.7094,-2.7129,-2.6896,-2.6502,-2.6156,-2.5796,-2.5691,-2.6092,-2.6389,-2.6642,0.0,-2.7327,0.0,0.0,0.0,0.0,0.0,0.0,0.0,0.0,0.0,0.0,0.0,0.0,0.0,0.0,0.0,0.0,0.0,0.0,0.0,-2.6004,-2.5752,-2.58,-2.6207,-2.6004,-2.6052,-2.6342,-2.5849,-2.5703,-2.5945,-2.5548,-2.506,0.0,0.0,0.0,-2.3379,-2.3488,-2.3447,-2.3397,-2.3297,-2.3282,-2.3329,-2.3357,-2.3186,-2.3121,-2.342,-2.3593,-2.3641,-2.3416,-2.3304,-2.3247,-2.3014,-2.2732,-2.2683,-2.3352,-2.3416,-2.3247,-2.2958,-2.2683,-2.2343,-2.2059,-2.1938,-2.1824,-2.1482,-2.1139,-2.0852,-2.0551,-1.9975,-1.9577,-1.9577,-1.9332,-1.9152,-1.9087,-1.9339,-1.9519,-1.9461,-1.9693,-1.9628,-1.9094,-1.9379,-1.9395,-1.9041,-1.9231,-1.9147,-1.8614,-1.8758,-1.89,-1.8928,-1.8717,-1.87,-1.8927,-1.9212,-1.9502,-1.9794,-1.9561,-1.9715,-2.0299,-1.975,-1.9632,-2.6817,-2.7112,-2.7424,-2.7845,-2.7708,-2.7285,-2.6502,-2.6561,-2.647,-2.5613,-2.6248,0.0,0.0,-2.6299,-2.636,0.0,0.0,0.0,0.0,0.0,0.0,0.0,0.0,0.0,0.0,0.0,0.0,0.0,0.0,0.0,0.0,0.0,0.0,-2.543,-2.5382,-2.5177,-2.4824,-2.4981,-2.5314,-2.5839,-2.5265,-2.5167,-2.5392,-2.4412,-2.3461,0.0,0.0,-2.3129,-2.2131,-2.3429,-2.3746,-2.3347,-2.2837,-2.2834,-2.3083,-2.2634,-2.2674,-2.2925,-2.2791,-2.2805,-2.2796,-2.274,-2.257,-2.2343,-2.257,-2.2456,-2.2173,-2.1995,-2.2108,-2.2279,-2.2222,-2.1995,-2.1653,-2.1375,-2.1131,-2.0838,-2.0558,-2.0033,-1.9557,-1.9499,-1.9029,-1.8622,-1.8622,-1.8564,-1.8448,-1.8163,-1.8163,-1.811,-1.7889,-1.7889,-1.7889,-1.7772,-1.8199,-1.8295,-1.7757,-1.79,-1.7763,-1.7171,-1.8143,-1.83,-1.733,-1.7229,-1.7206,-1.7266,-1.7239,-1.7476,-1.7986,-1.7992,-1.8339,-1.8896,-1.8832,-1.8792,-2.6164,-2.65,-2.6788,-2.705,-2.7175,-2.6979,-2.6049,-2.592,-2.5727,-2.4958,0.0,0.0,0.0,0.0,-2.5904,0.0,0.0,0.0,0.0,0.0,0.0,0.0,0.0,0.0,0.0,0.0,0.0,0.0,0.0,0.0,0.0,0.0,0.0,0.0,-2.4784,-2.4538,-2.3895,-2.4192,-2.448,-2.4815,-2.4489,-2.4332,-2.4412,-2.3836,-2.2929,-2.1962,0.0,-2.2526,-2.1377,-2.2526,-2.2837,-2.2434,-2.2182,-2.2315,-2.2649,-2.245,-2.2377,-2.2456,-2.2346,-2.2343,-2.2343,-2.2343,-2.1881,-2.136,-2.1531,-2.1124,-2.0544,-2.0429,-2.1067,-2.1767,-2.1417,-2.1246,-2.0952,-2.0321,-2.0083,-1.9788,-1.9158,-1.8629,-1.8331,-1.8344,-1.7818,-1.7408,-1.7636,-1.7461,-1.7338,-1.7131,-1.7208,-1.7255,-1.7101,-1.7359,-1.742,-1.6871,-1.7338,-1.741,-1.6746,-1.6924,-1.6935,-1.6566,-1.7547,-1.7754,-1.6881,-1.7301,-1.7436,-1.7125,-1.7117,-1.7236,-1.7605,-1.7605,-1.7863,-1.8302,-1.8302,-1.8302,-2.5544,-2.5726,-2.5774,-2.6088,-2.6396,-2.6492,-2.5663,-2.5414,-2.5205,-2.4581,0.0,0.0,0.0,-2.5152,0.0,0.0,0.0,0.0,0.0,0.0,0.0,0.0,0.0,0.0,0.0,0.0,0.0,0.0,0.0,0.0,0.0,0.0,0.0,0.0,-2.4183,-2.3886,-2.3197,-2.3447,-2.3696,-2.3935,-2.3696,-2.3538,-2.3429,-2.3188,-2.2434,-2.1361,-2.2123,-2.1768,-2.0763,-2.1522,-2.1776,-2.1674,-2.1573,-2.1645,-2.1912,-2.2002,-2.1928,-2.1767,-2.1596,-2.1539,-2.1539,-2.1474,-2.0952,-2.0371,-2.0314,-1.9795,-1.9152,-1.9036,-1.9846,-2.0666,-2.0378,-2.0141,-1.9846,-1.9152,-1.8855,-1.8571,-1.7812,-1.7337,-1.705,-1.7062,-1.6537,-1.614,-1.6487,-1.632,-1.6177,-1.6116,-1.6282,-1.6387,-1.6387,-1.6797,-1.6781,-1.6094,-1.6469,-1.6604,-1.6138,-1.6286,-1.6408,-1.6239,-1.697,-1.7268,-1.6767,-1.7434,-1.7571,-1.7015,-1.7071,-1.7131,-1.7246,-1.7246,-1.734,-1.7518,-1.7518,-1.7518,-2.4778,-2.4657,-2.4639,-2.55,-2.6063,-2.621,-2.5758,-2.5895,-2.5867,-2.4891,0.0,0.0,0.0,-2.4833,0.0,0.0,0.0,0.0,0.0,0.0,0.0,0.0,0.0,0.0,0.0,0.0,0.0,0.0,0.0,0.0,0.0,0.0,0.0,0.0,0.0,-2.3188,-2.2577,-2.2828,-2.3138,-2.3447,-2.3138,-2.2828,-2.2577,-2.2325,-2.1463,-2.0241,-2.0806,-2.0704,-2.0181,-2.0763,-2.1275,-2.1674,-2.1173,-2.0858,-2.0704,-2.079,-2.0809,-2.0723,-2.0155,-1.9989,-1.9924,-1.9622,-1.9441,-1.9325,-1.9107,-1.8991,-1.8816,-1.8169,-1.8104,-1.8286,-1.8874,-1.8577,-1.8104,-1.8046,-1.7578,-1.7173,-1.705,-1.6343,-1.5752,-1.5752,-1.5175,-1.4835,-1.51,-1.5135,-1.5151,-1.5365,-1.5227,-1.5176,-1.5396,-1.5248,-1.5263,-1.5339,-1.5552,-1.577,-1.5993,-1.6014,-1.6073,-1.5988,-1.645,-1.6646,-1.663,-1.6709,-1.6583,-1.6176,-1.6401,-1.6392,-1.6143,-1.6143,-1.6148,-1.6164,-1.6164,-1.6164,-2.3615,-2.3582,-2.3684,-2.442,-2.455,-2.4619,-2.497,-2.5108,-2.4914,-2.4115,-2.421,0.0,0.0,0.0,0.0,0.0,0.0,0.0,0.0,0.0,0.0,0.0,0.0,0.0,0.0,0.0,0.0,0.0,0.0,0.0,0.0,0.0,0.0,0.0,0.0,-2.3147,-2.2594,-2.2627,-2.2526,-2.2333,-2.2375,-2.2274,-2.1979,-2.1928,-2.1105,-1.9879,-2.0447,-2.0027,-1.9101,-1.968,-1.9998,-2.0183,-2.0227,-2.012,-2.0066,-2.0109,-2.0033,-1.9788,-1.9564,-1.9397,-1.9229,-1.9107,-1.8642,-1.8175,-1.8064,-1.7713,-1.7297,-1.6879,-1.6644,-1.6708,-1.7772,-1.783,-1.7473,-1.6938,-1.6585,-1.629,-1.565,-1.5116,-1.4759,-1.4937,-1.4756,-1.4574,-1.4592,-1.4961,-1.5127,-1.4906,-1.4804,-1.477,-1.4726,-1.488,-1.4801,-1.4483,-1.4503,-1.4581,-1.4721,-1.466,-1.466,-1.466,-1.5629,-1.61,-1.5902,-1.5902,-1.5837,-1.5708,-1.5604,-1.5583,-1.5704,-1.5453,-1.5323,-1.5323,-1.5323,-1.5323,-2.2726,-2.2743,-2.2704,-2.3301,-2.3231,-2.311,-2.3833,-2.4058,-2.3905,-2.3522,-2.3453,-2.341,-2.3124,0.0,0.0,0.0,0.0,0.0,0.0,0.0,0.0,0.0,0.0,0.0,0.0,0.0,0.0,0.0,0.0,0.0,0.0,0.0,0.0,0.0,0.0,-2.2585,-2.1928,-2.1861,-2.1564,-2.096,-2.1105,-2.1165,-2.1062,-2.096,-2.0344,-1.9309,-1.9613,-1.9198,-1.8422,-1.8639,-1.886,-1.9069,-1.9358,-1.9333,-1.9158,-1.9181,-1.8933,-1.8571,-1.8577,-1.8402,-1.8117,-1.8058,-1.759,-1.7009,-1.6832,-1.6419,-1.6,-1.5709,-1.5418,-1.5359,-1.6242,-1.6537,-1.6419,-1.5769,-1.5467,-1.517,-1.4466,-1.4046,-1.3853,-1.4034,-1.4136,-1.4109,-1.4113,-1.4495,-1.4663,-1.4419,-1.4336,-1.424,-1.4245,-1.4418,-1.434,-1.3936,-1.3875,-1.3875,-1.3875,-1.3875,-1.3875,-1.3875,-1.4791,-1.5253,-1.4987,-1.5117,-1.5117,-1.4987,-1.4796,-1.4796,-1.4856,-1.4534,-1.4338,-1.4272,-1.4272,-1.4272,-2.2319,-2.2111,-2.1728,-2.2339,-2.222,-2.2045,-2.2402,-2.2782,-2.3134,-2.3193,-2.2938,-2.2482,-2.1799,0.0,0.0,0.0,0.0,0.0,0.0,0.0,0.0,0.0,0.0,0.0,0.0,0.0,0.0,0.0,0.0,0.0,0.0,0.0,0.0,0.0,0.0,0.0,-2.0483,-2.0483,-2.0078,-1.9279,-1.9272,-1.9428,-1.968,-1.9428,-1.8959,-1.837,-1.8122,-1.8174,-1.8318,-1.7793,-1.7922,-1.8415,-1.8684,-1.84,-1.7925,-1.7983,-1.7543,-1.6997,-1.7015,-1.6785,-1.6414,-1.6177,-1.6118,-1.5941,-1.5289,-1.511,-1.4997,-1.465,-1.4416,-1.4172,-1.4172,-1.4351,-1.459,-1.4595,-1.4112,-1.3688,-1.3688,-1.3308,-1.3018,-1.3018,-1.3172,-1.3365,-1.3563,-1.3602,-1.3664,-1.3849,-1.3717,-1.3668,-1.3853,-1.3717,-1.3673,-1.3857,-1.3875,-1.3875,-1.3875,-1.3875,-1.3875,-1.3875,-1.3875,-1.3875,-1.3875,-1.4207,-1.4207,-1.3875,-1.4207,-1.4076,-1.3416,-1.3416,-1.3149,-1.2816,-1.2816,-1.2816,-2.0354,-2.0314,-2.0409,-2.0848,-2.0959,0.0,0.0,-2.1751,0.0,0.0,-2.1982,-2.1631,-2.1302,0.0,0.0,0.0,0.0,0.0,0.0,0.0,0.0,0.0,0.0,0.0,0.0,0.0,0.0,0.0,0.0,0.0,0.0,0.0,0.0,0.0,0.0,0.0,-2.0233,-2.0027,-1.9613,-1.8938,-1.8736,-1.8952,-1.9428,-1.9324,-1.8855,-1.8115,-1.8016,-1.7694,-1.7173,-1.7006,-1.7031,-1.7203,-1.722,-1.7247,-1.7247,-1.6803,-1.6537,-1.6354,-1.6129,-1.5774,-1.5526,-1.5407,-1.5235,-1.4942,-1.4585,-1.4466,-1.4346,-1.3808,-1.3569,-1.3384,-1.2904,-1.284,-1.302,-1.3504,-1.3504,-1.3264,-1.3024,-1.2999,-1.3018,-1.3018,-1.3282,-1.3464,-1.3199,-1.3509,-1.3683,-1.3218,-1.3054,-1.2972,-1.2824,-1.2525,-1.2447,-1.2762,-1.2568,-1.2437,-1.2437,-1.2437,-1.2437,-1.2437,-1.2437,-1.2766,-1.3498,-1.3625,-1.3494,-1.3161,-1.2964,-1.2832,-1.2634,-1.2371,-1.2239,-1.2103,-1.2103,-1.2103,-1.9235,-1.9255,-1.932,-1.9389,-1.9599,-1.9773,-1.9703,0.0,0.0,0.0,0.0,-2.0784,0.0,0.0,0.0,0.0,0.0,0.0,0.0,0.0,0.0,0.0,0.0,0.0,0.0,0.0,0.0,0.0,0.0,0.0,0.0,0.0,0.0,0.0,0.0,0.0,-1.9257,-1.9108,-1.8684,-1.7937,-1.7786,-1.7845,-1.8115,-1.8384,-1.8069,-1.7331,-1.7219,-1.6743,-1.601,-1.6006,-1.6044,-1.6054,-1.6075,-1.6072,-1.6102,-1.5967,-1.5709,-1.5472,-1.5418,-1.5121,-1.4699,-1.458,-1.4346,-1.3988,-1.3688,-1.3629,-1.3504,-1.296,-1.2719,-1.2556,-1.2028,-1.1809,-1.1816,-1.2479,-1.26,-1.2474,-1.2291,-1.2308,-1.2428,-1.2428,-1.2667,-1.2804,-1.254,-1.282,-1.2894,-1.2441,-1.2375,-1.2309,-1.2111,-1.1912,-1.1912,-1.2111,-1.1912,-1.178,-1.178,-1.178,-1.178,-1.178,-1.178,-1.2111,-1.2774,-1.2774,-1.2642,-1.2441,-1.2177,-1.2045,-1.1846,-1.1648,-1.1516,-1.1383,-1.1383,-1.1383,-1.8585,-1.8578,-1.8346,-1.8097,-1.8272,0.0,-1.851,-1.9456,-2.0308,-2.0089,0.0,0.0,0.0,0.0,0.0,0.0,0.0,0.0,0.0,0.0,0.0,0.0,0.0,0.0,0.0,0.0,0.0,0.0,0.0,0.0,0.0,0.0,0.0,0.0,0.0,0.0,-1.7911,-1.7859,-1.743,0.0,-1.6624,-1.6471,-1.6217,-1.6802,-1.6802,-1.6217,-1.5891,-1.5464,-1.4951,-1.4921,-1.4906,-1.49,-1.5104,-1.5009,-1.4749,-1.5253,-1.4976,-1.45,-1.4787,-1.4495,-1.4028,-1.3684,-1.3384,-1.3084,-1.2719,-1.2599,-1.2543,-1.2195,-1.1889,-1.1679,-1.1506,-1.1049,-1.0853,-1.1474,-1.1539,-1.1472,-1.1472,-1.1486,-1.1527,-1.1527,-1.1661,-1.178,-1.178,-1.178,-1.178,-1.178,-1.1714,-1.1714,-1.1648,-1.1648,-1.1648,-1.1648,-1.1663,-1.1663,-1.1648,-1.1663,-1.1663,-1.1648,-1.1648,-1.1648,-1.1582,-1.1729,-1.1803,-1.1736,-1.1751,-1.1489,-1.1091,-1.1077,-1.0937,-1.0608,-1.0595,-1.0588,-1.6895,-1.7303,-1.7728,-1.7477,-1.797,-1.8617,-1.9061,-1.8842,-1.8669,-1.905,0.0,0.0,0.0,0.0,0.0,0.0,0.0,0.0,0.0,0.0,0.0,0.0,0.0,0.0,0.0,0.0,0.0,0.0,0.0,0.0,0.0,0.0,0.0,0.0,0.0,-1.7437,-1.6995,-1.6743,-1.6483,0.0,-1.6045,-1.5779,-1.5309,-1.6111,-1.6211,-1.5618,-1.5083,-1.4708,-1.4353,-1.4318,-1.4198,-1.4018,-1.4364,-1.4364,-1.4078,-1.3947,-1.3609,-1.3257,-1.309,-1.2976,-1.2885,-1.2915,-1.2844,-1.2719,-1.2178,-1.1997,-1.1905,-1.1379,-1.1134,-1.0982,-1.0974,-1.0521,-1.0035,-1.0033,-1.0583,-1.1101,-1.1101,-1.1296,-1.1527,-1.1527,-1.1661,-1.178,-1.178,-1.178,-1.1714,-1.138,-1.1115,-1.0853,-1.0588,-1.0787,-1.0721,-1.0193,-1.0494,-1.0652,-1.0532,-1.0632,-1.0648,-1.0532,-1.0522,-1.0455,-1.0193,-1.1305,-1.1709,-1.1103,-1.1213,-1.093,-1.0244,-1.0131,-1.0078,-1.0007,-0.9907,-0.9927,-1.5571,-1.5922,-1.639,-1.6516,0.0,-1.7319,-1.7495,-1.7373,-1.7175,0.0,0.0,0.0,0.0,0.0,0.0,0.0,0.0,0.0,0.0,0.0,0.0,0.0,0.0,0.0,0.0,0.0,0.0,0.0,0.0,0.0,0.0,0.0,0.0,0.0,-1.6855,-1.6643,-1.6311,-1.6045,-1.5785,-1.5464,-1.5357,-1.4982,-1.4396,-1.5303,-1.5351,-1.4863,-1.4546,-1.4169,-1.3748,-1.36,-1.3372,-1.3086,-1.3403,-1.3279,-1.2944,-1.2876,-1.2686,-1.2447,-1.2247,-1.2039,-1.1937,-1.2028,-1.1937,-1.1752,-1.1394,-1.1392,-1.134,-1.0797,-1.067,-1.058,-1.0315,-0.9875,-0.9574,-0.9478,-0.9966,-1.0402,-1.0214,-1.071,-1.0992,-1.0733,-1.0861,-1.0986,-1.0787,-1.092,-1.0986,-1.0721,-1.0588,-1.0323,-0.9994,-1.0127,-1.0082,-0.9814,-0.9952,-1.01,-1.0024,-1.0087,-1.0072,-0.9937,-0.9994,-0.9861,-0.9728,-1.0527,-1.0776,-1.0306,-1.0373,-1.0273,-0.9866,-0.9789,-0.9752,-0.9759,-0.9756,-0.9719,-1.4385,-1.4587,-1.5009,-1.5678,-1.5836,0.0,-1.5559,-1.5893,-1.6097,0.0,0.0,0.0,0.0,0.0,0.0,0.0,0.0,0.0,0.0,0.0,0.0,0.0,0.0,0.0,0.0,0.0,0.0,0.0,0.0,0.0,0.0,0.0,-1.6264,-1.6577,-1.6318,-1.6051,-1.5731,-1.5458,-1.5137,-1.4874,-1.4552,-1.4121,-1.3645,-1.4396,-1.4444,-1.4062,-1.4008,-1.3689,-1.3098,-1.2881,-1.255,-1.2265,-1.2447,-1.2222,-1.1807,-1.201,-1.192,-1.1757,-1.1603,-1.1411,-1.1174,-1.1201,-1.1031,-1.0789,-1.0728,-1.0764,-1.079,-1.0375,-1.032,-1.0308,-0.9801,-0.9457,-0.9289,-0.9227,-0.9413,-0.9605,-0.9349,-0.9938,-1.0389,-0.9794,-0.9946,-1.0025,-0.9761,-0.9962,-1.0159,-1.0159,-1.0139,-0.9994,-0.9658,-0.9661,-0.971,-0.9635,-0.9668,-0.9751,-0.9751,-0.9683,-0.9629,-0.957,-0.9473,-0.9395,-0.9328,-0.9426,-0.9431,-0.9328,-0.9506,-0.953,-0.946,-0.9473,-0.939,-0.9361,-0.9373,-0.9358,-1.3256,-1.371,-1.4537,0.0,-1.5886,-1.5821,0.0,0.0,-1.5773,0.0,0.0,0.0,0.0,0.0,0.0,0.0,0.0,0.0,0.0,0.0,0.0,0.0,0.0,0.0,0.0,0.0,0.0,0.0,0.0,0.0,0.0,-1.5725,-1.5725,-1.5992,-1.5725,-1.5458,-1.5143,-1.46,-1.4331,-1.4277,-1.3743,-1.3423,-1.3369,-1.3478,-1.3478,-1.3423,-1.3147,-1.2876,-1.2495,-1.2223,-1.1951,-1.1717,-1.2047,-1.1782,-1.1331,-1.1506,-1.1221,-1.0676,-1.0695,-1.0643,-1.0666,-1.0804,-1.0849,-1.0728,-1.0425,-1.0379,-1.0361,-1.0108,-1.0032,-1.0048,-0.9983,-0.9621,-0.9236,-0.9004,-0.8977,-0.9104,-0.9364,-0.9617,-0.9794,-0.9731,-0.975,-0.9826,-0.9826,-0.9826,-0.9826,-0.9826,-0.9798,-0.9591,-0.9253,-0.9458,-0.9512,-0.8959,-0.9277,-0.9547,-0.9547,-0.9204,-0.9013,-0.8891,-0.8515,-0.8125,-0.7794,-0.7806,-0.7806,-0.7794,-0.8662,-0.8902,-0.8551,-0.8191,-0.8007,-0.7992,-0.7848,-0.7806,-1.2298,-1.2526,-1.3034,0.0,-1.4249,-1.404,-1.4385,0.0,0.0,0.0,0.0,0.0,0.0,0.0,0.0,0.0,0.0,0.0,0.0,0.0,0.0,0.0,0.0,0.0,0.0,0.0,0.0,0.0,0.0,-1.5083,-1.5357,-1.5137,-1.5137,-1.541,-1.4976,-1.4708,-1.4546,-1.3959,-1.3635,-1.3472,-1.3202,-1.2989,-1.2767,-1.2659,-1.2772,-1.3044,-1.2767,-1.2441,-1.2169,-1.1896,-1.1623,-1.1329,-1.1536,-1.1278,-1.0784,-1.0795,-1.045,-0.9975,-0.9876,-0.9847,-0.9858,-0.9919,-1.0061,-1.0183,-0.9822,-0.9818,-0.9824,-0.95,-0.9486,-0.9551,-0.9215,-0.9048,-0.8901,-0.8646,-0.8612,-0.8694,-0.889,-0.935,-0.9682,-0.9487,-0.934,-0.9333,-0.9611,-0.9623,-0.9555,-0.9348,-0.9237,-0.9109,-0.8631,-0.8614,-0.8605,-0.8586,-0.8627,-0.8627,-0.8627,-0.8273,-0.8016,-0.7912,-0.7516,-0.708,-0.6671,-0.6671,-0.6671,-0.6671,-0.7674,-0.807,-0.7864,-0.7737,-0.7645,-0.7591,-0.7605,-0.7579,-1.1231,-1.1338,-1.1465,-1.2525,-1.2492,-1.237,0.0,0.0,0.0,0.0,0.0,0.0,0.0,0.0,0.0,0.0,0.0,0.0,0.0,0.0,0.0,0.0,0.0,0.0,0.0,0.0,0.0,0.0,0.0,-1.4552,-1.4874,-1.4552,-1.4498,-1.4767,-1.4283,-1.3954,-1.3846,-1.3256,-1.2827,-1.2555,-1.2555,-1.2441,-1.2164,-1.2005,-1.2114,-1.2555,-1.2332,-1.2005,-1.1782,-1.1568,-1.1236,-1.089,-1.1025,-1.0742,-1.0296,-1.0207,-0.9875,-0.95,-0.9303,-0.9217,-0.9217,-0.9217,-0.9335,-0.9518,-0.9278,-0.9293,-0.9357,-0.9007,-0.9109,-0.9164,-0.8683,-0.8652,-0.8733,-0.8503,-0.8459,-0.8484,-0.8568,-0.9082,-0.9405,-0.9225,-0.9023,-0.896,-0.9187,-0.9344,-0.9207,-0.8718,-0.8764,-0.8631,-0.8105,-0.7907,-0.7903,-0.8248,-0.7997,-0.786,-0.7886,-0.7436,-0.7106,-0.697,-0.6591,-0.623,-0.5883,-0.5813,-0.5813,-0.5883,-0.6522,-0.6983,-0.7094,-0.7165,-0.7082,-0.6991,-0.706,-0.7055,-0.9754,-1.0076,0.0,-1.0751,-1.1244,0.0,0.0,0.0,0.0,0.0,0.0,0.0,0.0,0.0,0.0,0.0,0.0,0.0,0.0,0.0,0.0,0.0,0.0,0.0,0.0,0.0,0.0,0.0,0.0,-1.4018,-1.4606,-1.4072,-1.3905,-1.4223,-1.3635,-1.3207,-1.2989,-1.2387,-1.1951,-1.1678,-1.1678,-1.1678,-1.1623,-1.1623,-1.1623,-1.1678,-1.1623,-1.1459,-1.1126,-1.1126,-1.0802,-1.0347,-1.063,-1.0351,-0.9808,-0.983,-0.9633,-0.9268,-0.9034,-0.8915,-0.8915,-0.8915,-0.8915,-0.8915,-0.8915,-0.8922,-0.8925,-0.8918,-0.9109,-0.9185,-0.8797,-0.8915,-0.8967,-0.8643,-0.8579,-0.8581,-0.8587,-0.8747,-0.8832,-0.8837,-0.8957,-0.8973,-0.8619,-0.8836,-0.891,-0.8128,-0.8253,-0.8287,-0.7757,-0.7767,-0.7833,-0.7833,-0.7572,-0.7455,-0.7623,-0.6833,-0.6357,-0.6354,-0.5928,-0.5677,-0.5607,-0.5254,-0.5254,-0.5607,-0.5318,-0.5418,-0.61,-0.5764,-0.5592,-0.5515,-0.5518,-0.5518,0.0,0.0,0.0,-0.9147,-0.921,-0.9379,-0.9698,0.0,0.0,0.0,0.0,0.0,0.0,0.0,0.0,0.0,0.0,0.0,0.0,0.0,0.0,0.0,0.0,0.0,0.0,0.0,0.0,0.0,0.0,0.0,-1.3098,-1.3288,-1.3478,-1.3635,-1.3261,-1.2827,-1.2332,-1.1951,-1.1678,-1.1623,-1.1623,-1.1623,-1.1568,-1.14,-1.1291,-1.124,-1.0911,-1.0802,-1.0857,-1.0637,-1.0363,-0.996,-0.9831,-0.9664,-0.9473,-0.9293,-0.9037,-0.8732,-0.8613,-0.8552,-0.8552,-0.8552,-0.8735,-0.8854,-0.8674,-0.8305,-0.7891,-0.7717,-0.7474,-0.7283,-0.7159,-0.728,-0.7319,-0.7187,-0.7187,-0.7203,-0.7262,-0.7512,-0.7629,-0.7486,-0.7542,-0.7706,-0.7846,-0.8045,-0.8021,-0.7803,-0.772,-0.7692,-0.7447,-0.7259,-0.7002,-0.6719,-0.6446,-0.6171,-0.5746,-0.5222,-0.492,-0.492,-0.4468,-0.417,-0.3882,-0.3738,-0.3738,-0.3882,-0.3738,-0.4339,-0.5775,-0.5636,-0.5553,-0.5527,-0.5527,-0.5388,-0.782,0.0,0.0,0.0,0.0,-0.7382,-0.7794,0.0,0.0,0.0,0.0,0.0,0.0,0.0,0.0,0.0,0.0,0.0,0.0,0.0,0.0,0.0,0.0,0.0,0.0,0.0,0.0,0.0,0.0,0.0,-1.2452,-1.2911,-1.3098,-1.2881,-1.2495,-1.206,-1.1568,-1.1295,-1.1131,-1.1021,-1.1021,-1.1021,-1.0966,-1.0747,-1.0637,-1.0637,-1.0202,-1.0202,-1.0531,-1.0204,-0.9861,-0.9463,-0.9313,-0.9127,-0.9004,-0.8814,-0.8613,-0.8369,-0.8125,-0.8122,-0.825,-0.8172,-0.8184,-0.8251,-0.8045,-0.7498,-0.6943,-0.6723,-0.6449,-0.6233,-0.6264,-0.6362,-0.6386,-0.6386,-0.6317,-0.6205,-0.6155,-0.6582,-0.6885,-0.6698,-0.679,-0.6923,-0.7065,-0.7141,-0.7129,-0.6839,-0.6719,-0.6644,-0.6525,-0.6213,-0.5944,-0.5749,-0.5408,-0.4979,-0.4514,-0.4154,-0.3935,-0.3935,-0.3646,-0.3355,-0.3136,-0.299,-0.299,-0.3063,-0.299,-0.3543,-0.4902,-0.488,-0.4858,-0.4836,-0.4836,-0.4695,0.0,0.0,0.0,0.0,0.0,0.0,-0.6028,0.0,0.0,0.0,0.0,0.0,0.0,0.0,0.0,0.0,0.0,0.0,0.0,0.0,0.0,0.0,0.0,0.0,0.0,0.0,0.0,0.0,0.0,-1.2486,-1.2817,-1.2822,-1.2604,-1.2005,-1.14,-1.0966,-1.0692,-1.0421,-1.0147,-0.9816,-0.9816,-0.9816,-0.9816,-0.9761,-0.9761,-0.9761,-0.9489,-0.9655,-1.0166,-0.9763,-0.9286,-0.8866,-0.9013,-0.88,-0.8365,-0.8334,-0.8369,-0.8247,-0.7572,-0.7566,-0.783,-0.7643,-0.7301,-0.7004,-0.711,-0.6626,-0.603,-0.6009,-0.6112,-0.6227,-0.6146,-0.6255,-0.6319,-0.6319,-0.6116,-0.5802,-0.5548,-0.6039,-0.6538,-0.6629,-0.672,-0.6711,-0.6284,-0.6278,-0.6039,-0.5312,-0.5165,-0.512,-0.4994,-0.4802,-0.4759,-0.4921,-0.4447,-0.4078,-0.4079,-0.3717,-0.3501,-0.3501,-0.3501,-0.3501,-0.3501,-0.3063,-0.3063,-0.3428,-0.3063,-0.3063,-0.3428,-0.3456,-0.3341,-0.3298,-0.3298,-0.3228,-0.6543,0.0,0.0,0.0,0.0,0.0,0.0,0.0,0.0,0.0,0.0,0.0,0.0,0.0,0.0,0.0,0.0,0.0,0.0,0.0,0.0,0.0,0.0,0.0,0.0,0.0,0.0,0.0,-1.1201,-1.1469,-1.1192,-1.1652,-1.1787,-1.1345,-1.1021,-1.0692,-1.0417,-1.0091,-0.9871,-0.9816,-0.9816,-0.9816,-0.9761,-0.9368,-0.9144,-0.9089,-0.8426,-0.8091,-0.8123,-0.8678,-0.8622,-0.8181,-0.8095,-0.7852,-0.7541,-0.7395,-0.7329,-0.7268,-0.6834,-0.6709,-0.6787,-0.6516,-0.6357,-0.6311,-0.6407,-0.5878,-0.5331,-0.5367,-0.5023,-0.4751,-0.4832,-0.4882,-0.4911,-0.4911,-0.4842,-0.4739,-0.4782,-0.47,-0.4618,-0.4682,-0.4746,-0.4775,-0.4588,-0.4666,-0.4718,-0.4747,-0.474,-0.4656,-0.4624,-0.454,-0.4325,-0.391,-0.3935,-0.3749,-0.3278,-0.3427,-0.3501,-0.3501,-0.3209,-0.3063,-0.3063,-0.2698,-0.2552,-0.2625,-0.2552,-0.2552,-0.2625,-0.3197,-0.3331,-0.303,-0.2452,-0.2163,0.0,0.0,0.0,0.0,0.0,0.0,-0.2409,-0.252,0.0,0.0,0.0,0.0,0.0,0.0,0.0,0.0,0.0,0.0,0.0,0.0,0.0,0.0,0.0,0.0,0.0,0.0,0.0,-0.9823,-1.0531,-1.0909,-1.0852,-1.0975,-1.1021,-1.0966,-1.0527,-1.0202,-0.9926,-0.9592,-0.9372,-0.9261,-0.9096,-0.904,-0.904,-0.8595,-0.8374,-0.8318,-0.7429,-0.7019,-0.6942,-0.7289,-0.7393,-0.7296,-0.7225,-0.7017,-0.6748,-0.6551,-0.6467,-0.6403,-0.591,-0.5972,-0.6115,-0.5617,-0.5465,-0.5421,-0.5341,-0.4824,-0.4277,-0.4482,-0.4357,-0.4185,-0.4282,-0.4308,-0.4308,-0.4308,-0.4172,-0.4123,-0.4188,-0.3851,-0.3662,-0.3874,-0.3825,-0.375,-0.3721,-0.3621,-0.3647,-0.3832,-0.3704,-0.3639,-0.3759,-0.3625,-0.3422,-0.3146,-0.3232,-0.3108,-0.2695,-0.299,-0.3209,-0.299,-0.2916,-0.2843,-0.2625,-0.2405,-0.2333,-0.2333,-0.2187,-0.2041,-0.1824,-0.2479,-0.2552,-0.2188,-0.175,-0.1531,0.0,0.0,0.0,0.0,0.0,0.0,-0.123,-0.1007,-0.1063,0.0,0.0,0.0,0.0,0.0,0.0,0.0,0.0,0.0,0.0,0.0,0.0,0.0,0.0,0.0,0.0,-0.9315,-0.9286,-0.9552,-1.0061,-1.0539,-1.1043,-1.0532,-1.0312,-1.0468,-0.9978,-0.9541,-0.9268,-0.8927,-0.8647,-0.8374,-0.8045,-0.7878,-0.7823,-0.7493,-0.7382,-0.7329,-0.65,-0.6166,-0.617,-0.5653,-0.5781,-0.6337,-0.6274,-0.6105,-0.5918,-0.5756,-0.5661,-0.56,-0.4988,-0.5111,-0.5504,-0.4774,-0.4497,-0.4391,-0.4255,-0.3685,-0.3273,-0.3634,-0.3952,-0.423,-0.4292,-0.4308,-0.4308,-0.4239,-0.4038,-0.3769,-0.3775,-0.3473,-0.3393,-0.3772,-0.3612,-0.3302,-0.3302,-0.2951,-0.2739,-0.2739,-0.2486,-0.2424,-0.2678,-0.2515,-0.2467,-0.2798,-0.2606,-0.2478,-0.2405,-0.277,-0.2843,-0.2478,-0.2698,-0.277,-0.2405,-0.2333,-0.2333,-0.2333,-0.1968,-0.1604,-0.1168,-0.1458,-0.1458,-0.1168,-0.1095,-0.1095,0.0,0.0,0.0,0.0,0.0,0.0,-0.0712,-0.0549,-0.0662,0.0,0.0,0.0,0.0,0.0,0.0,0.0,0.0,0.0,0.0,0.0,0.0,0.0,0.0,0.0,0.0,-0.862,-0.8807,-0.9233,-0.9689,-0.9869,-0.9707,-0.9818,-0.9702,-0.9254,-0.9144,-0.8816,-0.8266,-0.7989,-0.7712,-0.7432,-0.7102,-0.6935,-0.6935,-0.6154,-0.5931,-0.6105,-0.5281,-0.4679,-0.4242,-0.4472,-0.4829,-0.519,-0.5221,-0.4856,-0.4355,-0.4307,-0.4312,-0.425,-0.3885,-0.3885,-0.3897,-0.3527,-0.3421,-0.3377,-0.3413,-0.3283,-0.3194,-0.3614,-0.3952,-0.423,-0.4292,-0.4308,-0.4239,-0.3969,-0.3835,-0.3711,-0.348,-0.3086,-0.2911,-0.3059,-0.2997,-0.2849,-0.2566,-0.2424,-0.2424,-0.2424,-0.2358,-0.2297,-0.2385,-0.2616,-0.2841,-0.2906,-0.342,-0.3644,-0.3281,-0.3645,-0.3716,-0.3281,-0.3063,-0.2843,-0.277,-0.2479,-0.2333,-0.2333,-0.1968,-0.1458,-0.073,-0.0803,-0.0803,-0.073,-0.0365,-0.0219,0.0,0.0,0.0,-0.2082,0.0,0.0,0.0,-0.0486,-0.0108,-0.0546,0.0,0.0,0.0,0.0,0.0,0.0,0.0,0.0,0.0,0.0,0.0,0.0,0.0,0.0,0.0,-0.7502,-0.7744,-0.8482,-0.8857,-0.8993,-0.892,-0.9038,-0.904,-0.8702,-0.8537,-0.8318,-0.7989,-0.7438,-0.7104,-0.6935,-0.632,-0.6042,-0.6042,-0.5429,-0.5208,-0.5324,-0.4447,-0.3943,-0.3714,-0.3652,-0.3647,-0.3758,-0.4067,-0.4007,-0.3699,-0.3515,-0.3453,-0.3391,-0.3085,-0.3085,-0.3155,-0.27,-0.2663,-0.2819,-0.2685,-0.29,-0.3167,-0.3387,-0.3861,-0.4202,-0.4097,-0.4038,-0.3969,-0.3565,-0.3365,-0.3237,-0.3056,-0.2736,-0.2485,-0.2518,-0.2538,-0.2485,-0.2288,-0.2278,-0.2263,-0.2248,-0.2271,-0.229,-0.229,-0.2604,-0.2916,-0.2916,-0.3426,-0.3717,-0.3501,-0.3718,-0.3645,-0.3209,-0.299,-0.2843,-0.2625,-0.2405,-0.2187,-0.2041,-0.1895,-0.1385,-0.0584,-0.0584,-0.0511,-0.0292,-0.0073,0.0,0.0,0.0,0.0,0.0,0.0,-0.074,0.0,0.0,0.0,0.032,0.0,0.0,0.0,0.0,0.0,0.0,0.0,0.0,0.0,0.0,0.0,0.0,0.0,0.0,0.0,-0.6168,-0.6479,-0.7449,-0.7852,-0.8056,-0.8121,-0.8275,-0.8374,-0.8263,-0.7986,-0.7768,-0.7601,-0.6824,-0.6379,-0.6267,-0.5504,-0.5166,-0.5094,-0.472,-0.4608,-0.4599,-0.3778,-0.3433,-0.3421,-0.3005,-0.2684,-0.2468,-0.3086,-0.3271,-0.3147,-0.2901,-0.2776,-0.2776,-0.2468,-0.2591,-0.272,-0.219,-0.2225,-0.2458,-0.2166,-0.2595,-0.3095,-0.3095,-0.3566,-0.4038,-0.3768,-0.3701,-0.3565,-0.3229,-0.2894,-0.2694,-0.2627,-0.2378,-0.2193,-0.2199,-0.2224,-0.2182,-0.2278,-0.2257,-0.2232,-0.2219,-0.2254,-0.2277,-0.2193,-0.2592,-0.2916,-0.2916,-0.3281,-0.3501,-0.3355,-0.3281,-0.3136,-0.2698,-0.2625,-0.2406,-0.2115,-0.2187,-0.2041,-0.1822,-0.1822,-0.1458,-0.073,-0.0657,-0.0365,0.0,0.0,0.0,0.0,0.0,0.0,0.0,-0.1748,0.0,0.0,0.0,0.0628,0.138,0.0,0.0,0.0,0.0,0.0,0.0,0.0,0.0,0.0,0.0,0.0,0.0,0.0,0.0,0.0,0.0,-0.5483,-0.6009,-0.6786,-0.7082,-0.6643,-0.7514,-0.7823,-0.7376,-0.7321,-0.6877,-0.6044,-0.5708,-0.526,-0.476,-0.438,-0.4208,-0.415,-0.3642,-0.3524,-0.3706,-0.3128,-0.2704,-0.248,-0.2493,-0.2341,-0.2099,-0.2468,-0.2407,-0.2162,-0.2099,-0.2099,-0.2099,-0.2099,-0.2099,-0.21,-0.2042,-0.2082,-0.2134,-0.21,-0.2397,-0.2761,-0.2761,-0.3028,-0.3295,-0.3295,-0.3295,-0.3162,-0.2828,-0.2761,-0.2627,-0.2289,-0.2225,-0.2168,-0.2195,-0.2224,-0.2176,-0.218,-0.2225,-0.2222,-0.2273,-0.2264,-0.2197,-0.2317,-0.262,-0.2916,-0.2916,-0.3281,-0.3354,-0.299,-0.2625,-0.226,-0.1968,-0.1605,-0.1386,-0.1313,-0.1677,-0.1822,-0.1822,-0.1822,-0.1604,-0.1095,-0.0803,-0.0365,0.0,0.0,0.0,0.0,0.0,0.0,0.0,0.0,0.0,0.0,0.0,0.0717,0.0,0.0,0.0,0.0,0.0,0.0,0.0,0.0,0.0,0.0,0.0,0.0,0.0,0.0,0.0,0.0,0.0,0.0,0.0,0.0,-0.5929,-0.5948,-0.6743,-0.7084,-0.6932,-0.6935,-0.6546,-0.5822,-0.532,-0.4951,-0.4547,-0.4067,-0.3722,-0.3527,-0.3322,-0.3133,-0.3034,-0.2497,-0.212,-0.2008,-0.1706,-0.1543,-0.142,-0.1605,-0.1667,-0.1667,-0.1482,-0.142,-0.142,-0.142,-0.142,-0.1424,-0.1449,-0.1606,-0.1833,-0.1794,-0.2211,-0.2694,-0.2694,-0.2961,-0.3162,-0.2961,-0.2895,-0.2828,-0.2491,-0.2424,-0.2357,-0.2222,-0.2222,-0.2226,-0.2171,-0.2184,-0.213,-0.187,-0.2111,-0.228,-0.229,-0.2294,-0.2155,-0.1946,-0.2322,-0.2478,-0.226,-0.2552,-0.277,-0.2552,-0.2187,-0.1895,-0.1749,-0.1386,-0.1168,-0.1168,-0.1386,-0.1459,-0.1459,-0.1459,-0.124,-0.0876,-0.0657,-0.0365,0.0,0.0,0.0,-0.5396,0.0,0.0,0.0,0.0,0.0,0.0,0.0,0.0,0.0,0.0,0.0,0.0,0.0,0.0,0.0,0.0,0.0,0.0,0.0,0.0,0.0,0.0,0.0,0.0,0.0,0.0,0.0,-0.416,-0.4734,-0.5009,-0.5766,-0.6255,-0.6335,-0.642,-0.61,-0.5431,-0.4929,-0.4509,-0.4164,-0.3669,-0.3324,-0.3084,-0.2996,-0.281,-0.2434,-0.193,-0.1661,-0.1545,-0.116,-0.0988,-0.0988,-0.0926,-0.0988,-0.1235,-0.105,-0.0988,-0.0988,-0.0988,-0.0991,-0.0999,-0.1028,-0.1241,-0.1586,-0.1609,-0.202,-0.2559,-0.2559,-0.2759,-0.2893,-0.2626,-0.2559,-0.2492,-0.2289,-0.2222,-0.2155,-0.2087,-0.202,-0.2022,-0.203,-0.197,-0.1847,-0.1664,-0.1911,-0.208,-0.2005,-0.1947,-0.1882,-0.1584,-0.1813,-0.1896,-0.1604,-0.1823,-0.1969,-0.1969,-0.1604,-0.1385,-0.1239,-0.1021,-0.0949,-0.1022,-0.1025,-0.1099,-0.1168,-0.1172,-0.1025,-0.073,-0.0657,-0.0438,-0.0146,-0.0073,0.0,0.0,0.0,0.0,-0.3622,0.0,0.0,0.0,0.0,0.0808,0.0,0.0,0.0,0.0,0.0,0.0,0.0,0.0,0.0,0.0,0.0,0.0,0.0,0.0,0.0,0.0,0.0,0.0,-0.2592,-0.316,-0.3471,-0.3473,-0.4658,-0.5347,-0.5358,-0.5662,-0.5429,-0.4536,-0.4203,-0.3757,-0.3141,-0.2907,-0.2792,-0.2699,-0.2496,-0.2218,-0.1785,-0.1546,-0.1206,-0.0905,-0.0981,-0.0988,-0.0988,-0.0617,-0.0494,-0.0556,-0.0864,-0.0988,-0.0988,-0.0988,-0.0998,-0.1015,-0.0979,-0.1252,-0.1586,-0.1609,-0.1885,-0.2222,-0.2222,-0.2222,-0.2222,-0.2222,-0.2222,-0.2222,-0.2222,-0.2222,-0.2087,-0.1683,-0.1616,-0.1622,-0.1713,-0.1389,-0.1267,-0.164,-0.1681,-0.1529,-0.1212,-0.1145,-0.1151,-0.1238,-0.124,-0.1241,-0.1241,-0.1241,-0.1241,-0.1241,-0.0876,-0.0438,-0.0073,-0.0073,-0.0219,-0.0584,-0.0591,-0.0813,-0.1168,-0.1181,-0.1181,-0.1168,-0.0803,-0.0584,-0.0584,-0.0146,0.0,0.0,0.0,-0.5969,-0.4396,0.0,0.0,0.0,0.0,0.0,0.0,0.0,0.0,0.0,0.0,0.0,0.0,0.0,0.0,0.0,0.0,0.0,0.0,0.0,0.0,0.0,0.0,0.0,-0.1633,-0.1987,-0.256,0.0,-0.3982,-0.4638,-0.5295,-0.5383,-0.5151,-0.4479,-0.4148,-0.372,-0.3191,-0.2896,-0.2678,-0.2496,-0.2194,-0.1899,-0.1521,-0.0956,-0.0664,-0.0544,-0.043,-0.0309,-0.0309,-0.0185,-0.0185,-0.0185,-0.0309,-0.0309,-0.0309,-0.0309,-0.0312,-0.038,-0.0582,-0.0916,-0.1321,-0.1542,-0.1885,-0.2222,-0.2222,-0.2222,-0.2222,-0.2222,-0.2222,-0.2222,-0.2222,-0.2222,-0.2087,-0.1683,-0.1616,-0.1551,-0.1354,-0.1165,-0.1043,-0.0916,-0.0918,-0.0923,-0.1157,-0.116,-0.1089,-0.0802,-0.0803,-0.073,-0.0438,-0.0438,-0.0438,-0.0438,-0.0292,-0.0146,0.0,0.0,-0.0073,-0.0219,-0.022,-0.0294,-0.037,-0.0371,-0.0373,-0.0374,-0.0299,-0.0225,-0.0225,-0.0075,0.0,-0.7386,-0.7142,0.0,-0.5218,-0.4593,0.0,-0.2935,0.0,0.0,0.0,0.0,0.0,0.0,0.0,0.0,0.0,0.0,0.0,0.0,0.0765,0.0,0.0,0.0,0.0,0.0,0.0,-0.0768,-0.1163,-0.1465,-0.1979,0.0,0.0,-0.4019,-0.476,-0.5039,-0.4877,-0.4313,-0.3867,-0.3392,-0.2874,-0.2555,-0.2343,-0.2182,-0.1858,-0.156,-0.119,-0.0665,-0.0365,-0.0243,-0.0061,0.0,0.0,0.0,0.0,0.0,0.0,0.0,0.0,0.0,-0.0063,-0.0191,-0.0453,-0.0854,-0.133,-0.1544,-0.1885,-0.2224,-0.2168,-0.223,-0.2225,-0.2168,-0.223,-0.2155,-0.202,-0.202,-0.1818,-0.1346,-0.1212,-0.1146,-0.0948,-0.082,-0.0691,-0.0563,-0.0427,-0.0431,-0.0728,-0.0803,-0.0657,-0.0438,-0.0365,-0.0292,0.0,0.0,0.0,0.0,0.0,0.0,0.0,0.0,0.0,0.0,0.0,0.0074,0.0225,0.0226,0.0302,0.0455,0.0455,0.0379,0.0227,0.0228,0.0152]},{"header":{"parameterUnit":"m.s-1","parameterCategory":1,"la1":30.6,"la2":29.2853,"lo1":-89.7004,"lo2":-87.6739,"dy":0.0162,"dx":0.0183,"nx":112,"ny":82,"refTime":"2023-08-24T12:00:00:Z","depth":0,"parameterNumber":3,"parameterNumberName":"V-component_of_WINDS"},"data":[0.0,0.0,0.0,0.0,0.0,0.0,0.0,0.0,0.0,0.0,0.0,0.0,0.0,0.0,0.0,0.0,0.0,0.0,0.0,0.0,0.0,0.0,0.0,0.0,0.0,0.0,0.0,0.0,0.0,0.0,0.0,0.0,0.0,0.0,0.0,0.0,0.0,0.0,0.0,0.0,0.0,0.0,0.0,0.0,0.0,0.0,0.0,0.0,0.0,0.0,0.0,0.0,0.0,0.0,0.0,0.0,0.0,0.0,0.0,0.0,0.0,0.0,0.0,0.0,0.0,0.0,0.0,0.0,0.0,0.0,0.0,0.0,0.0,0.0,0.0,0.0,0.0,0.0,0.0,0.0,0.0,0.0,0.0,0.0,0.0,0.0,0.0,0.0,0.0,0.0,0.0,1.7935,1.7261,1.6484,1.5798,1.4279,1.2858,1.1663,0.0,0.0,0.0,0.0,0.0,0.0,0.0,0.0,0.0,0.0,0.0,0.0,0.0,0.0,0.0,0.0,0.0,0.0,0.0,0.0,0.0,0.0,0.0,0.0,0.0,0.0,0.0,0.0,0.0,0.0,0.0,0.0,0.0,0.0,0.0,0.0,0.0,0.0,0.0,0.0,0.0,0.0,0.0,0.0,0.0,0.0,0.0,0.0,0.0,0.0,0.0,0.0,0.0,0.0,0.0,0.0,0.0,0.0,0.0,0.0,0.0,0.0,0.0,0.0,0.0,0.0,0.0,0.0,0.0,0.0,0.0,0.0,0.0,0.0,0.0,0.0,0.0,0.0,0.0,0.0,0.0,0.0,0.0,0.0,0.0,0.0,0.0,0.0,0.0,0.0,0.0,0.0,0.0,0.0,0.0,0.0,0.0,0.0,0.0,0.0,0.0,0.0,0.0,0.0,1.9759,1.9492,1.8654,1.7781,1.6848,1.5116,1.3606,1.2479,0.0,0.0,0.0,0.0,0.0,0.0,0.0,0.0,0.0,0.0,0.0,0.0,0.0,0.0,0.0,0.0,0.0,0.0,0.0,0.0,0.0,0.0,0.0,0.0,0.0,0.0,0.0,0.0,0.0,0.0,0.0,0.0,0.0,0.0,0.0,0.0,0.0,0.0,0.0,0.0,0.0,0.0,0.0,0.0,0.0,0.0,0.0,0.0,0.0,0.0,0.0,0.0,0.0,0.0,0.0,0.0,0.0,0.0,0.0,0.0,0.0,0.0,0.0,0.0,0.0,0.0,0.0,0.0,0.0,0.0,0.0,0.0,0.0,0.0,0.0,0.0,0.0,0.0,0.0,0.0,0.0,0.0,0.0,0.0,0.0,0.0,0.0,0.0,0.0,0.0,0.0,0.0,0.0,0.0,0.0,0.0,0.0,0.0,0.0,0.0,0.0,0.0,0.0,2.0395,2.0579,2.0074,1.9496,1.8722,1.7577,1.6246,1.4935,1.3758,1.2207,0.0,0.0,0.0,0.0,0.0,0.0,0.0,0.0,0.0,0.0,0.0,0.0,0.0,0.0,0.0,0.0,0.0,0.0,0.0,0.0,0.0,0.0,0.0,0.0,0.0,0.0,0.0,0.0,0.0,0.0,0.0,0.0,0.0,0.0,0.0,0.0,0.0,0.0,0.0,0.0,0.0,0.0,0.0,0.0,0.0,0.0,0.0,0.0,0.0,0.0,0.0,0.0,0.0,0.0,0.0,0.0,0.0,0.0,0.0,0.0,0.0,0.0,0.0,0.0,0.0,0.0,0.0,0.0,0.0,0.0,0.0,0.0,0.0,0.0,0.0,0.0,0.0,0.0,0.0,0.0,0.0,0.0,0.0,0.0,0.0,0.0,0.0,0.0,0.0,0.0,0.0,0.0,0.0,0.0,0.0,0.0,0.0,0.0,0.0,0.0,0.0,0.0,2.1182,2.1292,2.0691,2.031,1.9655,1.857,1.7238,1.5989,1.4878,1.3399,0.0,0.0,0.0,0.0,0.0,0.0,0.0,0.0,0.0,0.0,0.0,0.0,0.0,0.0,0.0,0.0,0.0,0.0,0.0,0.0,0.0,0.0,0.0,0.0,0.0,0.0,0.0,0.0,0.0,0.0,0.0,0.0,0.0,0.0,0.0,0.0,0.0,0.0,0.0,0.0,0.0,0.0,0.0,0.0,0.0,0.0,0.0,0.0,0.0,0.0,0.0,0.0,0.0,0.0,0.0,0.0,0.0,0.0,0.0,0.0,0.0,0.0,0.0,0.0,0.0,0.0,0.0,0.0,0.0,0.0,0.0,0.0,0.0,0.0,0.0,0.0,0.0,0.0,0.0,0.0,0.0,0.0,0.0,0.0,0.0,0.0,0.0,0.0,0.0,0.0,0.0,0.0,0.0,0.0,0.0,0.0,0.0,0.0,0.0,0.0,0.0,0.0,2.1892,2.2338,2.1977,2.1466,2.0865,2.0207,1.7774,1.6101,1.5576,1.3521,0.0,0.0,0.0,0.0,0.0,0.0,0.0,0.0,0.0,0.0,0.0,0.0,0.0,0.0,0.0,0.0,0.0,0.0,0.0,0.0,0.0,0.0,0.0,0.0,0.0,0.0,0.0,0.0,0.0,0.0,0.0,0.0,0.0,0.0,0.0,0.0,0.0,0.0,0.0,0.0,0.0,0.0,0.0,0.0,0.0,0.0,0.0,0.0,0.0,0.0,0.0,0.0,0.0,0.0,0.0,0.0,0.0,0.0,0.0,0.0,0.0,0.0,0.0,0.0,0.0,0.0,0.0,0.0,0.0,0.0,0.0,0.0,0.0,0.0,0.0,0.0,0.0,0.0,0.0,0.0,0.0,0.0,0.0,0.0,0.0,0.0,0.0,0.0,0.0,0.0,0.0,0.0,0.0,0.0,0.0,0.0,0.0,0.0,0.0,0.0,0.0,0.0,2.3167,2.3692,0.0,2.2386,2.1716,2.069,1.9482,1.8095,1.6427,0.0,0.0,0.0,0.0,0.0,0.0,0.0,0.0,0.0,0.0,0.0,0.0,0.0,0.0,0.0,0.0,0.0,0.0,0.0,0.0,0.0,0.0,0.0,0.0,0.0,0.0,0.0,0.0,0.0,0.0,0.0,0.0,0.0,0.0,0.0,0.0,0.0,0.0,0.0,0.0,0.0,0.0,0.0,0.0,0.0,0.0,0.0,0.0,0.0,0.0,0.0,0.0,0.0,0.0,0.0,0.0,0.0,0.0,0.0,0.0,0.0,0.0,0.0,0.0,0.0,0.0,0.0,0.0,0.0,0.0,0.0,0.0,0.0,0.0,0.0,0.0,0.0,0.0,0.0,0.0,0.0,0.0,0.0,0.0,0.0,0.0,0.0,0.0,0.0,0.0,0.0,0.0,0.0,0.0,0.0,0.0,0.0,0.0,0.0,0.0,0.0,0.0,2.2753,2.425,2.4928,0.0,2.338,2.2723,2.151,2.0723,1.9473,1.749,0.0,0.0,0.0,0.0,0.0,0.0,0.0,0.0,0.0,0.0,0.0,0.0,0.0,0.0,0.0,0.0,0.0,0.0,0.0,0.0,0.0,0.0,0.0,0.0,0.0,0.0,0.0,0.0,0.0,0.0,0.0,0.0,0.0,0.0,0.0,0.0,0.0,0.0,0.0,0.0,0.0,0.0,0.0,0.0,0.0,0.0,0.0,0.0,0.0,0.0,0.0,0.0,0.0,0.0,0.0,0.0,0.0,0.0,0.0,0.0,0.0,0.0,0.0,0.0,0.0,0.0,0.0,0.0,0.0,0.0,0.0,0.0,0.0,0.0,0.0,0.0,0.0,0.0,0.0,0.0,0.0,0.0,0.0,0.0,0.0,0.0,0.0,0.0,0.0,0.0,0.0,0.0,0.0,0.0,0.0,0.0,0.0,0.0,0.0,0.0,0.0,0.0,2.3143,2.5081,2.6069,2.4596,2.4424,2.3909,2.2697,2.1268,1.9884,0.0,0.0,0.0,0.0,0.0,0.0,0.0,0.0,0.0,0.0,0.0,0.0,0.0,0.0,0.0,0.0,0.0,0.0,0.0,0.0,0.0,0.0,0.0,0.0,0.0,0.0,0.0,0.0,0.0,0.0,0.0,0.0,0.0,0.0,0.0,0.0,0.0,0.0,0.0,0.0,0.0,0.0,0.0,0.0,0.0,0.0,0.0,0.0,0.0,0.0,0.0,0.0,0.0,0.0,0.0,0.0,0.0,0.0,0.0,0.0,0.0,0.0,0.0,0.0,0.0,0.0,0.0,0.0,0.0,0.0,0.0,0.0,0.0,0.0,0.0,0.0,0.0,0.0,0.0,0.0,0.0,0.0,0.0,0.0,0.0,0.0,0.0,0.0,0.0,0.0,0.0,0.0,0.0,0.0,0.0,0.0,0.0,0.0,0.0,0.0,0.0,0.0,0.0,2.4254,2.5755,2.6695,2.6004,2.523,2.449,2.3909,2.3062,2.1963,2.0445,0.0,0.0,0.0,0.0,0.0,0.0,0.0,0.0,0.0,0.0,0.0,0.0,0.0,0.0,0.0,0.0,0.0,0.0,0.0,0.0,0.0,0.0,0.0,0.0,0.0,0.0,0.0,0.0,0.0,0.0,0.0,0.0,0.0,0.0,0.0,0.0,0.0,0.0,0.0,0.0,0.0,0.0,0.0,0.0,0.0,0.0,0.0,0.0,0.0,0.0,0.0,0.0,0.0,0.0,0.0,0.0,0.0,0.0,0.0,0.0,0.0,0.0,0.0,0.0,0.0,0.0,0.0,0.0,0.0,0.0,0.0,0.0,0.0,0.0,0.0,0.0,0.0,0.0,0.0,0.0,0.0,0.0,0.0,0.0,0.0,0.0,0.0,0.0,0.0,0.0,0.0,0.0,0.0,0.0,0.0,0.0,0.0,0.0,0.0,0.0,0.0,0.0,2.5093,2.6574,2.7508,2.6838,2.6063,2.5345,2.4775,2.4421,2.3497,2.1865,0.0,0.0,0.0,0.0,0.0,0.0,0.0,0.0,0.0,0.0,0.0,0.0,0.0,0.0,0.0,0.0,0.0,0.0,0.0,0.0,0.0,0.0,0.0,0.0,0.0,0.0,0.0,0.0,0.0,0.0,0.0,0.0,0.0,0.0,0.0,0.0,0.0,0.0,0.0,0.0,0.0,0.0,0.0,0.0,0.0,0.0,0.0,0.0,0.0,0.0,0.0,0.0,0.0,0.0,0.0,0.0,0.0,0.0,0.0,0.0,0.0,0.0,0.0,0.0,0.0,0.0,0.0,0.0,0.0,0.0,0.0,0.0,0.0,0.0,0.0,0.0,0.0,0.0,0.0,0.0,0.0,0.0,0.0,0.0,0.0,0.0,0.0,0.0,0.0,0.0,0.0,0.0,0.0,0.0,0.0,0.0,0.0,0.0,0.0,0.0,0.0,0.0,2.5792,2.7515,2.8422,2.7305,2.6926,2.6327,2.5441,2.5331,2.4659,2.3167,0.0,0.0,0.0,0.0,0.0,0.0,0.0,0.0,0.0,0.0,0.0,0.0,0.0,0.0,0.0,0.0,0.0,0.0,0.0,0.0,0.0,0.0,0.0,0.0,0.0,0.0,0.0,0.0,0.0,0.0,0.0,0.0,0.0,0.0,0.0,0.0,0.0,0.0,0.0,0.0,0.0,0.0,0.0,0.0,0.0,0.0,0.0,0.0,0.0,0.0,0.0,0.0,0.0,0.0,0.0,0.0,0.0,0.0,0.0,0.0,2.0227,0.0,0.0,0.0,0.0,0.0,0.0,0.0,0.0,0.0,0.0,0.0,0.0,0.0,0.0,0.0,0.0,0.0,0.0,0.0,0.0,0.0,0.0,0.0,0.0,0.0,0.0,0.0,0.0,0.0,0.0,0.0,0.0,0.0,0.0,0.0,0.0,0.0,0.0,0.0,0.0,0.0,2.7166,2.8817,2.9691,2.8774,2.7985,2.7295,2.6654,2.6436,2.5919,2.504,2.3974,0.0,0.0,0.0,0.0,0.0,0.0,0.0,0.0,0.0,0.0,0.0,0.0,0.0,0.0,0.0,0.0,0.0,0.0,0.0,0.0,0.0,0.0,0.0,0.0,0.0,0.0,0.0,0.0,0.0,0.0,0.0,0.0,0.0,0.0,0.0,0.0,0.0,0.0,0.0,0.0,0.0,0.0,0.0,0.0,0.0,0.0,0.0,0.0,0.0,0.0,0.0,0.0,0.0,0.0,0.0,0.0,0.0,0.0,0.0,0.0,2.2031,0.0,0.0,0.0,0.0,0.0,0.0,0.0,0.0,0.0,0.0,0.0,0.0,0.0,0.0,0.0,0.0,0.0,0.0,0.0,0.0,0.0,0.0,0.0,0.0,0.0,0.0,0.0,0.0,0.0,0.0,0.0,0.0,0.0,0.0,0.0,0.0,0.0,0.0,0.0,0.0,2.884,3.061,3.1475,3.0178,2.9307,2.8496,2.7711,2.7206,2.6758,2.6199,2.5474,0.0,0.0,0.0,0.0,0.0,0.0,0.0,0.0,0.0,0.0,0.0,0.0,0.0,0.0,0.0,0.0,0.0,0.0,0.0,0.0,0.0,0.0,0.0,0.0,0.0,0.0,0.0,0.0,0.0,0.0,0.0,0.0,0.0,0.0,0.0,0.0,0.0,0.0,0.0,0.0,0.0,0.0,0.0,0.0,0.0,0.0,0.0,0.0,0.0,0.0,0.0,0.0,0.0,2.7894,2.8562,2.9408,2.9147,2.9095,2.904,2.6429,2.5126,2.479,0.0,0.0,0.0,0.0,0.0,0.0,0.0,0.0,0.0,0.0,0.0,0.0,0.0,0.0,0.0,0.0,0.0,0.0,0.0,0.0,0.0,0.0,0.0,0.0,0.0,3.1333,3.1344,0.0,0.0,0.0,0.0,0.0,0.0,0.0,0.0,0.0,0.0,0.0,0.0,3.0398,3.2383,3.3223,3.1625,3.0805,2.9941,2.8813,2.8237,2.7678,2.716,2.6854,2.6199,0.0,0.0,0.0,0.0,0.0,0.0,0.0,0.0,0.0,0.0,0.0,0.0,0.0,0.0,0.0,0.0,0.0,0.0,0.0,0.0,0.0,0.0,0.0,0.0,0.0,0.0,0.0,0.0,0.0,0.0,0.0,0.0,2.7512,2.7804,0.0,0.0,0.0,0.0,0.0,0.0,0.0,0.0,0.0,0.0,0.0,0.0,0.0,2.8993,2.8573,2.9539,2.9797,2.935,3.0013,3.043,3.0595,3.0543,3.0166,2.9549,2.9398,0.0,2.7673,2.6985,0.0,0.0,0.0,0.0,0.0,0.0,0.0,0.0,0.0,0.0,0.0,0.0,0.0,0.0,0.0,0.0,0.0,0.0,0.0,0.0,0.0,0.0,3.0943,3.17,3.2476,3.2872,0.0,3.148,3.0913,3.0136,0.0,0.0,0.0,0.0,0.0,0.0,0.0,0.0,3.1301,3.3231,3.418,3.3038,3.2552,3.1816,3.0488,3.0082,2.9524,2.8532,2.8032,2.7682,2.7351,2.6995,0.0,0.0,0.0,0.0,0.0,0.0,0.0,0.0,0.0,0.0,0.0,0.0,0.0,0.0,0.0,0.0,0.0,0.0,0.0,0.0,0.0,0.0,0.0,0.0,0.0,0.0,0.0,0.0,0.0,2.8825,2.8746,2.8738,2.8595,2.8349,0.0,0.0,0.0,0.0,0.0,0.0,0.0,0.0,0.0,2.9756,3.0128,3.0241,2.9994,3.07,3.0906,3.0559,3.1019,3.1322,3.1476,3.1319,3.124,3.1196,3.1045,3.0745,3.0248,2.8899,2.8248,2.793,0.0,0.0,0.0,0.0,2.5225,2.5948,2.6238,2.6626,0.0,0.0,0.0,0.0,0.0,0.0,0.0,0.0,0.0,0.0,0.0,0.0,0.0,3.3185,3.3787,3.42,3.4433,3.4422,3.3953,0.0,3.2956,3.3047,3.1295,0.0,0.0,0.0,0.0,0.0,3.3126,3.446,3.5072,3.3988,3.3361,3.2501,3.1293,3.0685,3.0085,2.9459,2.9265,2.9088,2.9069,2.856,2.8006,0.0,0.0,0.0,0.0,0.0,0.0,0.0,0.0,0.0,0.0,0.0,0.0,0.0,0.0,0.0,0.0,0.0,0.0,0.0,0.0,0.0,0.0,0.0,0.0,0.0,0.0,0.0,0.0,3.0123,3.0056,2.9856,2.9971,2.9776,0.0,0.0,0.0,0.0,0.0,0.0,3.0377,3.0809,3.1041,3.1132,3.1284,3.1387,3.132,3.1489,3.1476,3.1322,3.1527,3.1721,3.2015,3.1724,3.1898,3.2403,3.1971,3.1819,3.1807,3.0353,2.965,2.9394,2.8561,2.8077,2.7764,2.7552,2.7723,2.8137,2.8752,2.9263,2.9764,3.0279,0.0,3.0249,3.0094,0.0,0.0,0.0,0.0,3.1508,3.1951,3.2782,3.3647,3.4245,3.4864,3.54,3.5796,3.6358,3.6303,0.0,3.5209,3.5435,3.3928,0.0,0.0,0.0,0.0,3.4683,3.4531,3.5485,3.5839,3.4812,3.4147,3.3303,3.2105,3.1443,3.0882,3.036,3.0245,3.0276,3.0391,2.9824,2.9291,2.8796,0.0,0.0,0.0,0.0,0.0,0.0,0.0,0.0,0.0,0.0,0.0,0.0,0.0,0.0,0.0,0.0,0.0,0.0,0.0,0.0,0.0,0.0,0.0,0.0,0.0,0.0,0.0,0.0,0.0,3.1114,3.1124,0.0,0.0,0.0,0.0,3.083,3.0869,3.1091,3.16,3.1649,3.2085,3.3023,3.2321,3.2207,3.2693,3.1962,3.1578,3.1567,3.1567,3.1721,3.2015,3.1724,3.1807,3.2234,3.2183,3.1958,3.1618,3.1513,3.1077,3.0425,3.0364,3.0084,2.9638,2.9638,3.0115,3.0704,3.0754,3.0965,3.1263,3.1754,3.2117,3.2231,3.1533,3.1492,0.0,0.0,3.2197,3.2492,3.2783,3.3981,3.4957,3.4532,3.5534,3.6402,3.5752,3.6781,3.7495,0.0,3.6614,3.6534,3.4987,0.0,3.5123,3.3815,3.4737,3.5351,3.4834,3.5923,3.6458,3.5627,3.5455,3.4779,3.3245,3.3097,3.2494,3.121,3.094,3.1037,3.1505,3.0634,3.028,3.0491,3.0438,0.0,0.0,0.0,0.0,0.0,0.0,0.0,0.0,0.0,0.0,0.0,0.0,0.0,0.0,0.0,0.0,0.0,0.0,0.0,0.0,0.0,0.0,0.0,0.0,0.0,0.0,0.0,0.0,3.16,3.1808,0.0,3.1136,3.1409,3.1512,3.144,3.1906,3.2247,3.2458,3.2458,3.2728,3.3231,3.2431,3.2155,3.2536,3.1911,3.1618,3.1618,3.1772,3.2077,3.2482,3.2297,3.2521,3.3131,3.2616,3.2415,3.2415,3.2252,3.1774,3.1226,3.1229,3.111,3.0954,3.0954,3.1214,3.166,3.1873,3.2085,3.2313,3.2689,3.3336,3.3799,3.2901,3.3161,3.367,3.3243,3.343,3.3807,3.4245,3.4921,3.5536,3.581,3.6649,3.7361,3.7281,3.7913,3.8541,3.8448,3.8447,3.8158,3.6968,3.7306,3.7317,3.6056,3.6133,3.6314,3.633,3.6295,3.6223,3.6112,3.5769,3.5325,3.4769,3.3947,3.3179,3.2594,3.2453,3.2234,3.1923,3.2214,3.2192,3.1837,3.1982,3.1855,0.0,0.0,0.0,0.0,0.0,0.0,0.0,0.0,0.0,0.0,0.0,0.0,0.0,0.0,0.0,0.0,0.0,0.0,0.0,0.0,0.0,0.0,0.0,0.0,0.0,0.0,3.3396,3.2437,3.2925,3.3025,3.2212,3.2606,3.2915,3.2752,3.3248,3.3514,3.3382,3.3421,3.3472,3.3673,3.2842,3.2514,3.2819,3.2178,3.1844,3.1936,3.2077,3.2392,3.2818,3.2778,3.2989,3.3381,3.2844,3.2655,3.2768,3.2555,3.2229,3.1801,3.1633,3.1581,3.1578,3.1373,3.1424,3.168,3.2381,3.2896,3.3289,3.3763,3.4474,3.4933,3.4265,3.4544,3.4993,3.4462,3.451,3.4823,3.5391,3.5823,3.6285,3.6943,3.7625,3.8082,3.788,3.8504,3.9118,3.9015,3.8805,3.8549,3.8291,3.8141,3.792,3.7692,3.7343,3.7248,3.7569,3.7051,3.6614,3.65,3.6177,3.5851,3.5624,3.4611,3.393,3.3671,3.361,3.3409,3.29,3.3518,3.363,3.3071,3.3244,3.3395,3.3461,0.0,0.0,0.0,0.0,0.0,0.0,0.0,0.0,0.0,0.0,0.0,0.0,0.0,0.0,0.0,0.0,0.0,0.0,0.0,0.0,0.0,0.0,0.0,3.3327,3.4198,3.4575,3.3771,3.463,3.5034,3.45,3.468,3.4796,3.4796,3.4796,3.4682,3.4407,3.4411,3.4411,3.4423,3.3583,3.3274,3.3594,3.2767,3.2369,3.2493,3.2505,3.2679,3.2942,3.311,3.311,3.293,3.2784,3.2684,3.2544,3.2544,3.246,3.2202,3.1812,3.168,3.1567,3.1075,3.0931,3.1127,3.242,3.3423,3.4176,3.4993,3.5415,3.5667,3.5667,3.5619,3.5619,3.5619,3.5391,3.5356,3.6096,3.6662,3.7201,3.7671,3.84,3.8594,3.742,3.849,3.9295,3.8128,3.7658,3.7782,3.876,3.752,3.6934,3.8525,3.8346,0.0,3.842,3.823,3.7714,3.6845,3.6769,3.6487,3.5787,3.5211,3.4763,3.4532,3.4483,3.4483,3.4458,3.4485,3.4408,3.4196,3.4311,3.4947,3.6162,0.0,0.0,0.0,0.0,0.0,0.0,0.0,0.0,0.0,0.0,0.0,0.0,0.0,0.0,0.0,0.0,0.0,0.0,0.0,0.0,0.0,0.0,3.5197,3.4799,3.5456,3.5878,3.5675,3.589,3.5754,3.5045,3.5074,3.5034,3.4796,3.4796,3.4791,3.4693,3.4314,3.4279,3.4596,3.3891,3.3492,3.3594,3.3193,3.2782,3.2505,3.2864,3.3068,3.3192,3.3242,3.3472,3.3779,3.356,3.356,3.3656,3.3511,3.3598,3.3782,3.3526,3.2987,3.2442,3.2939,3.3385,3.3782,3.4323,3.4957,3.5536,3.5918,3.6345,3.6675,3.6675,3.6298,3.5858,3.5667,3.515,3.4775,3.5356,3.6143,3.6964,3.7625,3.8774,3.9587,3.9278,3.9851,4.0257,3.9791,3.9162,3.8854,3.9339,3.8908,3.8717,3.9407,3.9084,0.0,3.9402,3.91,3.8645,3.8207,3.8096,3.805,3.8083,3.7207,3.6671,3.6658,3.6483,3.6119,3.5531,3.6236,3.6595,3.6489,3.5642,3.5851,0.0,0.0,0.0,0.0,0.0,0.0,0.0,0.0,0.0,0.0,0.0,0.0,0.0,0.0,0.0,0.0,0.0,0.0,0.0,0.0,0.0,0.0,3.547,3.6294,3.6764,3.6773,3.6749,3.6762,3.6811,3.6644,3.6051,3.6016,3.587,3.5629,3.5682,3.5695,3.5486,3.5067,3.4916,3.5063,3.4515,3.4148,3.3953,3.385,3.36,3.3158,3.3456,3.3607,3.3641,3.3627,3.3804,0.0,3.3979,3.3991,3.4125,3.4052,3.4321,0.0,0.0,0.0,0.0,0.0,3.4541,3.4933,3.5235,3.581,3.6534,3.6922,3.7341,3.7756,3.7835,3.7513,3.7049,3.6896,3.6367,3.5941,3.6487,3.7209,3.7978,3.8702,3.9648,4.0329,3.9998,4.0502,4.083,4.0184,0.0,0.0,4.0055,3.9557,3.9347,3.9905,3.984,3.9841,4.0121,3.9701,3.9256,3.882,3.8652,3.869,3.895,3.7991,0.0,0.0,0.0,3.7285,3.7053,3.758,0.0,0.0,0.0,3.7901,3.9029,0.0,0.0,0.0,3.8658,3.828,0.0,0.0,0.0,0.0,0.0,0.0,0.0,0.0,0.0,0.0,0.0,0.0,0.0,0.0,0.0,0.0,3.6329,3.7072,3.8655,3.799,3.7362,3.7436,3.7616,3.7584,3.7239,3.7185,3.7024,3.6754,3.697,3.6943,3.6497,0.0,0.0,0.0,0.0,3.4841,3.4411,3.4624,3.4495,3.4125,3.4134,3.4134,3.4125,3.4134,3.4122,3.4125,3.4125,3.4162,3.4174,3.4369,3.4858,3.5405,3.4893,3.4237,3.3672,3.465,3.5199,0.0,0.0,0.0,0.0,3.7802,3.8317,3.8724,3.8966,3.8845,3.8679,3.8679,3.8245,3.79,3.8395,3.889,3.9455,4.0085,4.0688,4.0901,4.026,4.0816,4.1114,3.9998,4.0517,4.1001,4.073,3.9837,3.9432,4.025,4.0589,4.0692,4.0603,4.0232,3.9762,3.9141,0.0,0.0,3.9087,3.8251,3.7933,3.8472,3.8219,3.8277,3.8769,3.8707,3.8545,3.8472,3.9407,4.0236,4.1029,4.1406,4.165,4.1794,4.0476,3.9874,0.0,0.0,0.0,0.0,0.0,0.0,0.0,0.0,0.0,0.0,0.0,0.0,0.0,0.0,0.0,3.615,3.6726,3.7478,3.8718,3.8503,3.8361,3.8827,3.8505,3.8145,3.7826,3.7625,3.737,3.7024,3.7078,3.7031,3.699,3.6149,0.0,3.5823,3.5187,3.4707,3.44,3.4657,3.4551,3.4075,0.0,0.0,3.4087,3.4287,3.434,3.4347,3.4347,3.4445,3.4689,3.5041,3.5731,3.6631,3.7055,3.6616,3.5899,3.6687,3.7092,3.7245,3.7134,3.7479,3.8031,3.8362,3.8769,3.9261,3.9645,3.9486,0.0,3.9091,3.8437,3.7776,3.8094,3.8707,3.9356,3.9869,4.0802,4.1521,4.1381,4.1632,4.1715,4.1156,4.1451,4.1577,4.083,4.0326,4.033,4.1223,4.1182,4.1076,4.1055,4.1174,4.0924,4.011,4.0199,4.03,4.0343,3.9996,3.9922,4.0213,3.9954,3.9853,3.9954,3.9542,3.9571,4.0199,3.9813,4.0333,4.1771,4.1573,4.1823,4.2482,4.1469,4.0768,0.0,0.0,0.0,0.0,0.0,0.0,0.0,0.0,0.0,0.0,0.0,3.6885,0.0,0.0,3.6735,3.7301,3.7619,3.8138,3.9183,3.9168,3.9102,3.9285,3.8893,3.8579,3.8409,3.8157,3.7892,3.756,3.756,3.756,3.756,3.6968,3.6657,3.6763,3.6545,3.6189,3.561,3.6177,3.6026,3.5244,3.5348,3.5204,3.4847,3.4953,3.5064,3.5199,3.5199,3.5295,3.5452,3.5847,3.6515,3.7283,3.7977,3.7781,3.723,3.7808,3.8123,3.8214,3.8351,3.8525,3.88,3.9011,3.9424,3.9892,4.027,4.0364,4.044,4.0572,4.0368,4.016,4.0083,4.0443,4.091,4.093,4.1603,4.2199,4.2199,4.2266,4.2266,4.1966,4.2049,4.2007,4.1325,4.11,4.1029,4.1138,4.1374,4.1459,4.1122,4.1439,4.1454,4.093,4.0845,4.0901,4.1043,4.0759,4.0587,4.0702,4.0487,4.0386,4.0502,4.0336,4.0449,4.0845,4.0697,4.111,4.2213,4.2188,4.2524,4.314,4.2999,4.2428,0.0,0.0,0.0,0.0,0.0,0.0,0.0,0.0,3.9635,3.9956,3.9405,3.8817,3.8635,3.8417,3.8395,3.8562,3.8657,3.8941,3.9649,3.9788,3.9685,3.9465,3.9102,3.8893,3.8893,3.8631,3.8409,3.8198,3.8145,3.8096,3.8,3.77,3.7463,3.7365,3.7535,3.7277,3.6562,3.7265,3.7145,3.6223,3.6223,3.6038,3.5656,3.5704,3.5883,3.6156,3.6191,3.6238,3.6332,3.6756,3.7188,3.7677,3.8408,3.8453,3.8226,3.8591,3.8772,3.8881,3.9195,3.9346,3.9469,3.9662,4.0039,4.0456,4.0856,4.1308,4.1746,4.2094,4.2406,4.2515,4.2209,4.2338,4.249,4.2204,4.247,4.2769,4.2809,4.2809,4.2784,4.2622,4.2514,4.2336,4.191,4.1785,4.1535,4.0986,4.1468,4.1682,4.1199,4.1563,4.1744,4.1564,4.1367,4.1353,4.1507,4.1213,4.1043,4.1043,4.0887,4.0844,4.1043,4.1142,4.1254,4.1339,4.1757,4.2266,4.2729,4.3101,4.3536,4.3966,4.4412,4.4051,4.2041,4.2215,4.2678,4.2474,4.2183,4.2099,0.0,0.0,4.066,4.0816,4.0737,4.0268,3.9078,3.9355,3.9688,3.9403,3.9481,3.9686,3.9994,4.0083,4.0019,4.0019,3.9569,3.9258,3.9258,3.8945,3.8736,3.8736,3.8736,3.8476,3.805,3.751,3.7045,3.6567,3.61,3.5818,3.5757,3.5818,3.5829,3.5706,3.5706,3.5766,3.5966,3.6143,3.638,3.6615,3.6883,3.7116,3.7361,3.7579,3.7867,3.8167,3.8697,3.8966,3.9172,3.9185,3.94,3.9615,3.9414,3.9563,3.9952,4.0085,4.0257,4.0583,4.1579,4.1907,4.2094,4.2695,4.2738,4.2595,4.2626,4.2521,4.2465,4.2581,4.2795,4.3036,4.321,4.321,4.321,4.321,4.289,4.2581,4.2351,4.1993,4.1646,4.1619,4.1662,4.1691,4.1619,4.2049,4.2213,4.1966,4.2131,4.2158,4.1964,4.2117,4.2228,4.2228,4.2187,4.2187,4.2228,4.1993,4.2075,4.2526,4.29,4.3403,4.3989,4.422,4.4624,4.5184,4.5073,4.4774,4.3009,4.3168,0.0,0.0,4.3835,4.4079,4.3949,4.3798,4.336,4.238,4.251,4.2329,4.0775,4.0968,4.116,0.0,4.0301,4.0322,4.0313,4.0338,4.0211,3.9866,3.9765,3.9775,3.9775,3.9362,3.9102,3.9102,3.8893,3.8647,3.8246,3.7999,3.7593,3.6884,3.6934,3.6931,3.6764,3.7077,3.7125,3.6943,3.6943,3.6814,3.664,3.6875,3.7294,3.7802,3.7926,3.8109,3.8323,3.8291,3.8485,3.8845,3.9069,3.938,3.9703,3.9612,3.9727,3.9931,4.0051,4.0168,4.0241,4.043,4.0602,4.0872,4.1483,4.1996,4.2582,4.3499,4.3948,4.4165,4.4069,4.4045,4.395,4.3419,4.3423,4.3621,4.3699,4.3636,4.3518,4.3518,4.317,4.2835,4.2769,4.2485,4.2281,4.2281,4.2034,4.191,4.209,4.2485,4.2729,4.2592,4.2769,4.285,4.2618,4.2673,4.2769,4.2769,4.2592,4.2699,4.3101,4.2966,4.323,4.392,4.4098,4.4403,4.4856,4.5206,4.5551,4.5913,4.6179,4.6269,4.3778,0.0,0.0,4.4283,4.498,4.5472,4.5018,4.5069,4.4931,4.4009,4.399,4.3697,4.2243,4.2516,4.2547,4.1213,4.1126,4.1035,4.0642,4.0555,4.035,3.9914,3.9982,4.0173,4.0326,3.9826,3.9465,3.9426,3.9121,3.8798,3.8416,3.8204,3.7779,3.7177,3.7446,3.7507,3.7451,3.7749,3.7845,3.7663,3.7663,3.7505,3.7214,3.7677,3.8272,3.893,3.8962,3.9069,3.9176,3.9024,3.9172,3.9482,3.9482,3.9747,4.011,4.0051,4.0095,4.0154,4.0555,4.0657,4.0587,4.0801,4.0944,4.1199,4.1824,4.2438,4.3185,4.4353,4.5066,4.5357,4.4995,4.505,4.4985,4.4065,4.3988,4.4089,4.4089,4.391,4.3769,4.3729,4.3329,4.2981,4.2981,4.2835,4.2729,4.285,4.2526,4.2363,4.2541,4.289,4.3115,4.321,4.325,4.325,4.321,4.326,4.3379,4.3433,4.3388,4.3594,4.4074,4.4059,4.4388,4.5116,4.5174,4.5379,4.5778,4.6182,4.6531,4.6844,4.7218,4.7454,4.4273,4.4526,4.4735,4.4912,4.5254,4.5696,4.6352,4.5175,4.4337,4.5645,4.4832,4.3676,4.3005,4.3649,4.3751,4.1869,4.1874,4.1805,4.0984,4.0643,4.0491,4.0478,4.0224,4.0275,0.0,4.0377,3.9981,3.9697,3.9462,3.9006,3.8423,3.7671,3.7213,3.7113,3.6691,3.6678,3.7087,3.6854,3.6854,3.7134,3.7134,3.7227,3.7505,3.8427,3.9158,3.97,3.9878,3.9952,3.9952,3.9952,3.9952,3.9996,3.9996,4.0154,4.0399,4.0587,4.0544,4.0442,4.063,4.0816,4.1001,4.1156,4.1298,4.1667,4.3113,4.3531,4.3864,4.5184,4.5707,4.5694,4.4824,4.483,4.4877,4.4411,4.4281,4.4281,4.4281,4.4127,4.3949,4.3729,4.3329,4.2981,4.2981,4.2835,4.2809,4.321,4.3115,4.2981,4.2996,4.3155,4.3384,4.3651,4.3463,4.3384,4.3651,4.3981,4.4274,4.4534,4.5014,4.5332,4.5332,4.5285,4.5468,4.5949,4.6095,4.6448,4.7033,4.727,4.7621,4.813,4.7967,4.7984,4.5399,4.5502,4.5546,4.6136,4.6509,4.6639,4.6175,4.6104,4.5834,4.483,4.4795,4.4646,4.3544,4.4069,4.4247,4.2938,4.2834,4.2631,4.1832,4.1634,4.139,4.1021,4.1063,0.0,0.0,0.0,0.0,4.0198,3.9777,3.9253,3.8704,3.8501,3.8143,3.7559,3.7605,3.7618,3.7618,3.7526,3.7526,3.7611,3.7965,3.8317,3.8724,3.9176,3.9645,4.0182,4.0255,4.0328,4.043,4.0328,4.0443,4.0674,4.0516,4.0702,4.1057,4.1142,4.1213,4.1255,4.1185,4.1213,4.1283,4.1465,4.1963,4.2591,4.3265,4.3872,4.4526,4.5559,4.5794,4.5665,4.55,4.5532,4.5449,4.4855,4.4685,4.4685,4.4685,4.4435,4.4166,4.4089,4.3856,4.3723,4.384,4.4004,4.432,4.4999,4.4389,4.3786,4.3615,4.3684,4.3778,4.391,4.4135,4.4335,4.4427,4.5147,4.5624,4.5713,4.5893,4.6108,4.6356,4.6375,4.6671,4.732,4.7371,4.7605,4.8032,4.8114,4.8211,4.8388,4.8418,4.8498,4.6512,4.6493,4.6354,4.7005,4.7198,4.7081,4.6478,4.6481,4.6282,4.5186,4.5193,4.5238,4.463,4.4631,4.4419,4.3631,4.3131,4.2684,4.2121,4.1954,4.1838,4.1678,4.1741,4.1722,0.0,0.0,0.0,4.0535,4.0042,3.9521,3.9155,3.8931,3.8615,3.8232,3.8277,3.8277,3.8245,3.8181,3.8148,3.8161,3.8557,3.8904,3.9305,3.9631,4.0039,4.0515,4.0587,4.0759,4.0958,4.0815,4.0915,4.1142,4.1001,4.117,4.1507,4.1606,4.1758,4.1924,4.1591,4.1606,4.1773,4.1924,4.2393,4.2979,4.3561,4.4095,4.4778,4.5795,4.6033,4.5966,4.5987,4.6051,4.5932,4.5254,4.5173,4.5151,4.4836,4.4663,4.4496,4.448,4.4366,4.4419,4.4746,4.5073,4.5483,4.6076,4.566,4.5163,4.4812,4.4715,4.4708,4.4708,4.4977,4.5147,4.5221,4.5949,4.6442,4.6512,4.6756,4.7014,4.7268,4.7421,4.7688,4.8179,4.8179,4.834,4.8673,4.8627,4.8673,4.8861,4.8813,4.8861,4.7378,4.7326,4.6975,4.749,4.7222,4.6888,4.7177,4.6337,4.5761,4.6672,4.6003,4.5418,0.0,0.0,4.4426,4.3889,4.2904,4.2141,4.1971,4.174,4.1847,0.0,0.0,0.0,0.0,0.0,0.0,4.0795,0.0,3.984,3.9725,3.9037,3.8734,3.8939,3.8747,3.8702,3.8953,3.8756,3.8647,3.8679,3.8877,3.9145,3.938,3.9865,4.03,4.0744,4.0972,4.1184,4.1438,4.1438,4.1438,4.1438,4.1438,4.1549,4.1771,4.1951,4.2172,4.2392,4.191,4.2034,4.2433,4.2433,4.2611,4.2972,4.4041,4.4372,4.4659,4.5844,4.6413,4.6506,4.6205,4.6307,4.6322,4.5699,4.5682,4.5589,4.4799,4.4799,4.4933,4.4865,4.4887,4.511,4.5697,4.606,4.6362,4.6588,4.6931,4.6965,4.6426,4.6179,4.6036,4.6036,4.5877,4.5877,4.6056,4.6461,4.6756,4.6979,4.7654,4.8033,4.8033,4.8324,4.8515,4.8547,4.8547,4.8673,4.9001,4.8894,4.9049,4.9488,4.9185,4.9077,4.6063,4.6213,4.6221,4.6296,4.5978,4.5848,4.6434,4.6009,4.5687,4.6314,4.6131,4.5773,0.0,0.0,0.0,4.4378,4.4001,0.0,4.3013,4.2883,0.0,4.3101,0.0,4.3266,4.3362,4.2999,0.0,0.0,4.0697,4.0079,4.0141,4.0148,4.0099,3.9954,4.0055,4.0012,3.9719,3.9486,3.953,3.9881,4.0112,4.0372,4.0574,4.0901,4.1086,4.1213,4.1437,4.1563,4.1619,4.1771,4.1951,4.2146,4.1924,4.2075,4.2444,4.2336,4.2541,4.2835,4.2714,4.2754,4.2835,4.2835,4.3403,4.4198,4.4674,4.5228,4.5773,4.6102,4.6336,4.6443,4.6347,4.6334,4.6271,4.602,4.588,4.5698,4.5352,4.5379,4.5494,4.5478,4.5933,4.6429,4.6878,4.7237,4.7572,4.7918,4.8065,4.7836,4.6999,4.6724,4.662,4.662,4.6779,4.69,4.6968,4.7605,4.8049,4.8081,4.826,4.842,4.853,4.8593,4.8781,4.9015,4.9015,4.9077,4.9138,4.9277,4.9307,4.929,4.9441,4.953,4.6587,4.6562,4.6414,4.6038,4.5626,4.539,4.5669,4.5748,4.5803,4.5915,4.6259,0.0,4.6106,4.5535,0.0,0.0,0.0,0.0,4.2832,4.2901,4.3155,0.0,4.3912,0.0,4.396,4.3817,4.3324,0.0,4.1411,4.0714,4.0477,4.0632,4.0616,4.0343,4.0573,4.0573,4.03,4.0229,4.0345,4.0603,4.0759,4.1015,4.1296,4.1451,4.1448,4.1272,0.0,4.129,4.1044,4.1549,4.1883,4.2129,4.2368,4.2648,4.297,4.293,4.309,4.329,4.3275,4.3394,4.3551,4.3369,4.3807,4.4519,4.4769,4.5146,4.5554,4.5843,4.5993,4.615,4.6532,4.6712,4.6738,4.658,4.658,4.6509,4.6032,4.6143,4.634,4.6445,4.6965,4.7522,4.7902,4.8194,4.8498,4.8875,4.8954,4.875,4.8225,4.7803,4.7539,4.7539,4.7721,4.7819,4.7819,4.8258,4.8547,4.8593,4.8673,4.8767,4.8906,4.8998,4.9152,4.9394,4.935,4.9441,4.9649,4.959,4.9649,4.972,4.9649,4.9649,4.7673,4.7385,4.6847,4.6167,4.5606,4.516,4.5081,4.5636,4.6028,4.5775,0.0,4.7228,4.73,4.5755,4.4465,4.4534,0.0,4.1881,4.2393,4.2652,4.3062,4.3673,4.4218,4.445,4.4172,4.4194,4.3749,4.2713,4.2237,4.1622,4.0755,4.0787,4.0716,4.0558,4.0759,4.0816,4.0816,4.1015,4.1128,4.117,4.117,4.1423,4.1813,4.1813,4.1563,4.1131,0.0,0.0,4.0224,4.1109,4.1626,4.1863,4.2718,4.3195,4.3409,4.3551,4.366,4.3729,4.3684,4.3996,4.4281,4.391,4.4065,4.4435,4.4625,4.4701,4.4852,4.5426,4.5708,4.5985,4.6807,4.7218,4.7404,4.7237,4.7471,4.7538,4.6846,4.6983,4.7321,4.7505,4.7951,4.8388,4.8688,4.8892,4.9124,4.9458,4.9518,4.9518,4.9518,4.8984,4.8642,4.8642,4.8642,4.8642,4.8642,4.8642,4.8688,4.8796,4.8954,4.9138,4.929,4.9471,4.9619,4.9796,4.9679,4.9796,5.0189,4.9913,4.9971,5.0313,4.9813,4.9619,4.6729,4.64,4.5965,4.5691,4.5085,4.4693,4.527,4.5881,0.0,0.0,4.7324,4.7688,4.7433,4.6777,4.6253,4.6251,4.571,4.4934,4.3995,0.0,4.3565,0.0,0.0,0.0,0.0,0.0,0.0,0.0,0.0,4.2411,4.0958,4.1126,4.1339,4.1451,4.1493,4.1535,4.1535,4.1563,4.1785,4.2172,4.2172,4.2295,4.2526,4.2526,4.2093,4.1357,0.0,0.0,4.0416,4.1527,4.2065,4.2265,4.2991,4.3503,4.3856,4.3684,4.3762,4.3988,4.4127,4.4343,4.4511,4.4281,4.4473,4.4836,4.5017,4.5204,4.5463,4.5997,4.6301,4.6617,4.7354,4.7605,4.7655,4.7737,4.7819,4.7836,4.7688,4.7836,4.8065,4.8275,4.8532,4.8769,4.8909,4.9077,4.9229,4.9458,4.9518,4.9518,4.9518,4.9398,4.932,4.932,4.932,4.932,4.932,4.932,4.9337,4.935,4.9381,4.953,4.975,4.9808,4.9953,5.0257,5.0274,5.0246,5.0189,5.0132,5.0057,4.9999,4.9947,4.9889,4.631,4.564,4.4966,4.4416,4.3976,4.3955,4.4896,0.0,0.0,0.0,4.7899,4.8339,4.7918,4.7052,0.0,4.6178,4.5367,4.4519,4.3733,0.0,0.0,0.0,0.0,0.0,0.0,0.0,0.0,0.0,0.0,4.2582,4.1237,4.1426,4.1577,4.1688,4.1592,4.17,4.2034,4.1823,4.2026,4.2729,4.2729,4.2809,4.301,4.301,4.2357,4.1283,4.1818,0.0,4.0354,4.1826,4.2584,4.2908,4.3674,4.4112,4.432,4.4381,4.4381,4.4358,4.4761,4.4986,4.5098,4.529,4.5268,4.5262,4.5541,4.5672,4.5889,4.6531,4.6775,4.7032,4.7638,4.7886,4.7984,4.8162,4.829,4.8403,4.845,4.8562,4.8625,4.8736,4.8846,4.8956,4.9094,4.9168,4.929,4.956,4.9649,4.9737,4.9872,4.993,4.9884,4.9619,4.959,4.959,4.959,4.959,4.9619,4.9708,4.9796,4.9942,5.0143,5.0171,5.0285,5.0492,5.0425,5.0499,5.0682,5.0564,5.0464,5.038,5.0246,5.0328,4.6393,4.539,4.445,4.3673,4.3426,4.3629,4.466,4.5701,0.0,4.7362,4.829,4.8846,4.8356,4.7322,4.6429,0.0,4.5086,4.4137,4.3563,0.0,0.0,0.0,0.0,0.0,0.0,0.0,0.0,0.0,0.0,0.0,4.1592,4.1545,4.1583,4.1625,4.1383,4.1609,4.2294,4.1768,4.2026,4.3061,4.2887,4.2981,4.329,4.318,4.2414,4.1201,4.1773,0.0,0.0,4.1927,4.2917,4.3547,4.4416,4.4858,4.5008,4.5336,4.5262,4.5046,4.5562,4.5744,4.5853,4.6321,4.614,4.5812,4.6108,4.6304,4.6464,4.7101,4.7304,4.7439,4.7967,4.8178,4.8324,4.8547,4.8815,4.9001,4.9094,4.9124,4.9155,4.9124,4.9094,4.9155,4.929,4.932,4.9411,4.9649,4.9796,4.9924,5.0114,5.0274,5.0228,4.9942,4.9884,4.9854,4.9854,4.9854,4.9913,5.004,5.02,5.0387,5.0554,5.0554,5.062,5.0739,5.0647,5.0774,5.1132,5.0963,5.0847,5.0865,5.0711,5.0801,4.6972,4.6071,4.4984,4.4707,4.4444,4.4461,4.5233,0.0,4.7114,4.7746,4.8477,4.8909,4.8547,4.7984,4.76,4.7683,4.7265,4.6444,4.4932,0.0,0.0,0.0,0.0,0.0,0.0,0.0,0.0,0.0,0.0,0.0,4.1966,4.1456,4.1233,4.1434,4.1003,4.1155,4.2026,4.1209,4.1622,4.3275,4.248,4.2495,4.3275,4.2857,4.2196,4.1354,0.0,0.0,0.0,4.1671,4.2848,4.4113,4.4989,4.566,4.6159,4.6195,4.6195,4.6195,4.6407,4.6566,4.6724,4.6931,4.6775,4.6547,4.6913,4.7221,4.7506,4.7754,4.7951,4.8194,4.8595,4.8595,4.8547,4.8877,4.929,4.959,4.9488,4.953,4.959,4.9488,4.9458,4.9518,4.9619,4.9649,4.9679,4.9708,4.9708,4.9767,4.9895,5.0086,5.0285,5.0492,5.0425,5.0359,5.0359,5.0359,5.0397,5.053,5.0557,5.0702,5.1025,5.1025,5.1088,5.1228,5.1228,5.1246,5.1272,5.1141,5.1079,5.107,5.1308,5.1344,4.6943,4.5897,4.4608,4.409,4.4041,4.4452,4.5706,0.0,4.7149,4.8562,4.8995,4.8984,4.8578,4.8324,4.7852,4.6869,4.6373,4.5707,4.4595,0.0,0.0,0.0,0.0,0.0,0.0,0.0,0.0,0.0,0.0,0.0,4.2162,4.1838,4.1499,4.1224,4.0751,4.0873,4.1628,4.0873,4.106,4.2162,4.2436,4.2513,4.2331,4.2834,4.2363,4.1273,0.0,0.0,0.0,4.2846,4.3923,4.4952,4.5645,4.6179,4.6512,4.6633,4.6582,4.6512,4.6842,4.6823,4.6732,4.7507,4.7538,4.737,4.7671,4.7869,4.8032,4.8467,4.8467,4.8452,4.8738,4.8801,4.8829,4.897,4.9307,4.956,4.9518,4.9607,4.9679,4.9619,4.9679,4.9737,4.9708,4.9708,4.9708,4.9708,4.9767,4.9895,5.0171,5.0324,5.0537,5.0747,5.0554,5.0453,5.063,5.0575,5.0575,5.0694,5.0901,5.1043,5.1105,5.1185,5.1246,5.1298,5.1298,5.135,5.1428,5.135,5.1494,5.1775,5.1866,5.2263,4.7001,4.6025,4.4756,4.4204,4.4315,4.4906,0.0,0.0,4.7475,4.9095,4.929,4.9077,4.8642,4.8547,4.7945,4.6223,4.5656,4.5109,4.4225,4.3799,0.0,0.0,0.0,0.0,0.0,0.0,0.0,0.0,0.0,0.0,0.0,4.2523,4.2114,4.0979,4.0457,4.0628,4.1573,4.0912,4.1054,4.1972,4.2485,4.2364,4.1776,4.2443,4.2178,4.1183,0.0,0.0,0.0,4.3593,4.4744,4.5733,4.6375,4.6825,4.71,4.7218,4.7252,4.7202,4.7504,4.7424,4.732,4.8155,4.8397,4.8352,4.8565,4.8623,4.8702,4.8923,4.8861,4.8736,4.8877,4.9032,4.9155,4.9155,4.9398,4.9619,4.9679,4.9796,4.9913,4.9953,5.0011,5.004,5.004,4.9982,4.9953,4.9953,5.0011,5.0171,5.0425,5.0547,5.0712,5.0981,5.0774,5.0692,5.0865,5.0874,5.0928,5.1061,5.1315,5.1428,5.1272,5.1376,5.141,5.141,5.141,5.1462,5.1556,5.1556,5.1818,5.2252,5.2445,5.3201,4.7359,4.6765,4.5748,4.561,4.5814,4.6307,0.0,4.7744,4.8294,4.9046,4.9199,4.9107,4.8832,4.8627,4.7961,4.6372,4.5943,4.5403,4.4261,0.0,0.0,0.0,0.0,0.0,0.0,0.0,0.0,0.0,0.0,0.0,0.0,4.3614,4.3004,4.0685,4.0007,4.0453,4.1984,4.1331,4.1775,4.3257,4.243,4.1984,4.1871,4.1633,4.1321,0.0,0.0,0.0,0.0,4.3551,4.4915,4.6356,4.7084,4.7721,4.8195,4.8195,4.8324,4.8483,4.8483,4.8627,4.8801,4.894,4.9199,4.95,4.9649,4.9679,4.959,4.9124,4.9077,4.9199,4.9199,4.935,4.9488,4.9488,4.9708,4.9971,5.016,5.0302,5.0425,5.0557,5.0464,5.0481,5.0739,5.0667,5.0585,5.0585,5.0481,5.0453,5.0585,5.0585,5.0766,5.1255,5.1167,5.1079,5.1105,5.1342,5.1556,5.169,5.1833,5.1833,5.169,5.169,5.169,5.169,5.169,5.169,5.169,5.169,5.193,5.2422,5.3082,5.4141,4.6819,4.6394,4.5586,4.4935,4.5307,4.597,4.6511,4.6821,4.728,4.8235,4.7967,4.7708,4.8125,4.8118,4.7725,4.6601,4.6291,4.5781,0.0,0.0,0.0,0.0,0.0,0.0,0.0,0.0,0.0,0.0,0.0,0.0,0.0,4.3813,4.3149,4.165,4.1648,4.1536,4.117,4.1184,4.1255,4.1387,4.1937,4.1938,4.1522,4.2268,0.0,0.0,0.0,0.0,0.0,4.4584,4.5141,4.5794,4.6897,4.7162,4.6953,4.7469,4.7429,4.7231,4.7718,4.7794,4.7886,4.8997,4.9188,4.9125,4.967,4.975,4.9679,4.953,4.9573,4.9661,4.9661,4.9825,5.0017,5.0086,5.0171,5.0313,5.0547,5.0575,5.0575,5.0694,5.0811,5.0855,5.082,5.0865,5.0909,5.0766,5.0712,5.0757,5.0909,5.0936,5.1017,5.1255,5.135,5.1402,5.1487,5.1428,5.1479,5.169,5.1833,5.1882,5.1833,5.1833,5.1833,5.1833,5.1758,5.169,5.169,5.169,5.2266,5.3353,5.4032,5.4613,4.6746,4.6468,4.5974,4.5338,4.5663,4.6149,4.6348,4.6527,4.6828,4.7314,4.6984,4.6726,4.7137,4.7116,4.6753,4.5904,4.5911,4.5636,0.0,0.0,0.0,0.0,0.0,0.0,0.0,0.0,0.0,0.0,0.0,0.0,0.0,0.0,4.3786,4.2902,4.2717,4.2252,4.1565,4.1831,4.1797,4.1479,4.2241,4.2252,4.1637,4.246,0.0,0.0,0.0,0.0,0.0,4.4964,4.5369,4.5685,4.6693,4.6858,4.6615,4.71,4.7085,4.6958,4.7704,4.7931,4.8089,4.9342,4.9602,4.9509,5.0016,5.0057,4.9884,4.9942,5.0068,5.0165,5.0165,5.0296,5.0481,5.0637,5.0665,5.0719,5.0946,5.0955,5.0982,5.1114,5.1255,5.1307,5.1297,5.1359,5.1376,5.1297,5.1245,5.1263,5.1376,5.1402,5.1454,5.1589,5.1683,5.1783,5.1907,5.1665,5.164,5.1914,5.2005,5.2054,5.2018,5.1987,5.198,5.198,5.1889,5.1815,5.1783,5.2001,5.2753,5.3975,5.4795,5.5366,0.0,4.6903,4.6756,4.6544,4.6684,4.6824,4.6591,4.6752,0.0,4.6344,4.62,4.617,4.6168,4.5808,4.5309,4.4731,4.5069,0.0,0.0,0.0,0.0,0.0,0.0,0.0,0.0,0.0,0.0,0.0,0.0,0.0,0.0,0.0,4.4788,4.4258,4.3281,4.2787,4.2823,4.3035,4.3133,4.3085,4.3102,4.2799,4.2174,4.2429,0.0,0.0,0.0,0.0,0.0,4.489,4.5533,4.5896,4.649,4.6767,4.6878,4.6929,4.7147,4.7488,4.8278,4.8797,4.9188,4.9985,5.0331,5.0453,5.0575,5.0436,5.0274,5.0415,5.0564,5.064,5.064,5.0721,5.0874,5.1088,5.1132,5.1185,5.1307,5.1454,5.1556,5.169,5.1715,5.1815,5.2054,5.2005,5.1956,5.2084,5.2005,5.1932,5.1932,5.1932,5.198,5.2108,5.2126,5.2174,5.2311,5.2078,5.2029,5.2298,5.2317,5.2322,5.2278,5.2215,5.218,5.218,5.2156,5.212,5.2052,5.262,5.3389,5.4366,5.535,5.6321,4.7031,0.0,4.6886,4.6574,4.7089,4.7466,0.0,4.6786,4.6663,4.5988,4.5264,4.5168,4.6536,4.5518,4.5042,4.6774,4.6525,4.5799,0.0,0.0,0.0,0.0,0.0,0.0,0.0,0.0,0.0,0.0,0.0,0.0,0.0,0.0,4.5012,4.4585,4.4335,4.3822,4.3033,4.3442,4.3331,4.2718,4.325,4.326,4.2881,4.3651,0.0,0.0,0.0,0.0,4.5707,4.5589,4.55,4.5518,4.6243,4.6169,4.5696,4.6361,4.683,4.7202,4.7956,4.8816,4.9642,5.0285,5.0702,5.09,5.0793,5.0712,5.0684,5.09,5.1017,5.1149,5.1149,5.1176,5.1255,5.1487,5.1479,5.1505,5.1858,5.1858,5.1858,5.198,5.2029,5.2029,5.2102,5.2078,5.2102,5.2228,5.2228,5.2228,5.2262,5.2286,5.2286,5.2333,5.228,5.2322,5.2518,5.2251,5.2204,5.2518,5.2627,5.2783,5.303,5.2972,5.2929,5.286,5.2773,5.2971,5.3499,5.3653,5.4422,5.5728,5.5976,5.6551,4.801,4.7412,4.6857,4.668,4.6777,4.6786,4.6467,4.614,4.584,4.5698,4.4872,4.4572,4.5925,4.5177,4.4779,4.6047,4.6346,0.0,0.0,0.0,0.0,0.0,0.0,0.0,0.0,0.0,0.0,0.0,0.0,0.0,0.0,0.0,4.4591,4.4523,4.4595,4.4277,4.3582,4.3853,4.3792,4.3279,4.3785,4.3902,4.3667,4.4248,0.0,0.0,0.0,0.0,4.6021,4.5785,4.5641,4.5552,4.5992,4.59,4.5598,4.649,4.6969,4.7351,4.8513,4.9583,5.0506,5.0885,5.1149,5.1272,5.1237,5.1263,5.1289,5.122,5.1298,5.1402,5.1479,5.1531,5.1632,5.184,5.1833,5.1858,5.2132,5.2174,5.2198,5.2304,5.2421,5.2513,5.2513,5.254,5.2568,5.2676,5.2649,5.2627,5.2676,5.2631,5.2631,5.2707,5.2654,5.2862,5.3412,5.3267,5.3076,5.2937,5.2965,5.3237,5.3813,5.3445,5.3201,5.3117,5.3008,5.3324,5.4085,5.4147,5.497,5.6492,5.6584,5.7093,4.9246,4.8209,4.7166,4.6989,4.6469,4.602,4.588,4.5478,4.5179,4.5422,4.4911,4.467,0.0,4.5033,0.0,0.0,0.0,0.0,0.0,0.0,0.0,0.0,0.0,0.0,0.0,0.0,0.0,0.0,0.0,0.0,0.0,0.0,0.0,4.4367,4.4491,4.4463,4.427,4.4367,4.4338,4.4167,4.4435,4.4519,4.4378,4.4586,4.4862,0.0,0.0,0.0,4.576,4.5727,4.577,4.5795,4.5846,4.5941,4.6158,4.6974,4.7538,4.8068,4.9657,5.074,5.1428,5.1531,5.1582,5.1607,5.169,5.1815,5.1858,5.1538,5.1531,5.1607,5.1715,5.1858,5.2005,5.2126,5.2156,5.2204,5.2345,5.2485,5.2599,5.2676,5.2897,5.3066,5.3066,5.3115,5.3159,5.3162,5.3133,5.3088,5.3109,5.3023,5.3027,5.318,5.3243,5.3653,5.4525,5.4686,5.4446,5.3867,5.3713,5.3933,5.4585,5.3976,5.3547,5.3447,5.3511,5.3946,5.4755,5.4859,5.5675,5.7125,5.7359,5.7833,4.9779,4.9419,4.8843,4.7747,4.7511,4.7259,4.602,4.6121,4.6196,4.5156,4.5693,0.0,0.0,4.5551,4.5199,0.0,0.0,0.0,0.0,0.0,0.0,0.0,0.0,0.0,0.0,0.0,0.0,0.0,0.0,0.0,0.0,0.0,0.0,4.472,4.4748,4.4841,4.5015,4.4951,4.4742,4.4418,4.4769,4.4824,4.4652,4.5196,4.5674,0.0,0.0,4.5887,4.6398,4.5735,4.5615,4.5821,4.6055,4.6558,4.7197,4.7587,4.8625,5.0016,5.1191,5.1676,5.1808,5.1833,5.1907,5.2005,5.1907,5.1956,5.2078,5.2132,5.2084,5.2011,5.2036,5.2132,5.2275,5.241,5.2467,5.2563,5.2694,5.2875,5.3011,5.3033,5.3182,5.3326,5.3326,5.3346,5.3387,5.3505,5.3505,5.3543,5.3659,5.3659,5.3659,5.3698,5.4194,5.4677,5.5059,5.571,5.6123,5.6164,5.5837,5.5498,5.5174,5.5063,5.4988,5.4969,5.5734,5.6499,5.7261,5.728,5.7723,5.8591,5.8611,5.8706,4.9993,4.9971,4.9595,4.8426,4.8154,4.7928,4.6994,4.6641,4.6413,4.5966,0.0,0.0,0.0,0.0,4.6493,0.0,0.0,0.0,0.0,0.0,0.0,0.0,0.0,0.0,0.0,0.0,0.0,0.0,0.0,0.0,0.0,0.0,0.0,0.0,4.5059,4.5194,4.5537,4.538,4.5203,4.4998,4.522,4.5283,4.5196,4.5546,4.5988,4.6435,0.0,4.6186,4.6772,4.6186,4.6055,4.6253,4.6374,4.6916,4.7752,4.8837,5.0113,5.1339,5.1855,5.2005,5.2005,5.2005,5.218,5.2374,5.2304,5.2449,5.2658,5.2702,5.2472,5.2228,5.2351,5.2421,5.2518,5.2765,5.2835,5.2926,5.3178,5.3345,5.3427,5.3464,5.3641,5.3776,5.3681,5.3738,5.3962,5.4541,5.4578,5.4727,5.5287,5.5267,5.5248,5.5398,5.5622,5.607,5.6761,5.7136,5.7173,5.6834,5.6948,5.674,5.6089,5.6369,5.6369,5.6015,5.6426,5.7043,5.7808,5.7808,5.8199,5.8942,5.8942,5.8942,5.0269,5.022,4.991,4.9194,4.8741,4.8288,4.7761,4.7052,4.6543,4.6721,0.0,0.0,0.0,4.7303,0.0,0.0,0.0,0.0,0.0,0.0,0.0,0.0,0.0,0.0,0.0,0.0,0.0,0.0,0.0,0.0,0.0,0.0,0.0,0.0,4.5363,4.552,4.5897,4.577,4.5641,4.5494,4.5641,4.5701,4.5735,4.5879,4.6253,4.6737,4.6381,4.6548,4.7048,4.6684,4.6566,4.6613,4.6661,4.7358,4.8502,5.0301,5.1503,5.2228,5.2298,5.2322,5.2322,5.2327,5.2518,5.2725,5.2747,5.2944,5.3159,5.3201,5.2904,5.2631,5.2743,5.2813,5.2904,5.3159,5.3244,5.3365,5.3623,5.3758,5.387,5.3907,5.4091,5.4272,5.4351,5.4442,5.4831,5.5744,5.5635,5.5767,5.6682,5.6481,5.6425,5.6827,5.6964,5.7433,5.8438,5.8478,5.818,5.7578,5.7753,5.7604,5.706,5.7472,5.7472,5.6986,5.7174,5.7604,5.8222,5.8222,5.854,5.914,5.914,5.914,5.0803,5.0275,4.9827,5.0182,4.9406,4.8398,4.7687,4.7323,4.7027,4.669,0.0,0.0,0.0,4.8087,0.0,0.0,0.0,0.0,0.0,0.0,0.0,0.0,0.0,0.0,0.0,0.0,0.0,0.0,0.0,0.0,0.0,0.0,0.0,0.0,0.0,4.5879,4.6161,4.6038,4.5905,4.577,4.5905,4.6038,4.6161,4.6284,4.669,4.7254,4.7007,4.7053,4.7258,4.7048,4.6819,4.6613,4.6865,4.8115,4.9983,5.1783,5.249,5.2608,5.285,5.2934,5.2937,5.3008,5.3054,5.3096,5.3217,5.3258,5.332,5.3524,5.3525,5.3484,5.33,5.3383,5.3525,5.3545,5.37,5.3851,5.387,5.4089,5.4264,5.4264,5.4489,5.4886,5.5624,5.5755,5.6055,5.6847,5.6338,5.6149,5.696,5.6413,5.6227,5.6995,5.7788,5.8599,5.9428,5.9504,5.9467,5.941,5.8573,5.8051,5.7995,5.8033,5.8069,5.8082,5.8891,5.936,5.9469,5.9469,5.9488,5.9544,5.9544,5.9544,5.1225,5.1154,5.0935,5.0911,5.0197,4.9379,4.8874,4.8231,4.7605,4.7073,4.7134,0.0,0.0,0.0,0.0,0.0,0.0,0.0,0.0,0.0,0.0,0.0,0.0,0.0,0.0,0.0,0.0,0.0,0.0,0.0,0.0,0.0,0.0,0.0,0.0,4.5922,4.6196,4.6137,4.6186,4.6301,4.6259,4.6308,4.6471,4.6495,4.6852,4.7407,4.7165,4.7323,4.7726,4.7511,4.7399,4.7405,4.8532,4.98,5.1104,5.2386,5.2875,5.2926,5.303,5.3112,5.3193,5.3217,5.3381,5.3542,5.36,5.3717,5.3832,5.3944,5.4017,5.4018,5.3698,5.3678,5.3775,5.3926,5.4035,5.4125,5.4354,5.4505,5.4603,5.4554,5.5069,5.5602,5.592,5.6328,5.6951,5.7897,5.7762,5.7892,5.8789,5.8589,5.8549,5.891,5.9267,5.9589,5.9877,5.9912,5.9912,5.9912,5.9364,5.9055,5.9089,5.9089,5.9106,5.9141,5.9532,5.9719,5.9647,5.9753,5.9786,5.9786,5.9786,5.9786,5.1497,5.1383,5.0994,5.0982,5.0391,4.9844,4.9828,4.8785,4.7814,4.7699,4.7428,4.734,4.7807,0.0,0.0,0.0,0.0,0.0,0.0,0.0,0.0,0.0,0.0,0.0,0.0,0.0,0.0,0.0,0.0,0.0,0.0,0.0,0.0,0.0,0.0,4.6179,4.6495,4.6483,4.6643,4.6939,4.6852,4.6847,4.6893,4.6939,4.7209,4.7642,4.7496,4.7666,4.7992,4.7929,4.8031,4.8411,5.0101,5.1198,5.193,5.2879,5.3279,5.3365,5.3383,5.3444,5.3562,5.3582,5.3737,5.3944,5.4,5.4127,5.4232,5.4337,5.4441,5.4458,5.418,5.4091,5.4127,5.432,5.4386,5.447,5.4702,5.5053,5.5303,5.5257,5.5916,5.6588,5.6869,5.7337,5.7999,5.8925,5.8865,5.9029,5.9912,5.977,5.9728,6.0064,6.0099,6.0099,6.0099,6.0099,6.0099,6.0099,5.988,5.9784,5.9831,5.9798,5.9798,5.9831,5.9899,5.9899,5.9864,5.9963,6.001,6.0026,6.0026,6.0026,5.1484,5.0701,4.9674,5.0323,4.9906,4.9513,5.0316,4.8856,4.7563,4.8489,4.8091,4.74,4.6749,0.0,0.0,0.0,0.0,0.0,0.0,0.0,0.0,0.0,0.0,0.0,0.0,0.0,0.0,0.0,0.0,0.0,0.0,0.0,0.0,0.0,0.0,0.0,4.7107,4.7107,4.7302,4.7717,4.7699,4.7636,4.7511,4.7636,4.7824,4.8012,4.8148,4.8128,4.8032,4.8229,4.8743,4.9581,5.1334,5.2141,5.243,5.336,5.3793,5.3907,5.3963,5.4055,5.4108,5.4179,5.4197,5.4249,5.4437,5.4486,5.4538,5.4673,5.4755,5.4799,5.4799,5.4752,5.4689,5.4708,5.4814,5.4901,5.4901,5.5698,5.6388,5.6388,5.7054,5.7891,5.8748,5.8919,5.9185,5.9985,5.9414,5.9204,6.0004,5.9414,5.9223,6.0023,6.0099,6.0099,6.0099,6.0099,6.0099,6.0099,6.0099,6.0099,6.0099,6.0041,6.0041,6.0099,6.0041,6.0072,6.0203,6.0203,6.0242,6.0293,6.0293,6.0293,5.0695,5.0438,5.0041,5.0177,4.9982,0.0,0.0,4.8853,0.0,0.0,4.7547,4.7193,4.7706,0.0,0.0,0.0,0.0,0.0,0.0,0.0,0.0,0.0,0.0,0.0,0.0,0.0,0.0,0.0,0.0,0.0,0.0,0.0,0.0,0.0,0.0,0.0,4.7236,4.7323,4.7496,4.777,4.787,4.7806,4.7636,4.7678,4.7866,4.813,4.8187,4.8286,4.8494,4.9215,4.9991,5.0861,5.2029,5.2884,5.3479,5.3907,5.4091,5.4126,5.4234,5.4339,5.4369,5.4403,5.4472,5.4573,5.467,5.4702,5.4733,5.4871,5.4931,5.4956,5.5071,5.5066,5.5023,5.4927,5.4927,5.4985,5.5042,5.5751,5.6388,5.6388,5.753,5.861,5.893,5.9401,5.9862,6.0246,6.0122,6.006,6.0332,6.0215,6.0171,6.0365,6.0425,6.0453,6.0453,6.0453,6.0453,6.0453,6.0453,6.0384,6.0264,6.0216,6.0245,6.0299,6.0342,6.037,6.0412,6.0466,6.0493,6.05,6.05,6.05,5.0274,5.0162,4.9843,4.9859,4.9755,4.9561,4.9231,0.0,0.0,0.0,0.0,4.7657,0.0,0.0,0.0,0.0,0.0,0.0,0.0,0.0,0.0,0.0,0.0,0.0,0.0,0.0,0.0,0.0,0.0,0.0,0.0,0.0,0.0,0.0,0.0,0.0,4.7663,4.7744,4.7891,4.8134,4.821,4.8209,4.813,4.8048,4.8168,4.8438,4.8457,4.8624,4.8911,4.9816,5.0501,5.1112,5.2374,5.3191,5.3713,5.4119,5.4337,5.4405,5.4441,5.4524,5.4619,5.4651,5.4733,5.4826,5.4901,5.4916,5.4927,5.5038,5.5094,5.5211,5.5688,5.5556,5.5294,5.5149,5.5402,5.569,5.5731,5.6687,5.754,5.754,5.8648,5.9597,5.9633,5.9993,6.0337,6.0472,6.0485,6.0499,6.0539,6.0578,6.0578,6.0539,6.0578,6.0604,6.0604,6.0604,6.0604,6.0604,6.0604,6.0539,6.0422,6.0422,6.045,6.0472,6.0525,6.0552,6.0591,6.0629,6.0655,6.068,6.068,6.068,5.0039,4.9854,4.9232,4.9386,4.9363,0.0,4.8377,4.9077,4.9639,4.88,0.0,0.0,0.0,0.0,0.0,0.0,0.0,0.0,0.0,0.0,0.0,0.0,0.0,0.0,0.0,0.0,0.0,0.0,0.0,0.0,0.0,0.0,0.0,0.0,0.0,0.0,4.8226,4.8246,4.8382,0.0,4.8623,4.8696,4.8822,4.8624,4.8624,4.8822,4.8909,4.9046,4.9286,5.0172,5.0523,5.0708,5.2459,5.3217,5.3411,5.4082,5.4463,5.4591,5.4474,5.4572,5.4735,5.4882,5.4956,5.5028,5.5094,5.5121,5.5154,5.5292,5.5339,5.5543,5.6556,5.6189,5.5511,5.5466,5.6091,5.6703,5.6703,5.8074,5.93,5.93,5.999,6.0604,6.0604,6.0604,6.0604,6.0604,6.0617,6.0617,6.0629,6.0629,6.0629,6.0629,6.0706,6.0706,6.0629,6.0706,6.0706,6.0629,6.0629,6.0629,6.0642,6.0693,6.0719,6.0732,6.0808,6.0878,6.0952,6.0875,6.0861,6.0939,6.0862,6.0823,4.9067,4.8863,4.8544,4.8676,4.9038,4.9464,4.9818,4.9734,4.9277,4.8208,0.0,0.0,0.0,0.0,0.0,0.0,0.0,0.0,0.0,0.0,0.0,0.0,0.0,0.0,0.0,0.0,0.0,0.0,0.0,0.0,0.0,0.0,0.0,0.0,0.0,4.84,4.8495,4.8624,4.8733,0.0,4.8838,4.8925,4.9115,4.8857,4.8804,4.8976,4.9144,4.9257,4.9443,5.0347,5.0767,5.0979,5.2686,5.3374,5.3471,5.3687,5.3834,5.3921,5.4003,5.405,5.4192,5.4848,5.5085,5.5094,5.5216,5.5255,5.5415,5.6243,5.5974,5.5844,5.7457,5.6767,5.5844,5.6538,5.6756,5.6776,5.6776,5.8111,5.93,5.93,5.999,6.0604,6.0604,6.0604,6.0617,6.066,6.071,6.0777,6.0823,6.0788,6.08,6.0911,6.1474,6.1586,6.0893,6.147,6.1566,6.0893,6.0835,6.0846,6.0911,6.137,6.1672,6.1784,6.2399,6.2786,6.2902,6.2208,6.188,6.1872,6.1255,6.0955,4.9012,4.9186,4.9341,4.9361,0.0,4.9768,4.9748,4.9749,4.9528,0.0,0.0,0.0,0.0,0.0,0.0,0.0,0.0,0.0,0.0,0.0,0.0,0.0,0.0,0.0,0.0,0.0,0.0,0.0,0.0,0.0,0.0,0.0,0.0,0.0,4.8606,4.8679,4.875,4.8838,4.8943,4.9046,4.9079,4.9195,4.939,4.9096,4.9061,4.919,4.9305,4.9415,4.9574,5.0101,5.0344,5.0601,5.2294,5.2769,5.2651,5.3893,5.4139,5.3914,5.44,5.4586,5.4689,5.5109,5.5268,5.5288,5.5383,5.5682,5.6052,5.6199,5.6203,5.6399,5.7401,5.6725,5.6083,5.7406,5.7621,5.7524,5.7558,5.8858,6.0037,6.0104,6.0438,6.0753,6.0788,6.0765,6.0753,6.08,6.0823,6.0869,6.0944,6.0922,6.1068,6.1527,6.196,6.2015,6.1552,6.1938,6.1841,6.1012,6.0944,6.0965,6.0987,6.1666,6.1901,6.1585,6.1989,6.2224,6.229,6.2243,6.2011,6.1615,6.1595,6.1364,4.9352,4.9843,5.0268,5.0104,5.0034,0.0,4.9159,4.9463,4.9725,0.0,0.0,0.0,0.0,0.0,0.0,0.0,0.0,0.0,0.0,0.0,0.0,0.0,0.0,0.0,0.0,0.0,0.0,0.0,0.0,0.0,0.0,0.0,4.8786,4.866,4.8768,4.8856,4.896,4.9027,4.9127,4.9228,4.9324,4.9449,4.9623,4.939,4.9355,4.9446,4.9461,4.957,4.975,4.9807,4.9871,5.0123,5.1847,5.2161,5.1916,5.4173,5.4613,5.4148,5.4881,5.516,5.5229,5.5363,5.5456,5.5504,5.5516,5.6026,5.6498,5.598,5.6368,5.7005,5.7412,5.6895,5.6646,5.8258,5.8604,5.8573,5.8614,5.9785,6.0858,6.0976,6.107,6.1136,6.1199,6.1167,6.1114,6.1114,6.0999,6.0944,6.0978,6.0997,6.1306,6.2148,6.236,6.2446,6.2446,6.2457,6.2109,6.1288,6.1106,6.1039,6.1049,6.1686,6.1725,6.1049,6.1318,6.1473,6.1464,6.1995,6.1909,6.1261,6.1793,6.1696,4.9688,4.9646,4.9471,0.0,4.9075,4.9055,0.0,0.0,4.9091,0.0,0.0,0.0,0.0,0.0,0.0,0.0,0.0,0.0,0.0,0.0,0.0,0.0,0.0,0.0,0.0,0.0,0.0,0.0,0.0,0.0,0.0,4.8942,4.8942,4.8855,4.8942,4.9027,4.9146,4.9289,4.9368,4.9384,4.9555,4.9663,4.9678,4.9648,4.9648,4.9663,4.9717,4.9788,4.9885,4.9952,5.0018,5.0253,5.1921,5.2603,5.2742,5.3843,5.4242,5.4292,5.4388,5.4438,5.4553,5.5262,5.5492,5.5516,5.5573,5.5662,5.5903,5.6604,5.6896,5.7349,5.8866,5.8669,5.8316,5.936,5.9621,5.9582,5.9541,6.0292,6.0976,6.1006,6.1557,6.2039,6.2039,6.2039,6.2039,6.2039,6.143,6.0989,6.1001,6.1009,6.1357,6.2269,6.3012,6.3406,6.3406,6.3477,6.3129,6.2279,6.1562,6.1201,6.1264,6.1361,6.1361,6.1264,6.2626,6.3342,6.3351,6.2749,6.2398,6.2282,6.169,6.1361,5.0497,5.0239,4.9948,0.0,5.0103,4.9574,4.9962,0.0,0.0,0.0,0.0,0.0,0.0,0.0,0.0,0.0,0.0,0.0,0.0,0.0,0.0,0.0,0.0,0.0,0.0,0.0,0.0,0.0,0.0,4.9144,4.9079,4.9127,4.9127,4.9062,4.9176,4.9257,4.9305,4.9495,4.9585,4.963,4.9702,4.9778,4.9816,4.9843,4.9835,4.9764,4.9816,4.9898,4.9965,5.0031,5.0095,5.0322,5.2037,5.2494,5.2418,5.4269,5.4714,5.4485,5.4959,5.5143,5.5201,5.5547,5.564,5.5618,5.5703,5.6041,5.6436,5.6393,5.7068,5.785,5.8181,5.8365,5.8684,5.963,5.9852,5.9959,6.0384,6.0749,6.1132,6.1637,6.2035,6.2451,6.2903,6.298,6.299,6.3021,6.2742,6.2346,6.1901,6.2278,6.2713,6.309,6.3912,6.4444,6.4444,6.4471,6.413,6.3296,6.2912,6.2746,6.2811,6.2811,6.2811,6.2811,6.2499,6.2351,6.2358,6.2452,6.2267,6.1821,6.1937,6.1724,5.0924,5.0621,5.0412,5.1426,5.0811,5.0077,0.0,0.0,0.0,0.0,0.0,0.0,0.0,0.0,0.0,0.0,0.0,0.0,0.0,0.0,0.0,0.0,0.0,0.0,0.0,0.0,0.0,0.0,0.0,4.9324,4.9228,4.9324,4.934,4.926,4.9402,4.9476,4.9506,4.9688,4.9821,4.989,4.989,4.9898,4.9946,5.0005,4.9978,4.989,4.9925,5.0005,5.0038,5.0108,5.0163,5.0419,5.2148,5.2506,5.2357,5.474,5.5297,5.4927,5.5594,5.5826,5.5826,5.5826,5.5787,5.5756,5.5816,5.6289,5.6674,5.6078,5.711,5.8268,5.767,5.8327,5.9321,6.0026,6.019,6.0364,6.0963,6.1224,6.1551,6.219,6.2713,6.3255,6.3854,6.395,6.3989,6.4058,6.3874,6.3419,6.2622,6.3258,6.3789,6.3726,6.4545,6.5192,6.5405,6.5261,6.4885,6.4291,6.4056,6.3975,6.4027,6.4033,6.4033,6.4027,6.2709,6.1892,6.1663,6.2284,6.2156,6.1361,6.1962,6.1923,5.0472,5.0369,0.0,5.0309,5.0201,0.0,0.0,0.0,0.0,0.0,0.0,0.0,0.0,0.0,0.0,0.0,0.0,0.0,0.0,0.0,0.0,0.0,0.0,0.0,0.0,0.0,0.0,0.0,0.0,4.9498,4.9308,4.9483,4.951,4.9399,4.9585,4.9721,4.9778,4.9912,5.0018,5.0082,5.0082,5.0082,5.0095,5.0095,5.0095,5.0082,5.0095,5.0133,5.0188,5.0188,5.0278,5.0573,5.225,5.2943,5.3245,5.5047,5.5696,5.5758,5.5856,5.5895,5.5895,5.5895,5.5895,5.5895,5.5895,5.5933,5.5953,5.5914,5.711,5.8403,5.8423,5.965,6.0906,6.1012,6.1041,6.106,6.1099,6.1747,6.2346,6.2385,6.3729,6.4871,6.4919,6.4929,6.4938,6.5021,6.4316,6.3485,6.2607,6.3255,6.3798,6.3798,6.4577,6.5436,6.6262,6.57,6.5277,6.5238,6.4513,6.4085,6.4091,6.4082,6.4082,6.4091,6.3998,6.3519,6.2633,6.2724,6.2347,6.1491,6.153,6.153,0.0,0.0,0.0,5.1221,5.0932,5.0603,5.108,0.0,0.0,0.0,0.0,0.0,0.0,0.0,0.0,0.0,0.0,0.0,0.0,0.0,0.0,0.0,0.0,0.0,0.0,0.0,0.0,0.0,0.0,0.0,4.8881,4.9376,4.9648,4.9585,4.9707,4.9821,4.9925,5.0018,5.0082,5.0095,5.0095,5.0095,5.0108,5.0126,5.0151,5.0182,5.0255,5.0278,5.0267,5.0314,5.0371,5.0651,5.2406,5.3112,5.3385,5.516,5.5875,5.5924,5.5962,5.5971,5.5971,5.5971,5.5943,5.5905,5.5953,5.5989,5.6147,5.6704,5.7741,5.8789,5.9375,6.0383,6.1263,6.1299,6.1299,6.1434,6.1939,6.2303,6.2701,6.325,6.4325,6.5112,6.5075,6.5523,6.592,6.5926,6.5228,6.4386,6.351,6.3709,6.3934,6.3925,6.4719,6.5589,6.651,6.6357,6.6204,6.6204,6.5962,6.5825,6.5823,6.5831,6.5831,6.5823,6.5831,6.5109,6.3605,6.3618,6.3468,6.3176,6.3176,6.3169,5.0808,0.0,0.0,0.0,0.0,5.0913,5.1385,0.0,0.0,0.0,0.0,0.0,0.0,0.0,0.0,0.0,0.0,0.0,0.0,0.0,0.0,0.0,0.0,0.0,0.0,0.0,0.0,0.0,0.0,0.0,4.9029,4.9476,4.975,4.9807,4.9885,4.9992,5.0108,5.017,5.0207,5.0231,5.0231,5.0231,5.0243,5.029,5.0314,5.0314,5.0424,5.0424,5.0356,5.0722,5.073,5.0746,5.2818,5.3465,5.3446,5.5258,5.5962,5.5999,5.6035,5.6016,5.6036,5.6364,5.6441,5.6471,5.6796,5.695,5.7059,5.7341,5.8297,5.9302,5.9593,6.0526,6.1407,6.1407,6.1394,6.1622,6.249,6.2624,6.2866,6.3731,6.4605,6.518,6.5165,6.5864,6.6435,6.6465,6.6006,6.5268,6.4102,6.4526,6.4688,6.4098,6.5088,6.6023,6.6644,6.6726,6.672,6.672,6.6775,6.681,6.6801,6.6808,6.6808,6.6805,6.6808,6.6214,6.5011,6.4718,6.4426,6.4134,6.4134,6.4125,0.0,0.0,0.0,0.0,0.0,0.0,5.0933,0.0,0.0,0.0,0.0,0.0,0.0,0.0,0.0,0.0,0.0,0.0,0.0,0.0,0.0,0.0,0.0,0.0,0.0,0.0,0.0,0.0,0.0,4.9847,4.9783,4.9802,4.9857,5.0005,5.0126,5.0243,5.0302,5.0379,5.0435,5.05,5.05,5.05,5.05,5.0511,5.0511,5.0511,5.0582,5.0551,5.053,5.1425,5.1355,5.0933,5.3504,5.4034,5.3569,5.5353,5.5999,5.6017,5.6093,5.6054,5.6156,5.7088,5.7389,5.7564,5.8436,5.8729,5.8597,5.7774,5.8765,5.9872,5.9095,6.0144,6.1414,6.1414,6.1415,6.1661,6.2626,6.2718,6.2864,6.3738,6.4612,6.5222,6.5264,6.5952,6.6523,6.6566,6.6558,6.5973,6.4357,6.5586,6.5981,6.4324,6.565,6.6672,6.6692,6.6752,6.6803,6.6803,6.6803,6.6803,6.6803,6.6805,6.6805,6.6806,6.6805,6.6805,6.6806,6.5945,6.5109,6.4271,6.4271,6.4274,5.0988,0.0,0.0,0.0,0.0,0.0,0.0,0.0,0.0,0.0,0.0,0.0,0.0,0.0,0.0,0.0,0.0,0.0,0.0,0.0,0.0,0.0,0.0,0.0,0.0,0.0,0.0,0.0,4.925,4.9188,4.9212,4.9727,5.0057,5.0139,5.0231,5.0302,5.0359,5.0446,5.0489,5.05,5.05,5.05,5.0511,5.0545,5.0567,5.0576,5.0691,5.1082,5.165,5.1857,5.2223,5.2768,5.4164,5.4575,5.452,5.5703,5.6145,5.6153,5.6168,5.6163,5.6291,5.7188,5.7462,5.7624,5.8498,5.8377,5.8017,5.8406,5.8888,5.9537,6.055,6.1173,6.1542,6.1542,6.1528,6.1948,6.3414,6.3243,6.3073,6.395,6.4826,6.5216,6.4603,6.5694,6.6434,6.5825,6.5728,6.5557,6.5109,6.4919,6.4895,6.5097,6.5507,6.6026,6.6716,6.6787,6.6803,6.6803,6.6798,6.6805,6.6805,6.6801,6.6807,6.6804,6.6807,6.6807,6.6804,6.6564,6.6323,6.6083,6.6087,6.6078,0.0,0.0,0.0,0.0,0.0,0.0,5.133,5.1286,0.0,0.0,0.0,0.0,0.0,0.0,0.0,0.0,0.0,0.0,0.0,0.0,0.0,0.0,0.0,0.0,0.0,0.0,0.0,4.9105,4.9018,4.8955,4.8948,4.9761,5.0231,5.0243,5.0337,5.0424,5.0478,5.0523,5.0565,5.0585,5.0615,5.0625,5.0625,5.0682,5.072,5.0729,5.0847,5.1575,5.2728,5.2701,5.3022,5.3607,5.4878,5.5161,5.4958,5.5867,5.6211,5.6199,5.6233,5.6227,5.6408,5.7676,5.8083,5.8303,5.9546,5.9629,5.9299,5.944,5.9509,5.9854,6.1237,6.1607,6.1607,6.1607,6.1597,6.1874,6.2849,6.2968,6.3273,6.4493,6.4868,6.4794,6.4287,6.5016,6.5484,6.4985,6.5227,6.5348,6.495,6.5094,6.5301,6.5491,6.578,6.6216,6.6742,6.6808,6.6798,6.6808,6.6792,6.6795,6.6804,6.6792,6.6795,6.6795,6.68,6.6805,6.685,6.6809,6.6807,6.6839,6.6832,6.6838,0.0,0.0,0.0,0.0,0.0,0.0,5.1235,5.126,5.1278,0.0,0.0,0.0,0.0,0.0,0.0,0.0,0.0,0.0,0.0,0.0,0.0,0.0,0.0,0.0,0.0,4.8488,4.8335,4.9139,4.9177,4.9056,4.8805,4.9817,5.0401,5.0329,5.0448,5.0553,5.0623,5.0625,5.0654,5.072,5.0793,5.0819,5.0827,5.0897,5.0913,5.094,5.1092,5.2097,5.3631,5.3786,5.387,5.4044,5.5604,5.5741,5.5152,5.5935,5.6219,5.6226,5.6303,5.6292,5.651,5.8222,5.8773,5.9095,6.0847,6.1354,6.1182,6.0496,6.03,6.0497,6.1373,6.1607,6.1607,6.1592,6.1606,6.1623,6.172,6.2364,6.3425,6.5164,6.486,6.4349,6.4349,6.4366,6.4356,6.4356,6.507,6.5326,6.4573,6.5831,6.6497,6.5722,6.6335,6.679,6.6792,6.6798,6.6795,6.679,6.6801,6.6798,6.6792,6.6795,6.6795,6.6795,6.6807,6.6836,6.6904,6.6839,6.6839,6.6904,6.6905,6.6905,0.0,0.0,0.0,0.0,0.0,0.0,5.019,5.0348,5.0542,0.0,0.0,0.0,0.0,0.0,0.0,0.0,0.0,0.0,0.0,0.0,0.0,0.0,0.0,0.0,0.0,4.8577,4.8404,4.9219,4.9848,4.9614,4.8252,4.9644,5.0502,5.0546,5.0567,5.0645,5.0757,5.0801,5.0844,5.0866,5.0933,5.0956,5.0956,5.1037,5.1063,5.1101,5.188,5.282,5.3896,5.4543,5.5199,5.5814,5.6144,5.6216,5.612,5.63,5.6359,5.6363,5.6448,5.6448,5.6624,5.7666,5.8005,5.834,6.0098,6.0125,5.97,6.0165,6.03,6.0497,6.1373,6.1607,6.1592,6.1591,6.1599,6.1783,6.2481,6.2815,6.3488,6.5162,6.5361,6.525,6.5321,6.5326,6.5326,6.5326,6.5485,6.578,6.6226,6.6589,6.6736,6.6558,6.665,6.6736,6.6794,6.6756,6.6732,6.6794,6.6805,6.6795,6.6798,6.6809,6.6795,6.6795,6.6807,6.682,6.689,6.689,6.689,6.689,6.6893,6.6894,0.0,0.0,0.0,4.8901,0.0,0.0,0.0,4.9509,4.9629,5.0016,0.0,0.0,0.0,0.0,0.0,0.0,0.0,0.0,0.0,0.0,0.0,0.0,0.0,0.0,0.0,4.8742,4.821,4.8105,4.9288,4.9423,4.8126,4.9673,5.0625,5.0644,5.0673,5.0729,5.0801,5.0905,5.0952,5.0956,5.1016,5.105,5.105,5.1119,5.1161,5.1189,5.2135,5.3057,5.3954,5.48,5.5642,5.6398,5.6396,5.642,5.6441,5.6453,5.6457,5.6461,5.6498,5.6498,5.665,5.7515,5.8083,5.8682,5.9998,6.0379,6.0425,6.0824,6.0952,6.1047,6.1485,6.1606,6.1591,6.1596,6.1627,6.1771,6.221,6.2675,6.3252,6.4091,6.4598,6.505,6.5526,6.5234,6.4804,6.4375,6.5038,6.5585,6.5565,6.6277,6.6792,6.6792,6.6767,6.6752,6.6803,6.6771,6.6756,6.6798,6.6808,6.6795,6.6804,6.6792,6.68,6.6805,6.6809,6.6821,6.6892,6.6892,6.6892,6.6894,6.6894,6.6894,0.0,0.0,0.0,0.0,0.0,4.8471,0.0,0.0,0.0,4.8846,0.0,0.0,0.0,0.0,0.0,0.0,0.0,0.0,0.0,0.0,0.0,0.0,0.0,0.0,0.0,4.8909,4.8002,4.7031,4.8549,4.9129,4.8207,4.9786,5.072,5.0738,5.0782,5.0836,5.0861,5.0971,5.1029,5.1042,5.1287,5.1303,5.1153,5.1366,5.1376,5.1278,5.2383,5.3268,5.3993,5.5035,5.5873,5.6528,5.6517,5.6507,5.6514,5.6527,5.6514,5.6514,5.6528,5.6523,5.6634,5.7341,5.8258,5.9265,6.0137,6.096,6.1621,6.1621,6.1615,6.1606,6.1603,6.1608,6.1596,6.1615,6.1651,6.1699,6.1702,6.2259,6.2794,6.2969,6.3691,6.4514,6.5234,6.4628,6.3926,6.3555,6.455,6.5214,6.4826,6.5965,6.6792,6.6792,6.6794,6.6803,6.681,6.6794,6.6801,6.6801,6.6804,6.6812,6.6822,6.68,6.6805,6.6791,6.6791,6.682,6.689,6.6891,6.6893,6.6894,6.6894,6.6894,0.0,0.0,0.0,0.0,4.7116,0.0,0.0,0.0,4.7945,4.8652,0.0,0.0,0.0,0.0,0.0,0.0,0.0,0.0,0.0,0.0,0.0,0.0,0.0,0.0,0.0,0.0,4.8126,4.7236,4.867,4.922,4.8413,4.9906,5.0827,5.0874,5.0882,5.0944,5.1069,5.1088,5.1117,5.1185,5.2023,5.2017,5.1297,5.208,5.2029,5.139,5.3033,5.3838,5.4103,5.5706,5.6455,5.6582,5.6528,5.655,5.6599,5.6582,5.6582,5.6582,5.6582,5.6582,5.6602,5.6701,5.7814,5.9258,6.0139,6.1007,6.1696,6.1696,6.1644,6.1591,6.1591,6.1591,6.1618,6.1673,6.1696,6.1702,6.1696,6.1776,6.2071,6.2852,6.3691,6.4338,6.4436,6.3711,6.3633,6.5097,6.4824,6.4943,6.6346,6.6687,6.6792,6.6792,6.6794,6.6791,6.6808,6.6804,6.6798,6.6807,6.6856,6.688,6.6881,6.6834,6.6791,6.6791,6.6791,6.6836,6.6905,6.6909,6.6893,6.6894,6.6894,6.6894,0.0,0.0,0.0,0.0,0.0,0.0,0.0,0.0,4.6948,0.0,0.0,0.0,0.0,0.0,0.0,0.0,0.0,0.0,0.0,0.0,0.0,0.0,0.0,0.0,0.0,0.0,0.0,0.0,0.0,4.829,4.8445,4.9543,5.0403,5.0937,5.0956,5.1007,5.1095,5.115,5.1422,5.1969,5.2401,5.2407,5.2068,5.2434,5.2152,5.1453,5.3203,5.3962,5.4123,5.5853,5.6561,5.6603,5.6579,5.6577,5.6596,5.6602,5.6603,5.6603,5.6603,5.6603,5.6759,5.7736,5.8865,6.0011,6.0891,6.1405,6.1699,6.1699,6.1648,6.1618,6.1648,6.167,6.1673,6.1688,6.1691,6.1693,6.1698,6.1698,6.1815,6.2169,6.254,6.2952,6.3468,6.4477,6.5292,6.5565,6.5682,6.5843,6.6065,6.6502,6.679,6.6798,6.6807,6.6798,6.6807,6.68,6.6809,6.6793,6.686,6.6904,6.6904,6.686,6.6859,6.6859,6.6859,6.6863,6.6908,6.6891,6.6893,6.6894,6.6894,6.6894,4.7821,0.0,0.0,0.0,0.0,0.0,0.0,0.0,0.0,0.0,0.0,0.0,0.0,0.0,0.0,0.0,0.0,0.0,0.0,0.0,0.0,0.0,0.0,0.0,0.0,0.0,0.0,0.0,4.6964,4.7538,4.8158,4.9175,5.004,5.068,5.0905,5.1063,5.1138,5.1189,5.1541,5.2178,5.2469,5.2473,5.2292,5.2766,5.2522,5.1857,5.3598,5.435,5.447,5.5984,5.6593,5.6593,5.6594,5.6593,5.6607,5.6592,5.6593,5.6593,5.6593,5.6769,5.7237,5.8917,5.9889,6.0565,6.1444,6.1705,6.1705,6.1705,6.1657,6.1631,6.1682,6.1705,6.1707,6.1696,6.1698,6.1701,6.1703,6.1705,6.1764,6.2017,6.2254,6.2688,6.3552,6.4855,6.5729,6.5614,6.6104,6.634,6.5996,6.6479,6.6828,6.6836,6.683,6.6826,6.6826,6.6836,6.6821,6.6824,6.6867,6.6907,6.6906,6.7121,6.7139,6.6904,6.7119,6.7121,6.691,6.6891,6.6893,6.6894,6.6894,6.6894,0.0,0.0,0.0,4.7342,0.0,0.0,0.0,0.0,4.6301,0.0,0.0,0.0,0.0,0.0,0.0,0.0,0.0,0.0,0.0,0.0,0.0,0.0,0.0,0.0,0.0,0.0,0.0,4.7468,4.7414,4.7412,4.7432,4.8939,4.9831,4.9928,5.0681,5.1119,5.1206,5.1254,5.1308,5.1349,5.2204,5.2191,5.1492,5.3184,5.3489,5.2763,5.4509,5.526,5.5324,5.6222,5.6593,5.6593,5.6598,5.6599,5.6599,5.6595,5.6593,5.6593,5.6593,5.7159,5.8136,5.9816,6.0378,6.0565,6.1444,6.1709,6.1698,6.1698,6.1698,6.1698,6.1698,6.1698,6.1698,6.1698,6.1698,6.1703,6.1696,6.1697,6.1951,6.2789,6.3637,6.4499,6.537,6.4197,6.3692,6.534,6.5615,6.5927,6.6746,6.6883,6.6902,6.6902,6.6902,6.6902,6.6902,6.6908,6.6893,6.6894,6.6894,6.6894,6.6892,6.7712,6.7768,6.6923,6.7665,6.7685,6.6904,6.6909,6.6892,6.6892,6.6894,6.6894,0.0,0.0,4.7753,4.6727,0.0,0.0,0.0,0.0,0.0,0.0,0.0,0.0,0.0,0.0,0.0,0.0,0.0,0.0,0.0,0.0,0.0,0.0,0.0,0.0,0.0,0.0,0.0,4.6749,4.6676,4.6883,0.0,4.7921,4.8725,4.9856,5.0161,5.0598,5.1191,5.1278,5.1585,5.2168,5.3046,5.3331,5.3164,5.4331,5.4381,5.3631,5.4796,5.5308,5.5368,5.6248,5.6601,5.6601,5.6601,5.6601,5.6601,5.6601,5.6601,5.6601,5.6601,5.7167,5.8085,5.9235,5.9973,6.0552,6.1445,6.1709,6.1698,6.1698,6.1698,6.1698,6.1698,6.1698,6.1698,6.1698,6.1698,6.1703,6.1696,6.1697,6.1797,6.2075,6.2841,6.3722,6.4583,6.472,6.511,6.6279,6.6455,6.6573,6.685,6.6909,6.689,6.6893,6.6893,6.6893,6.6893,6.6894,6.6894,6.6894,6.6894,6.6894,6.6894,6.7187,6.746,6.7753,6.8026,6.8319,6.8612,6.8612,6.8613,6.8613,6.8613,6.8301,4.7298,4.7434,0.0,4.6249,4.663,0.0,4.6333,0.0,0.0,0.0,0.0,0.0,0.0,0.0,0.0,0.0,0.0,0.0,0.0,4.6771,0.0,0.0,0.0,0.0,0.0,0.0,4.6908,4.6333,4.6305,4.6501,0.0,0.0,4.8368,4.9439,5.004,5.0645,5.1225,5.128,5.1744,5.2636,5.32,5.366,5.4038,5.491,5.4997,5.4518,5.5387,5.576,5.58,5.6367,5.6601,5.6601,5.6601,5.6601,5.6601,5.6601,5.6601,5.664,5.6953,5.7637,5.8496,5.9354,6.0189,6.0962,6.1523,6.1709,6.1757,6.2071,6.1932,6.1776,6.2071,6.1932,6.1701,6.1705,6.1705,6.1692,6.1704,6.1707,6.1786,6.2102,6.2612,6.3375,6.4568,6.5233,6.5897,6.6773,6.6909,6.6891,6.6893,6.6893,6.6894,6.6894,6.6894,6.6894,6.6894,6.6894,6.6894,6.6894,6.6894,6.7031,6.7344,6.7656,6.8086,6.8613,6.8925,6.9218,6.9451,6.9451,6.9452,6.9472,6.9785,6.9629]}]]